<?xml version="1.0" encoding="UTF-8" standalone="no" ?>
<gpx xmlns="http://www.topografix.com/GPX/1/1" xmlns:xsi="http://www.w3.org/2001/XMLSchema-instance" xsi:schemaLocation="http://www.topografix.com/GPX/1/1 http://www.topografix.com/GPX/1/1/gpx.xsd" version="1.1" creator="VisuGPX - https://www.visugpx.com">
  <metadata>
    <name>Néronde et ses environs</name>
    <desc><![CDATA[Une balade dans les environs de Néronde. ]]></desc>
  </metadata>
  <trk>
    <name><![CDATA[20181105194053-aeF5o]]></name>
    <trkseg>
      <trkpt lat="45.83929" lon="4.23665">
        <ele>530.643</ele>
        <time>2018-11-05T12:39:10Z</time>
      </trkpt>
      <trkpt lat="45.8393" lon="4.23662">
        <ele>533.43</ele>
        <time>2018-11-05T12:39:15Z</time>
      </trkpt>
      <trkpt lat="45.8393" lon="4.23662">
        <ele>529.628</ele>
        <time>2018-11-05T12:39:20Z</time>
      </trkpt>
      <trkpt lat="45.8394" lon="4.23659">
        <ele>519.785</ele>
        <time>2018-11-05T12:39:26Z</time>
      </trkpt>
      <trkpt lat="45.83944" lon="4.23655">
        <ele>520.955</ele>
        <time>2018-11-05T12:39:31Z</time>
      </trkpt>
      <trkpt lat="45.8395" lon="4.23649">
        <ele>520.293</ele>
        <time>2018-11-05T12:39:36Z</time>
      </trkpt>
      <trkpt lat="45.83954" lon="4.23644">
        <ele>516.968</ele>
        <time>2018-11-05T12:39:42Z</time>
      </trkpt>
      <trkpt lat="45.83957" lon="4.23644">
        <ele>516.33</ele>
        <time>2018-11-05T12:39:47Z</time>
      </trkpt>
      <trkpt lat="45.83957" lon="4.23644">
        <ele>515.993</ele>
        <time>2018-11-05T12:39:53Z</time>
      </trkpt>
      <trkpt lat="45.83961" lon="4.23644">
        <ele>515.97</ele>
        <time>2018-11-05T12:39:59Z</time>
      </trkpt>
      <trkpt lat="45.83965" lon="4.23647">
        <ele>516.166</ele>
        <time>2018-11-05T12:40:04Z</time>
      </trkpt>
      <trkpt lat="45.83969" lon="4.23647">
        <ele>515.941</ele>
        <time>2018-11-05T12:40:09Z</time>
      </trkpt>
      <trkpt lat="45.83973" lon="4.23645">
        <ele>516.301</ele>
        <time>2018-11-05T12:40:15Z</time>
      </trkpt>
      <trkpt lat="45.83978" lon="4.23644">
        <ele>516.609</ele>
        <time>2018-11-05T12:40:21Z</time>
      </trkpt>
      <trkpt lat="45.83979" lon="4.23645">
        <ele>516.631</ele>
        <time>2018-11-05T12:40:26Z</time>
      </trkpt>
      <trkpt lat="45.83983" lon="4.23645">
        <ele>516.074</ele>
        <time>2018-11-05T12:40:32Z</time>
      </trkpt>
      <trkpt lat="45.83988" lon="4.23644">
        <ele>515.447</ele>
        <time>2018-11-05T12:40:38Z</time>
      </trkpt>
      <trkpt lat="45.83989" lon="4.23647">
        <ele>515.071</ele>
        <time>2018-11-05T12:40:43Z</time>
      </trkpt>
      <trkpt lat="45.83986" lon="4.23653">
        <ele>515.552</ele>
        <time>2018-11-05T12:40:49Z</time>
      </trkpt>
      <trkpt lat="45.83983" lon="4.23659">
        <ele>515.806</ele>
        <time>2018-11-05T12:40:55Z</time>
      </trkpt>
      <trkpt lat="45.83973" lon="4.23666">
        <ele>515.68</ele>
        <time>2018-11-05T12:41:01Z</time>
      </trkpt>
      <trkpt lat="45.8397" lon="4.23673">
        <ele>514.985</ele>
        <time>2018-11-05T12:41:06Z</time>
      </trkpt>
      <trkpt lat="45.83971" lon="4.23681">
        <ele>514.133</ele>
        <time>2018-11-05T12:41:12Z</time>
      </trkpt>
      <trkpt lat="45.83969" lon="4.23688">
        <ele>513.206</ele>
        <time>2018-11-05T12:41:17Z</time>
      </trkpt>
      <trkpt lat="45.83968" lon="4.23699">
        <ele>512.454</ele>
        <time>2018-11-05T12:41:23Z</time>
      </trkpt>
      <trkpt lat="45.83972" lon="4.23702">
        <ele>511.817</ele>
        <time>2018-11-05T12:41:28Z</time>
      </trkpt>
      <trkpt lat="45.8398" lon="4.23701">
        <ele>511.163</ele>
        <time>2018-11-05T12:41:33Z</time>
      </trkpt>
      <trkpt lat="45.83985" lon="4.23702">
        <ele>510.503</ele>
        <time>2018-11-05T12:41:38Z</time>
      </trkpt>
      <trkpt lat="45.83993" lon="4.23704">
        <ele>509.793</ele>
        <time>2018-11-05T12:41:44Z</time>
      </trkpt>
      <trkpt lat="45.83998" lon="4.23709">
        <ele>508.79</ele>
        <time>2018-11-05T12:41:49Z</time>
      </trkpt>
      <trkpt lat="45.84003" lon="4.23714">
        <ele>508.049</ele>
        <time>2018-11-05T12:41:54Z</time>
      </trkpt>
      <trkpt lat="45.8401" lon="4.23719">
        <ele>507.713</ele>
        <time>2018-11-05T12:42:00Z</time>
      </trkpt>
      <trkpt lat="45.84014" lon="4.23723">
        <ele>507.268</ele>
        <time>2018-11-05T12:42:05Z</time>
      </trkpt>
      <trkpt lat="45.84018" lon="4.23727">
        <ele>506.989</ele>
        <time>2018-11-05T12:42:10Z</time>
      </trkpt>
      <trkpt lat="45.84025" lon="4.23729">
        <ele>506.51</ele>
        <time>2018-11-05T12:42:16Z</time>
      </trkpt>
      <trkpt lat="45.84031" lon="4.23733">
        <ele>506.348</ele>
        <time>2018-11-05T12:42:22Z</time>
      </trkpt>
      <trkpt lat="45.84036" lon="4.23738">
        <ele>506.417</ele>
        <time>2018-11-05T12:42:28Z</time>
      </trkpt>
      <trkpt lat="45.84042" lon="4.23745">
        <ele>506.776</ele>
        <time>2018-11-05T12:42:34Z</time>
      </trkpt>
      <trkpt lat="45.84048" lon="4.23755">
        <ele>506.972</ele>
        <time>2018-11-05T12:42:40Z</time>
      </trkpt>
      <trkpt lat="45.84054" lon="4.23762">
        <ele>506.941</ele>
        <time>2018-11-05T12:42:46Z</time>
      </trkpt>
      <trkpt lat="45.84061" lon="4.23766">
        <ele>507.042</ele>
        <time>2018-11-05T12:42:52Z</time>
      </trkpt>
      <trkpt lat="45.84066" lon="4.2377">
        <ele>506.997</ele>
        <time>2018-11-05T12:42:57Z</time>
      </trkpt>
      <trkpt lat="45.84073" lon="4.23774">
        <ele>507.186</ele>
        <time>2018-11-05T12:43:03Z</time>
      </trkpt>
      <trkpt lat="45.8408" lon="4.2378">
        <ele>507.31</ele>
        <time>2018-11-05T12:43:08Z</time>
      </trkpt>
      <trkpt lat="45.84084" lon="4.23786">
        <ele>507.367</ele>
        <time>2018-11-05T12:43:14Z</time>
      </trkpt>
      <trkpt lat="45.84089" lon="4.23793">
        <ele>506.542</ele>
        <time>2018-11-05T12:43:20Z</time>
      </trkpt>
      <trkpt lat="45.84093" lon="4.23805">
        <ele>505.864</ele>
        <time>2018-11-05T12:43:26Z</time>
      </trkpt>
      <trkpt lat="45.84096" lon="4.23808">
        <ele>504.972</ele>
        <time>2018-11-05T12:43:32Z</time>
      </trkpt>
      <trkpt lat="45.84104" lon="4.23808">
        <ele>504.415</ele>
        <time>2018-11-05T12:43:38Z</time>
      </trkpt>
      <trkpt lat="45.84111" lon="4.23809">
        <ele>503.88</ele>
        <time>2018-11-05T12:43:43Z</time>
      </trkpt>
      <trkpt lat="45.84116" lon="4.2381">
        <ele>503.602</ele>
        <time>2018-11-05T12:43:48Z</time>
      </trkpt>
      <trkpt lat="45.84122" lon="4.23814">
        <ele>503.042</ele>
        <time>2018-11-05T12:43:53Z</time>
      </trkpt>
      <trkpt lat="45.8413" lon="4.23823">
        <ele>502.628</ele>
        <time>2018-11-05T12:43:59Z</time>
      </trkpt>
      <trkpt lat="45.84129" lon="4.23833">
        <ele>501.805</ele>
        <time>2018-11-05T12:44:04Z</time>
      </trkpt>
      <trkpt lat="45.84128" lon="4.23842">
        <ele>500.807</ele>
        <time>2018-11-05T12:44:10Z</time>
      </trkpt>
      <trkpt lat="45.84128" lon="4.23848">
        <ele>500.394</ele>
        <time>2018-11-05T12:44:16Z</time>
      </trkpt>
      <trkpt lat="45.84124" lon="4.23859">
        <ele>500.192</ele>
        <time>2018-11-05T12:44:21Z</time>
      </trkpt>
      <trkpt lat="45.84123" lon="4.23872">
        <ele>499.82</ele>
        <time>2018-11-05T12:44:27Z</time>
      </trkpt>
      <trkpt lat="45.84123" lon="4.2388">
        <ele>499.44</ele>
        <time>2018-11-05T12:44:32Z</time>
      </trkpt>
      <trkpt lat="45.84122" lon="4.23888">
        <ele>499.446</ele>
        <time>2018-11-05T12:44:38Z</time>
      </trkpt>
      <trkpt lat="45.8412" lon="4.23899">
        <ele>499.211</ele>
        <time>2018-11-05T12:44:43Z</time>
      </trkpt>
      <trkpt lat="45.8412" lon="4.23907">
        <ele>498.942</ele>
        <time>2018-11-05T12:44:49Z</time>
      </trkpt>
      <trkpt lat="45.84118" lon="4.23916">
        <ele>498.415</ele>
        <time>2018-11-05T12:44:54Z</time>
      </trkpt>
      <trkpt lat="45.8412" lon="4.23929">
        <ele>498.345</ele>
        <time>2018-11-05T12:44:59Z</time>
      </trkpt>
      <trkpt lat="45.84124" lon="4.23934">
        <ele>498.296</ele>
        <time>2018-11-05T12:45:05Z</time>
      </trkpt>
      <trkpt lat="45.84129" lon="4.2394">
        <ele>498.248</ele>
        <time>2018-11-05T12:45:10Z</time>
      </trkpt>
      <trkpt lat="45.84131" lon="4.23948">
        <ele>498.392</ele>
        <time>2018-11-05T12:45:16Z</time>
      </trkpt>
      <trkpt lat="45.84136" lon="4.23954">
        <ele>498.848</ele>
        <time>2018-11-05T12:45:22Z</time>
      </trkpt>
      <trkpt lat="45.84141" lon="4.23964">
        <ele>498.659</ele>
        <time>2018-11-05T12:45:28Z</time>
      </trkpt>
      <trkpt lat="45.84144" lon="4.23974">
        <ele>498.412</ele>
        <time>2018-11-05T12:45:34Z</time>
      </trkpt>
      <trkpt lat="45.84145" lon="4.23979">
        <ele>498.313</ele>
        <time>2018-11-05T12:45:39Z</time>
      </trkpt>
      <trkpt lat="45.84148" lon="4.23991">
        <ele>497.838</ele>
        <time>2018-11-05T12:45:45Z</time>
      </trkpt>
      <trkpt lat="45.8415" lon="4.23998">
        <ele>497.703</ele>
        <time>2018-11-05T12:45:50Z</time>
      </trkpt>
      <trkpt lat="45.84152" lon="4.24009">
        <ele>498.08</ele>
        <time>2018-11-05T12:45:56Z</time>
      </trkpt>
      <trkpt lat="45.84154" lon="4.24016">
        <ele>498.099</ele>
        <time>2018-11-05T12:46:02Z</time>
      </trkpt>
      <trkpt lat="45.84159" lon="4.24025">
        <ele>498.221</ele>
        <time>2018-11-05T12:46:08Z</time>
      </trkpt>
      <trkpt lat="45.84162" lon="4.24032">
        <ele>498.29</ele>
        <time>2018-11-05T12:46:14Z</time>
      </trkpt>
      <trkpt lat="45.84166" lon="4.24039">
        <ele>498.319</ele>
        <time>2018-11-05T12:46:19Z</time>
      </trkpt>
      <trkpt lat="45.84168" lon="4.24046">
        <ele>498.607</ele>
        <time>2018-11-05T12:46:25Z</time>
      </trkpt>
      <trkpt lat="45.84172" lon="4.24054">
        <ele>498.798</ele>
        <time>2018-11-05T12:46:30Z</time>
      </trkpt>
      <trkpt lat="45.84178" lon="4.24062">
        <ele>499.064</ele>
        <time>2018-11-05T12:46:35Z</time>
      </trkpt>
      <trkpt lat="45.8418" lon="4.24068">
        <ele>499.548</ele>
        <time>2018-11-05T12:46:41Z</time>
      </trkpt>
      <trkpt lat="45.84183" lon="4.2408">
        <ele>499.637</ele>
        <time>2018-11-05T12:46:47Z</time>
      </trkpt>
      <trkpt lat="45.84185" lon="4.24088">
        <ele>499.557</ele>
        <time>2018-11-05T12:46:53Z</time>
      </trkpt>
      <trkpt lat="45.8419" lon="4.24091">
        <ele>499.83</ele>
        <time>2018-11-05T12:46:59Z</time>
      </trkpt>
      <trkpt lat="45.84197" lon="4.24096">
        <ele>499.954</ele>
        <time>2018-11-05T12:47:04Z</time>
      </trkpt>
      <trkpt lat="45.842" lon="4.241">
        <ele>500.28</ele>
        <time>2018-11-05T12:47:10Z</time>
      </trkpt>
      <trkpt lat="45.84204" lon="4.24106">
        <ele>500.853</ele>
        <time>2018-11-05T12:47:16Z</time>
      </trkpt>
      <trkpt lat="45.84211" lon="4.2411">
        <ele>501.16</ele>
        <time>2018-11-05T12:47:21Z</time>
      </trkpt>
      <trkpt lat="45.84216" lon="4.24114">
        <ele>501.788</ele>
        <time>2018-11-05T12:47:27Z</time>
      </trkpt>
      <trkpt lat="45.8422" lon="4.2412">
        <ele>502.401</ele>
        <time>2018-11-05T12:47:32Z</time>
      </trkpt>
      <trkpt lat="45.84224" lon="4.2413">
        <ele>502.595</ele>
        <time>2018-11-05T12:47:38Z</time>
      </trkpt>
      <trkpt lat="45.84226" lon="4.2414">
        <ele>502.978</ele>
        <time>2018-11-05T12:47:43Z</time>
      </trkpt>
      <trkpt lat="45.84228" lon="4.24149">
        <ele>503.226</ele>
        <time>2018-11-05T12:47:49Z</time>
      </trkpt>
      <trkpt lat="45.84232" lon="4.24156">
        <ele>503.388</ele>
        <time>2018-11-05T12:47:55Z</time>
      </trkpt>
      <trkpt lat="45.84238" lon="4.24163">
        <ele>503.394</ele>
        <time>2018-11-05T12:48:01Z</time>
      </trkpt>
      <trkpt lat="45.8424" lon="4.2417">
        <ele>503.369</ele>
        <time>2018-11-05T12:48:06Z</time>
      </trkpt>
      <trkpt lat="45.84242" lon="4.24179">
        <ele>503.234</ele>
        <time>2018-11-05T12:48:12Z</time>
      </trkpt>
      <trkpt lat="45.84245" lon="4.24186">
        <ele>503.994</ele>
        <time>2018-11-05T12:48:18Z</time>
      </trkpt>
      <trkpt lat="45.84247" lon="4.24195">
        <ele>504.263</ele>
        <time>2018-11-05T12:48:23Z</time>
      </trkpt>
      <trkpt lat="45.8425" lon="4.24201">
        <ele>504.602</ele>
        <time>2018-11-05T12:48:29Z</time>
      </trkpt>
      <trkpt lat="45.84253" lon="4.24205">
        <ele>504.763</ele>
        <time>2018-11-05T12:48:34Z</time>
      </trkpt>
      <trkpt lat="45.84259" lon="4.24214">
        <ele>504.957</ele>
        <time>2018-11-05T12:48:40Z</time>
      </trkpt>
      <trkpt lat="45.84262" lon="4.24221">
        <ele>505.036</ele>
        <time>2018-11-05T12:48:46Z</time>
      </trkpt>
      <trkpt lat="45.84266" lon="4.24225">
        <ele>505.189</ele>
        <time>2018-11-05T12:48:51Z</time>
      </trkpt>
      <trkpt lat="45.84272" lon="4.2423">
        <ele>505.67</ele>
        <time>2018-11-05T12:48:57Z</time>
      </trkpt>
      <trkpt lat="45.84276" lon="4.24233">
        <ele>506.029</ele>
        <time>2018-11-05T12:49:02Z</time>
      </trkpt>
      <trkpt lat="45.84279" lon="4.24238">
        <ele>506.643</ele>
        <time>2018-11-05T12:49:07Z</time>
      </trkpt>
      <trkpt lat="45.84281" lon="4.24244">
        <ele>507.198</ele>
        <time>2018-11-05T12:49:13Z</time>
      </trkpt>
      <trkpt lat="45.84286" lon="4.24246">
        <ele>508.021</ele>
        <time>2018-11-05T12:49:18Z</time>
      </trkpt>
      <trkpt lat="45.8429" lon="4.2425">
        <ele>508.347</ele>
        <time>2018-11-05T12:49:23Z</time>
      </trkpt>
      <trkpt lat="45.8429" lon="4.24252">
        <ele>508.316</ele>
        <time>2018-11-05T12:49:29Z</time>
      </trkpt>
      <trkpt lat="45.84289" lon="4.24254">
        <ele>508.572</ele>
        <time>2018-11-05T12:49:34Z</time>
      </trkpt>
      <trkpt lat="45.84291" lon="4.24258">
        <ele>509.016</ele>
        <time>2018-11-05T12:49:40Z</time>
      </trkpt>
      <trkpt lat="45.84292" lon="4.24261">
        <ele>509.298</ele>
        <time>2018-11-05T12:49:45Z</time>
      </trkpt>
      <trkpt lat="45.84293" lon="4.24264">
        <ele>509.304</ele>
        <time>2018-11-05T12:49:51Z</time>
      </trkpt>
      <trkpt lat="45.84294" lon="4.24263">
        <ele>509.093</ele>
        <time>2018-11-05T12:49:56Z</time>
      </trkpt>
      <trkpt lat="45.84294" lon="4.24267">
        <ele>509.233</ele>
        <time>2018-11-05T12:50:02Z</time>
      </trkpt>
      <trkpt lat="45.84294" lon="4.24269">
        <ele>509.204</ele>
        <time>2018-11-05T12:50:08Z</time>
      </trkpt>
      <trkpt lat="45.84294" lon="4.24269">
        <ele>509.091</ele>
        <time>2018-11-05T12:50:14Z</time>
      </trkpt>
      <trkpt lat="45.84294" lon="4.24272">
        <ele>509.86</ele>
        <time>2018-11-05T12:50:20Z</time>
      </trkpt>
      <trkpt lat="45.84296" lon="4.24275">
        <ele>510.222</ele>
        <time>2018-11-05T12:50:25Z</time>
      </trkpt>
      <trkpt lat="45.84298" lon="4.24279">
        <ele>510.402</ele>
        <time>2018-11-05T12:50:31Z</time>
      </trkpt>
      <trkpt lat="45.84297" lon="4.24285">
        <ele>510.791</ele>
        <time>2018-11-05T12:50:37Z</time>
      </trkpt>
      <trkpt lat="45.84297" lon="4.24292">
        <ele>511.762</ele>
        <time>2018-11-05T12:50:43Z</time>
      </trkpt>
      <trkpt lat="45.84299" lon="4.24298">
        <ele>512.34</ele>
        <time>2018-11-05T12:50:48Z</time>
      </trkpt>
      <trkpt lat="45.84298" lon="4.2431">
        <ele>512.646</ele>
        <time>2018-11-05T12:50:54Z</time>
      </trkpt>
      <trkpt lat="45.84299" lon="4.24314">
        <ele>512.296</ele>
        <time>2018-11-05T12:51:00Z</time>
      </trkpt>
      <trkpt lat="45.843" lon="4.24317">
        <ele>512.42</ele>
        <time>2018-11-05T12:51:06Z</time>
      </trkpt>
      <trkpt lat="45.84301" lon="4.24318">
        <ele>512.971</ele>
        <time>2018-11-05T12:51:11Z</time>
      </trkpt>
      <trkpt lat="45.84304" lon="4.24319">
        <ele>512.941</ele>
        <time>2018-11-05T12:51:16Z</time>
      </trkpt>
      <trkpt lat="45.84306" lon="4.24318">
        <ele>512.526</ele>
        <time>2018-11-05T12:51:22Z</time>
      </trkpt>
      <trkpt lat="45.84306" lon="4.2432">
        <ele>512.738</ele>
        <time>2018-11-05T12:51:27Z</time>
      </trkpt>
      <trkpt lat="45.84304" lon="4.2432">
        <ele>512.922</ele>
        <time>2018-11-05T12:51:32Z</time>
      </trkpt>
      <trkpt lat="45.84304" lon="4.2432">
        <ele>513.157</ele>
        <time>2018-11-05T12:51:38Z</time>
      </trkpt>
      <trkpt lat="45.84304" lon="4.2432">
        <ele>513.238</ele>
        <time>2018-11-05T12:51:44Z</time>
      </trkpt>
      <trkpt lat="45.84304" lon="4.2432">
        <ele>513.371</ele>
        <time>2018-11-05T12:51:49Z</time>
      </trkpt>
      <trkpt lat="45.84304" lon="4.2432">
        <ele>513.446</ele>
        <time>2018-11-05T12:51:54Z</time>
      </trkpt>
      <trkpt lat="45.84304" lon="4.2432">
        <ele>513.474</ele>
        <time>2018-11-05T12:51:59Z</time>
      </trkpt>
      <trkpt lat="45.84305" lon="4.2432">
        <ele>513.759</ele>
        <time>2018-11-05T12:52:04Z</time>
      </trkpt>
      <trkpt lat="45.84305" lon="4.2432">
        <ele>514.239</ele>
        <time>2018-11-05T12:52:10Z</time>
      </trkpt>
      <trkpt lat="45.84305" lon="4.2432">
        <ele>514.416</ele>
        <time>2018-11-05T12:52:15Z</time>
      </trkpt>
      <trkpt lat="45.84305" lon="4.2432">
        <ele>514.639</ele>
        <time>2018-11-05T12:52:20Z</time>
      </trkpt>
      <trkpt lat="45.84305" lon="4.2432">
        <ele>515.303</ele>
        <time>2018-11-05T12:52:26Z</time>
      </trkpt>
      <trkpt lat="45.84305" lon="4.2432">
        <ele>515.552</ele>
        <time>2018-11-05T12:52:32Z</time>
      </trkpt>
      <trkpt lat="45.84305" lon="4.2432">
        <ele>515.695</ele>
        <time>2018-11-05T12:52:37Z</time>
      </trkpt>
      <trkpt lat="45.84305" lon="4.2432">
        <ele>515.762</ele>
        <time>2018-11-05T12:52:42Z</time>
      </trkpt>
      <trkpt lat="45.84305" lon="4.2432">
        <ele>515.866</ele>
        <time>2018-11-05T12:52:48Z</time>
      </trkpt>
      <trkpt lat="45.84305" lon="4.2432">
        <ele>516.053</ele>
        <time>2018-11-05T12:52:53Z</time>
      </trkpt>
      <trkpt lat="45.84305" lon="4.2432">
        <ele>516.391</ele>
        <time>2018-11-05T12:52:59Z</time>
      </trkpt>
      <trkpt lat="45.84305" lon="4.2432">
        <ele>516.68</ele>
        <time>2018-11-05T12:53:05Z</time>
      </trkpt>
      <trkpt lat="45.84305" lon="4.2432">
        <ele>516.823</ele>
        <time>2018-11-05T12:53:10Z</time>
      </trkpt>
      <trkpt lat="45.84305" lon="4.2432">
        <ele>516.92</ele>
        <time>2018-11-05T12:53:16Z</time>
      </trkpt>
      <trkpt lat="45.84305" lon="4.2432">
        <ele>516.966</ele>
        <time>2018-11-05T12:53:21Z</time>
      </trkpt>
      <trkpt lat="45.84305" lon="4.2432">
        <ele>516.986</ele>
        <time>2018-11-05T12:53:27Z</time>
      </trkpt>
      <trkpt lat="45.84305" lon="4.2432">
        <ele>517.097</ele>
        <time>2018-11-05T12:53:33Z</time>
      </trkpt>
      <trkpt lat="45.84305" lon="4.2432">
        <ele>517.239</ele>
        <time>2018-11-05T12:53:39Z</time>
      </trkpt>
      <trkpt lat="45.84305" lon="4.2432">
        <ele>517.607</ele>
        <time>2018-11-05T12:53:45Z</time>
      </trkpt>
      <trkpt lat="45.84305" lon="4.2432">
        <ele>517.693</ele>
        <time>2018-11-05T12:53:51Z</time>
      </trkpt>
      <trkpt lat="45.84305" lon="4.2432">
        <ele>517.801</ele>
        <time>2018-11-05T12:53:57Z</time>
      </trkpt>
      <trkpt lat="45.84305" lon="4.2432">
        <ele>517.628</ele>
        <time>2018-11-05T12:54:03Z</time>
      </trkpt>
      <trkpt lat="45.84305" lon="4.2432">
        <ele>517.391</ele>
        <time>2018-11-05T12:54:09Z</time>
      </trkpt>
      <trkpt lat="45.84304" lon="4.24323">
        <ele>516.919</ele>
        <time>2018-11-05T12:54:15Z</time>
      </trkpt>
      <trkpt lat="45.84304" lon="4.24324">
        <ele>517.394</ele>
        <time>2018-11-05T12:54:21Z</time>
      </trkpt>
      <trkpt lat="45.84304" lon="4.24324">
        <ele>517.297</ele>
        <time>2018-11-05T12:54:26Z</time>
      </trkpt>
      <trkpt lat="45.84303" lon="4.24327">
        <ele>516.605</ele>
        <time>2018-11-05T12:54:32Z</time>
      </trkpt>
      <trkpt lat="45.84303" lon="4.24328">
        <ele>516.475</ele>
        <time>2018-11-05T12:54:37Z</time>
      </trkpt>
      <trkpt lat="45.84303" lon="4.24328">
        <ele>516.749</ele>
        <time>2018-11-05T12:54:42Z</time>
      </trkpt>
      <trkpt lat="45.84303" lon="4.24328">
        <ele>517.405</ele>
        <time>2018-11-05T12:54:48Z</time>
      </trkpt>
      <trkpt lat="45.84303" lon="4.24328">
        <ele>517.76</ele>
        <time>2018-11-05T12:54:53Z</time>
      </trkpt>
      <trkpt lat="45.84303" lon="4.24328">
        <ele>517.877</ele>
        <time>2018-11-05T12:54:59Z</time>
      </trkpt>
      <trkpt lat="45.84303" lon="4.24328">
        <ele>517.957</ele>
        <time>2018-11-05T12:55:05Z</time>
      </trkpt>
      <trkpt lat="45.84304" lon="4.24331">
        <ele>518.782</ele>
        <time>2018-11-05T12:55:10Z</time>
      </trkpt>
      <trkpt lat="45.84304" lon="4.24331">
        <ele>519.298</ele>
        <time>2018-11-05T12:55:16Z</time>
      </trkpt>
      <trkpt lat="45.84304" lon="4.24331">
        <ele>519.922</ele>
        <time>2018-11-05T12:55:22Z</time>
      </trkpt>
      <trkpt lat="45.84305" lon="4.24332">
        <ele>520.846</ele>
        <time>2018-11-05T12:55:27Z</time>
      </trkpt>
      <trkpt lat="45.84304" lon="4.24334">
        <ele>521.507</ele>
        <time>2018-11-05T12:55:33Z</time>
      </trkpt>
      <trkpt lat="45.84304" lon="4.24335">
        <ele>522.463</ele>
        <time>2018-11-05T12:55:39Z</time>
      </trkpt>
      <trkpt lat="45.84304" lon="4.24336">
        <ele>522.897</ele>
        <time>2018-11-05T12:55:44Z</time>
      </trkpt>
      <trkpt lat="45.84304" lon="4.24339">
        <ele>524.012</ele>
        <time>2018-11-05T12:55:49Z</time>
      </trkpt>
      <trkpt lat="45.84305" lon="4.24341">
        <ele>524.748</ele>
        <time>2018-11-05T12:55:55Z</time>
      </trkpt>
      <trkpt lat="45.84306" lon="4.24347">
        <ele>524.818</ele>
        <time>2018-11-05T12:56:00Z</time>
      </trkpt>
      <trkpt lat="45.84308" lon="4.24354">
        <ele>524.493</ele>
        <time>2018-11-05T12:56:06Z</time>
      </trkpt>
      <trkpt lat="45.84307" lon="4.24352">
        <ele>524.333</ele>
        <time>2018-11-05T12:56:11Z</time>
      </trkpt>
      <trkpt lat="45.84305" lon="4.24348">
        <ele>524.1</ele>
        <time>2018-11-05T12:56:17Z</time>
      </trkpt>
      <trkpt lat="45.84301" lon="4.24345">
        <ele>524.283</ele>
        <time>2018-11-05T12:56:23Z</time>
      </trkpt>
      <trkpt lat="45.84298" lon="4.24346">
        <ele>524.32</ele>
        <time>2018-11-05T12:56:29Z</time>
      </trkpt>
      <trkpt lat="45.84298" lon="4.24347">
        <ele>524.237</ele>
        <time>2018-11-05T12:56:35Z</time>
      </trkpt>
      <trkpt lat="45.84299" lon="4.24351">
        <ele>524.075</ele>
        <time>2018-11-05T12:56:41Z</time>
      </trkpt>
      <trkpt lat="45.84299" lon="4.24349">
        <ele>524.383</ele>
        <time>2018-11-05T12:56:46Z</time>
      </trkpt>
      <trkpt lat="45.84298" lon="4.24346">
        <ele>524.904</ele>
        <time>2018-11-05T12:56:52Z</time>
      </trkpt>
      <trkpt lat="45.84297" lon="4.24344">
        <ele>524.646</ele>
        <time>2018-11-05T12:56:57Z</time>
      </trkpt>
      <trkpt lat="45.84296" lon="4.24347">
        <ele>524.249</ele>
        <time>2018-11-05T12:57:03Z</time>
      </trkpt>
      <trkpt lat="45.84297" lon="4.2435">
        <ele>524.309</ele>
        <time>2018-11-05T12:57:08Z</time>
      </trkpt>
      <trkpt lat="45.84298" lon="4.24351">
        <ele>524.457</ele>
        <time>2018-11-05T12:57:13Z</time>
      </trkpt>
      <trkpt lat="45.843" lon="4.24351">
        <ele>524.799</ele>
        <time>2018-11-05T12:57:19Z</time>
      </trkpt>
      <trkpt lat="45.84301" lon="4.24356">
        <ele>525.234</ele>
        <time>2018-11-05T12:57:25Z</time>
      </trkpt>
      <trkpt lat="45.84304" lon="4.24363">
        <ele>525.611</ele>
        <time>2018-11-05T12:57:31Z</time>
      </trkpt>
      <trkpt lat="45.84305" lon="4.24373">
        <ele>525.486</ele>
        <time>2018-11-05T12:57:37Z</time>
      </trkpt>
      <trkpt lat="45.84302" lon="4.2438">
        <ele>525.304</ele>
        <time>2018-11-05T12:57:42Z</time>
      </trkpt>
      <trkpt lat="45.843" lon="4.24387">
        <ele>525.485</ele>
        <time>2018-11-05T12:57:47Z</time>
      </trkpt>
      <trkpt lat="45.843" lon="4.24394">
        <ele>525.936</ele>
        <time>2018-11-05T12:57:53Z</time>
      </trkpt>
      <trkpt lat="45.843" lon="4.24402">
        <ele>525.853</ele>
        <time>2018-11-05T12:57:58Z</time>
      </trkpt>
      <trkpt lat="45.84299" lon="4.24407">
        <ele>525.58</ele>
        <time>2018-11-05T12:58:03Z</time>
      </trkpt>
      <trkpt lat="45.84297" lon="4.24414">
        <ele>525.435</ele>
        <time>2018-11-05T12:58:09Z</time>
      </trkpt>
      <trkpt lat="45.84298" lon="4.24421">
        <ele>525.032</ele>
        <time>2018-11-05T12:58:14Z</time>
      </trkpt>
      <trkpt lat="45.84298" lon="4.24428">
        <ele>524.639</ele>
        <time>2018-11-05T12:58:20Z</time>
      </trkpt>
      <trkpt lat="45.84298" lon="4.24434">
        <ele>524.849</ele>
        <time>2018-11-05T12:58:25Z</time>
      </trkpt>
      <trkpt lat="45.84299" lon="4.2444">
        <ele>525.508</ele>
        <time>2018-11-05T12:58:31Z</time>
      </trkpt>
      <trkpt lat="45.843" lon="4.24447">
        <ele>525.654</ele>
        <time>2018-11-05T12:58:36Z</time>
      </trkpt>
      <trkpt lat="45.84301" lon="4.24456">
        <ele>525.973</ele>
        <time>2018-11-05T12:58:42Z</time>
      </trkpt>
      <trkpt lat="45.843" lon="4.2446">
        <ele>526.444</ele>
        <time>2018-11-05T12:58:47Z</time>
      </trkpt>
      <trkpt lat="45.84302" lon="4.24467">
        <ele>526.661</ele>
        <time>2018-11-05T12:58:53Z</time>
      </trkpt>
      <trkpt lat="45.84302" lon="4.24473">
        <ele>527.159</ele>
        <time>2018-11-05T12:58:58Z</time>
      </trkpt>
      <trkpt lat="45.84305" lon="4.24483">
        <ele>528.273</ele>
        <time>2018-11-05T12:59:04Z</time>
      </trkpt>
      <trkpt lat="45.84306" lon="4.24491">
        <ele>528.926</ele>
        <time>2018-11-05T12:59:09Z</time>
      </trkpt>
      <trkpt lat="45.84306" lon="4.24498">
        <ele>529.175</ele>
        <time>2018-11-05T12:59:15Z</time>
      </trkpt>
      <trkpt lat="45.84305" lon="4.24501">
        <ele>529.157</ele>
        <time>2018-11-05T12:59:20Z</time>
      </trkpt>
      <trkpt lat="45.84305" lon="4.24513">
        <ele>529.466</ele>
        <time>2018-11-05T12:59:26Z</time>
      </trkpt>
      <trkpt lat="45.84306" lon="4.2452">
        <ele>529.384</ele>
        <time>2018-11-05T12:59:31Z</time>
      </trkpt>
      <trkpt lat="45.84307" lon="4.24527">
        <ele>529.283</ele>
        <time>2018-11-05T12:59:37Z</time>
      </trkpt>
      <trkpt lat="45.84308" lon="4.24531">
        <ele>529.455</ele>
        <time>2018-11-05T12:59:43Z</time>
      </trkpt>
      <trkpt lat="45.8431" lon="4.24539">
        <ele>529.756</ele>
        <time>2018-11-05T12:59:48Z</time>
      </trkpt>
      <trkpt lat="45.8431" lon="4.24547">
        <ele>529.968</ele>
        <time>2018-11-05T12:59:54Z</time>
      </trkpt>
      <trkpt lat="45.84313" lon="4.24557">
        <ele>530.285</ele>
        <time>2018-11-05T12:59:59Z</time>
      </trkpt>
      <trkpt lat="45.84311" lon="4.24568">
        <ele>530.962</ele>
        <time>2018-11-05T13:00:05Z</time>
      </trkpt>
      <trkpt lat="45.84312" lon="4.24573">
        <ele>531.429</ele>
        <time>2018-11-05T13:00:10Z</time>
      </trkpt>
      <trkpt lat="45.8431" lon="4.2458">
        <ele>531.881</ele>
        <time>2018-11-05T13:00:16Z</time>
      </trkpt>
      <trkpt lat="45.8431" lon="4.24586">
        <ele>532.493</ele>
        <time>2018-11-05T13:00:22Z</time>
      </trkpt>
      <trkpt lat="45.84308" lon="4.24592">
        <ele>533.197</ele>
        <time>2018-11-05T13:00:28Z</time>
      </trkpt>
      <trkpt lat="45.84309" lon="4.24593">
        <ele>533.398</ele>
        <time>2018-11-05T13:00:34Z</time>
      </trkpt>
      <trkpt lat="45.84309" lon="4.24597">
        <ele>533.503</ele>
        <time>2018-11-05T13:00:40Z</time>
      </trkpt>
      <trkpt lat="45.84309" lon="4.24603">
        <ele>533.815</ele>
        <time>2018-11-05T13:00:46Z</time>
      </trkpt>
      <trkpt lat="45.84308" lon="4.2461">
        <ele>534.145</ele>
        <time>2018-11-05T13:00:52Z</time>
      </trkpt>
      <trkpt lat="45.84308" lon="4.24616">
        <ele>534.838</ele>
        <time>2018-11-05T13:00:58Z</time>
      </trkpt>
      <trkpt lat="45.84309" lon="4.24623">
        <ele>535.569</ele>
        <time>2018-11-05T13:01:04Z</time>
      </trkpt>
      <trkpt lat="45.84312" lon="4.24625">
        <ele>536.01</ele>
        <time>2018-11-05T13:01:10Z</time>
      </trkpt>
      <trkpt lat="45.84311" lon="4.24626">
        <ele>535.687</ele>
        <time>2018-11-05T13:01:16Z</time>
      </trkpt>
      <trkpt lat="45.84312" lon="4.24625">
        <ele>535.369</ele>
        <time>2018-11-05T13:01:21Z</time>
      </trkpt>
      <trkpt lat="45.84314" lon="4.24625">
        <ele>535.37</ele>
        <time>2018-11-05T13:01:26Z</time>
      </trkpt>
      <trkpt lat="45.84315" lon="4.24626">
        <ele>535.892</ele>
        <time>2018-11-05T13:01:32Z</time>
      </trkpt>
      <trkpt lat="45.84315" lon="4.24627">
        <ele>536.094</ele>
        <time>2018-11-05T13:01:37Z</time>
      </trkpt>
      <trkpt lat="45.84313" lon="4.24627">
        <ele>536.531</ele>
        <time>2018-11-05T13:01:43Z</time>
      </trkpt>
      <trkpt lat="45.84312" lon="4.24628">
        <ele>536.64</ele>
        <time>2018-11-05T13:01:49Z</time>
      </trkpt>
      <trkpt lat="45.84312" lon="4.24626">
        <ele>536.911</ele>
        <time>2018-11-05T13:01:55Z</time>
      </trkpt>
      <trkpt lat="45.8431" lon="4.24624">
        <ele>536.947</ele>
        <time>2018-11-05T13:02:01Z</time>
      </trkpt>
      <trkpt lat="45.8431" lon="4.24627">
        <ele>536.985</ele>
        <time>2018-11-05T13:02:06Z</time>
      </trkpt>
      <trkpt lat="45.8431" lon="4.24631">
        <ele>536.981</ele>
        <time>2018-11-05T13:02:12Z</time>
      </trkpt>
      <trkpt lat="45.8431" lon="4.2463">
        <ele>536.836</ele>
        <time>2018-11-05T13:02:17Z</time>
      </trkpt>
      <trkpt lat="45.84311" lon="4.24628">
        <ele>536.92</ele>
        <time>2018-11-05T13:02:22Z</time>
      </trkpt>
      <trkpt lat="45.84312" lon="4.24627">
        <ele>536.966</ele>
        <time>2018-11-05T13:02:28Z</time>
      </trkpt>
      <trkpt lat="45.84311" lon="4.24626">
        <ele>536.906</ele>
        <time>2018-11-05T13:02:34Z</time>
      </trkpt>
      <trkpt lat="45.8431" lon="4.24627">
        <ele>536.812</ele>
        <time>2018-11-05T13:02:39Z</time>
      </trkpt>
      <trkpt lat="45.8431" lon="4.24627">
        <ele>536.73</ele>
        <time>2018-11-05T13:02:45Z</time>
      </trkpt>
      <trkpt lat="45.8431" lon="4.24627">
        <ele>536.709</ele>
        <time>2018-11-05T13:02:50Z</time>
      </trkpt>
      <trkpt lat="45.8431" lon="4.24627">
        <ele>536.697</ele>
        <time>2018-11-05T13:02:55Z</time>
      </trkpt>
      <trkpt lat="45.8431" lon="4.24627">
        <ele>536.799</ele>
        <time>2018-11-05T13:03:01Z</time>
      </trkpt>
      <trkpt lat="45.8431" lon="4.24627">
        <ele>536.799</ele>
        <time>2018-11-05T13:03:07Z</time>
      </trkpt>
      <trkpt lat="45.8431" lon="4.24627">
        <ele>536.858</ele>
        <time>2018-11-05T13:03:12Z</time>
      </trkpt>
      <trkpt lat="45.8431" lon="4.24627">
        <ele>536.875</ele>
        <time>2018-11-05T13:03:17Z</time>
      </trkpt>
      <trkpt lat="45.8431" lon="4.24627">
        <ele>537.333</ele>
        <time>2018-11-05T13:03:23Z</time>
      </trkpt>
      <trkpt lat="45.8431" lon="4.24627">
        <ele>537.4</ele>
        <time>2018-11-05T13:03:29Z</time>
      </trkpt>
      <trkpt lat="45.84311" lon="4.24627">
        <ele>537.244</ele>
        <time>2018-11-05T13:03:35Z</time>
      </trkpt>
      <trkpt lat="45.84311" lon="4.24627">
        <ele>537.425</ele>
        <time>2018-11-05T13:03:41Z</time>
      </trkpt>
      <trkpt lat="45.84311" lon="4.24627">
        <ele>538.151</ele>
        <time>2018-11-05T13:03:46Z</time>
      </trkpt>
      <trkpt lat="45.84311" lon="4.24627">
        <ele>538.444</ele>
        <time>2018-11-05T13:03:52Z</time>
      </trkpt>
      <trkpt lat="45.84309" lon="4.24628">
        <ele>539.31</ele>
        <time>2018-11-05T13:03:57Z</time>
      </trkpt>
      <trkpt lat="45.84308" lon="4.2463">
        <ele>539.434</ele>
        <time>2018-11-05T13:04:03Z</time>
      </trkpt>
      <trkpt lat="45.84308" lon="4.24629">
        <ele>539.251</ele>
        <time>2018-11-05T13:04:09Z</time>
      </trkpt>
      <trkpt lat="45.84308" lon="4.24629">
        <ele>539.235</ele>
        <time>2018-11-05T13:04:15Z</time>
      </trkpt>
      <trkpt lat="45.84308" lon="4.24629">
        <ele>539.197</ele>
        <time>2018-11-05T13:04:21Z</time>
      </trkpt>
      <trkpt lat="45.84308" lon="4.24629">
        <ele>539.156</ele>
        <time>2018-11-05T13:04:27Z</time>
      </trkpt>
      <trkpt lat="45.84308" lon="4.24629">
        <ele>539.17</ele>
        <time>2018-11-05T13:04:33Z</time>
      </trkpt>
      <trkpt lat="45.84308" lon="4.24629">
        <ele>539.179</ele>
        <time>2018-11-05T13:04:38Z</time>
      </trkpt>
      <trkpt lat="45.84308" lon="4.24629">
        <ele>539.608</ele>
        <time>2018-11-05T13:04:44Z</time>
      </trkpt>
      <trkpt lat="45.84308" lon="4.24629">
        <ele>540.004</ele>
        <time>2018-11-05T13:04:50Z</time>
      </trkpt>
      <trkpt lat="45.84308" lon="4.24629">
        <ele>540.044</ele>
        <time>2018-11-05T13:04:55Z</time>
      </trkpt>
      <trkpt lat="45.84308" lon="4.24629">
        <ele>540.07</ele>
        <time>2018-11-05T13:05:01Z</time>
      </trkpt>
      <trkpt lat="45.84308" lon="4.24629">
        <ele>540.082</ele>
        <time>2018-11-05T13:05:07Z</time>
      </trkpt>
      <trkpt lat="45.84308" lon="4.24629">
        <ele>539.97</ele>
        <time>2018-11-05T13:05:12Z</time>
      </trkpt>
      <trkpt lat="45.84308" lon="4.24629">
        <ele>540.093</ele>
        <time>2018-11-05T13:05:18Z</time>
      </trkpt>
      <trkpt lat="45.8431" lon="4.24629">
        <ele>540.293</ele>
        <time>2018-11-05T13:05:24Z</time>
      </trkpt>
      <trkpt lat="45.8431" lon="4.24632">
        <ele>540.145</ele>
        <time>2018-11-05T13:05:30Z</time>
      </trkpt>
      <trkpt lat="45.8431" lon="4.24632">
        <ele>540.639</ele>
        <time>2018-11-05T13:05:35Z</time>
      </trkpt>
      <trkpt lat="45.8431" lon="4.24632">
        <ele>540.643</ele>
        <time>2018-11-05T13:05:40Z</time>
      </trkpt>
      <trkpt lat="45.8431" lon="4.24632">
        <ele>539.759</ele>
        <time>2018-11-05T13:05:46Z</time>
      </trkpt>
      <trkpt lat="45.8431" lon="4.24632">
        <ele>539.707</ele>
        <time>2018-11-05T13:05:52Z</time>
      </trkpt>
      <trkpt lat="45.8431" lon="4.24632">
        <ele>539.859</ele>
        <time>2018-11-05T13:05:57Z</time>
      </trkpt>
      <trkpt lat="45.8431" lon="4.24633">
        <ele>539.93</ele>
        <time>2018-11-05T13:06:03Z</time>
      </trkpt>
      <trkpt lat="45.84312" lon="4.24634">
        <ele>540.219</ele>
        <time>2018-11-05T13:06:09Z</time>
      </trkpt>
      <trkpt lat="45.84313" lon="4.24635">
        <ele>540.448</ele>
        <time>2018-11-05T13:06:14Z</time>
      </trkpt>
      <trkpt lat="45.84317" lon="4.24642">
        <ele>541.094</ele>
        <time>2018-11-05T13:06:20Z</time>
      </trkpt>
      <trkpt lat="45.84321" lon="4.24645">
        <ele>541.623</ele>
        <time>2018-11-05T13:06:25Z</time>
      </trkpt>
      <trkpt lat="45.84324" lon="4.24645">
        <ele>541.958</ele>
        <time>2018-11-05T13:06:31Z</time>
      </trkpt>
      <trkpt lat="45.84326" lon="4.24644">
        <ele>541.952</ele>
        <time>2018-11-05T13:06:37Z</time>
      </trkpt>
      <trkpt lat="45.84327" lon="4.24643">
        <ele>541.408</ele>
        <time>2018-11-05T13:06:43Z</time>
      </trkpt>
      <trkpt lat="45.84328" lon="4.24645">
        <ele>541.41</ele>
        <time>2018-11-05T13:06:48Z</time>
      </trkpt>
      <trkpt lat="45.84327" lon="4.24647">
        <ele>541.207</ele>
        <time>2018-11-05T13:06:53Z</time>
      </trkpt>
      <trkpt lat="45.84326" lon="4.24648">
        <ele>540.755</ele>
        <time>2018-11-05T13:06:59Z</time>
      </trkpt>
      <trkpt lat="45.84327" lon="4.24649">
        <ele>540.383</ele>
        <time>2018-11-05T13:07:04Z</time>
      </trkpt>
      <trkpt lat="45.84326" lon="4.24649">
        <ele>539.89</ele>
        <time>2018-11-05T13:07:09Z</time>
      </trkpt>
      <trkpt lat="45.84324" lon="4.24649">
        <ele>539.43</ele>
        <time>2018-11-05T13:07:14Z</time>
      </trkpt>
      <trkpt lat="45.84321" lon="4.24648">
        <ele>539.288</ele>
        <time>2018-11-05T13:07:20Z</time>
      </trkpt>
      <trkpt lat="45.84319" lon="4.2465">
        <ele>539.223</ele>
        <time>2018-11-05T13:07:25Z</time>
      </trkpt>
      <trkpt lat="45.84319" lon="4.24653">
        <ele>538.948</ele>
        <time>2018-11-05T13:07:31Z</time>
      </trkpt>
      <trkpt lat="45.84319" lon="4.24653">
        <ele>538.938</ele>
        <time>2018-11-05T13:07:36Z</time>
      </trkpt>
      <trkpt lat="45.84319" lon="4.24654">
        <ele>538.845</ele>
        <time>2018-11-05T13:07:41Z</time>
      </trkpt>
      <trkpt lat="45.84319" lon="4.24654">
        <ele>538.857</ele>
        <time>2018-11-05T13:07:46Z</time>
      </trkpt>
      <trkpt lat="45.84319" lon="4.24654">
        <ele>538.915</ele>
        <time>2018-11-05T13:07:52Z</time>
      </trkpt>
      <trkpt lat="45.84319" lon="4.24654">
        <ele>539.035</ele>
        <time>2018-11-05T13:07:57Z</time>
      </trkpt>
      <trkpt lat="45.84319" lon="4.24654">
        <ele>539.093</ele>
        <time>2018-11-05T13:08:03Z</time>
      </trkpt>
      <trkpt lat="45.84319" lon="4.24654">
        <ele>539.162</ele>
        <time>2018-11-05T13:08:08Z</time>
      </trkpt>
      <trkpt lat="45.84319" lon="4.24653">
        <ele>539.366</ele>
        <time>2018-11-05T13:08:14Z</time>
      </trkpt>
      <trkpt lat="45.84323" lon="4.24652">
        <ele>539.76</ele>
        <time>2018-11-05T13:08:20Z</time>
      </trkpt>
      <trkpt lat="45.84325" lon="4.24652">
        <ele>539.829</ele>
        <time>2018-11-05T13:08:25Z</time>
      </trkpt>
      <trkpt lat="45.84327" lon="4.24653">
        <ele>540.051</ele>
        <time>2018-11-05T13:08:31Z</time>
      </trkpt>
      <trkpt lat="45.84328" lon="4.24658">
        <ele>540.669</ele>
        <time>2018-11-05T13:08:36Z</time>
      </trkpt>
      <trkpt lat="45.8433" lon="4.24666">
        <ele>541.31</ele>
        <time>2018-11-05T13:08:42Z</time>
      </trkpt>
      <trkpt lat="45.84334" lon="4.24674">
        <ele>541.725</ele>
        <time>2018-11-05T13:08:47Z</time>
      </trkpt>
      <trkpt lat="45.84336" lon="4.24684">
        <ele>541.807</ele>
        <time>2018-11-05T13:08:53Z</time>
      </trkpt>
      <trkpt lat="45.84333" lon="4.24696">
        <ele>541.839</ele>
        <time>2018-11-05T13:08:59Z</time>
      </trkpt>
      <trkpt lat="45.84334" lon="4.24703">
        <ele>541.773</ele>
        <time>2018-11-05T13:09:05Z</time>
      </trkpt>
      <trkpt lat="45.84331" lon="4.24712">
        <ele>542.181</ele>
        <time>2018-11-05T13:09:11Z</time>
      </trkpt>
      <trkpt lat="45.84328" lon="4.24718">
        <ele>542.364</ele>
        <time>2018-11-05T13:09:17Z</time>
      </trkpt>
      <trkpt lat="45.84326" lon="4.24721">
        <ele>542.859</ele>
        <time>2018-11-05T13:09:22Z</time>
      </trkpt>
      <trkpt lat="45.84324" lon="4.24725">
        <ele>543.507</ele>
        <time>2018-11-05T13:09:27Z</time>
      </trkpt>
      <trkpt lat="45.84321" lon="4.2473">
        <ele>543.603</ele>
        <time>2018-11-05T13:09:32Z</time>
      </trkpt>
      <trkpt lat="45.84318" lon="4.24732">
        <ele>543.504</ele>
        <time>2018-11-05T13:09:37Z</time>
      </trkpt>
      <trkpt lat="45.84315" lon="4.24737">
        <ele>543.7</ele>
        <time>2018-11-05T13:09:43Z</time>
      </trkpt>
      <trkpt lat="45.84313" lon="4.24745">
        <ele>544.216</ele>
        <time>2018-11-05T13:09:49Z</time>
      </trkpt>
      <trkpt lat="45.84313" lon="4.24749">
        <ele>544.83</ele>
        <time>2018-11-05T13:09:55Z</time>
      </trkpt>
      <trkpt lat="45.8431" lon="4.24753">
        <ele>545.022</ele>
        <time>2018-11-05T13:10:00Z</time>
      </trkpt>
      <trkpt lat="45.84308" lon="4.24758">
        <ele>545.783</ele>
        <time>2018-11-05T13:10:06Z</time>
      </trkpt>
      <trkpt lat="45.84306" lon="4.24763">
        <ele>546.055</ele>
        <time>2018-11-05T13:10:11Z</time>
      </trkpt>
      <trkpt lat="45.84305" lon="4.24772">
        <ele>546.026</ele>
        <time>2018-11-05T13:10:17Z</time>
      </trkpt>
      <trkpt lat="45.84304" lon="4.24778">
        <ele>546.084</ele>
        <time>2018-11-05T13:10:23Z</time>
      </trkpt>
      <trkpt lat="45.84305" lon="4.24785">
        <ele>546.709</ele>
        <time>2018-11-05T13:10:29Z</time>
      </trkpt>
      <trkpt lat="45.84305" lon="4.2479">
        <ele>547.289</ele>
        <time>2018-11-05T13:10:35Z</time>
      </trkpt>
      <trkpt lat="45.84303" lon="4.24797">
        <ele>547.445</ele>
        <time>2018-11-05T13:10:41Z</time>
      </trkpt>
      <trkpt lat="45.84302" lon="4.24806">
        <ele>548.081</ele>
        <time>2018-11-05T13:10:47Z</time>
      </trkpt>
      <trkpt lat="45.84302" lon="4.24809">
        <ele>549.131</ele>
        <time>2018-11-05T13:10:53Z</time>
      </trkpt>
      <trkpt lat="45.84302" lon="4.24811">
        <ele>549.664</ele>
        <time>2018-11-05T13:10:59Z</time>
      </trkpt>
      <trkpt lat="45.84303" lon="4.24812">
        <ele>549.988</ele>
        <time>2018-11-05T13:11:05Z</time>
      </trkpt>
      <trkpt lat="45.84305" lon="4.24814">
        <ele>549.964</ele>
        <time>2018-11-05T13:11:11Z</time>
      </trkpt>
      <trkpt lat="45.84306" lon="4.24817">
        <ele>549.948</ele>
        <time>2018-11-05T13:11:16Z</time>
      </trkpt>
      <trkpt lat="45.84309" lon="4.2482">
        <ele>550.311</ele>
        <time>2018-11-05T13:11:22Z</time>
      </trkpt>
      <trkpt lat="45.84312" lon="4.24823">
        <ele>550.612</ele>
        <time>2018-11-05T13:11:28Z</time>
      </trkpt>
      <trkpt lat="45.84313" lon="4.24829">
        <ele>550.917</ele>
        <time>2018-11-05T13:11:33Z</time>
      </trkpt>
      <trkpt lat="45.84312" lon="4.24834">
        <ele>551.406</ele>
        <time>2018-11-05T13:11:38Z</time>
      </trkpt>
      <trkpt lat="45.84309" lon="4.24844">
        <ele>552.245</ele>
        <time>2018-11-05T13:11:44Z</time>
      </trkpt>
      <trkpt lat="45.84305" lon="4.2485">
        <ele>553.116</ele>
        <time>2018-11-05T13:11:49Z</time>
      </trkpt>
      <trkpt lat="45.84304" lon="4.24856">
        <ele>553.713</ele>
        <time>2018-11-05T13:11:55Z</time>
      </trkpt>
      <trkpt lat="45.84303" lon="4.24863">
        <ele>554.376</ele>
        <time>2018-11-05T13:12:01Z</time>
      </trkpt>
      <trkpt lat="45.84302" lon="4.24867">
        <ele>555.238</ele>
        <time>2018-11-05T13:12:07Z</time>
      </trkpt>
      <trkpt lat="45.84301" lon="4.24873">
        <ele>556.039</ele>
        <time>2018-11-05T13:12:13Z</time>
      </trkpt>
      <trkpt lat="45.843" lon="4.24873">
        <ele>556.232</ele>
        <time>2018-11-05T13:12:19Z</time>
      </trkpt>
      <trkpt lat="45.84299" lon="4.24874">
        <ele>556.545</ele>
        <time>2018-11-05T13:12:25Z</time>
      </trkpt>
      <trkpt lat="45.843" lon="4.24875">
        <ele>556.888</ele>
        <time>2018-11-05T13:12:31Z</time>
      </trkpt>
      <trkpt lat="45.84299" lon="4.24874">
        <ele>556.814</ele>
        <time>2018-11-05T13:12:37Z</time>
      </trkpt>
      <trkpt lat="45.84299" lon="4.24872">
        <ele>556.072</ele>
        <time>2018-11-05T13:12:42Z</time>
      </trkpt>
      <trkpt lat="45.84298" lon="4.24867">
        <ele>555.735</ele>
        <time>2018-11-05T13:12:48Z</time>
      </trkpt>
      <trkpt lat="45.84296" lon="4.24867">
        <ele>555.547</ele>
        <time>2018-11-05T13:12:54Z</time>
      </trkpt>
      <trkpt lat="45.84295" lon="4.24867">
        <ele>554.667</ele>
        <time>2018-11-05T13:12:59Z</time>
      </trkpt>
      <trkpt lat="45.84296" lon="4.24865">
        <ele>554.221</ele>
        <time>2018-11-05T13:13:05Z</time>
      </trkpt>
      <trkpt lat="45.84297" lon="4.24866">
        <ele>553.777</ele>
        <time>2018-11-05T13:13:10Z</time>
      </trkpt>
      <trkpt lat="45.84296" lon="4.24868">
        <ele>553.463</ele>
        <time>2018-11-05T13:13:16Z</time>
      </trkpt>
      <trkpt lat="45.84298" lon="4.24869">
        <ele>553.261</ele>
        <time>2018-11-05T13:13:22Z</time>
      </trkpt>
      <trkpt lat="45.84299" lon="4.24869">
        <ele>552.723</ele>
        <time>2018-11-05T13:13:28Z</time>
      </trkpt>
      <trkpt lat="45.84299" lon="4.2487">
        <ele>552.729</ele>
        <time>2018-11-05T13:13:33Z</time>
      </trkpt>
      <trkpt lat="45.84299" lon="4.24868">
        <ele>552.224</ele>
        <time>2018-11-05T13:13:39Z</time>
      </trkpt>
      <trkpt lat="45.84298" lon="4.24865">
        <ele>551.526</ele>
        <time>2018-11-05T13:13:45Z</time>
      </trkpt>
      <trkpt lat="45.84298" lon="4.24865">
        <ele>550.926</ele>
        <time>2018-11-05T13:13:50Z</time>
      </trkpt>
      <trkpt lat="45.84297" lon="4.24864">
        <ele>549.019</ele>
        <time>2018-11-05T13:13:56Z</time>
      </trkpt>
      <trkpt lat="45.84297" lon="4.24865">
        <ele>547.42</ele>
        <time>2018-11-05T13:14:02Z</time>
      </trkpt>
      <trkpt lat="45.84298" lon="4.24866">
        <ele>547.172</ele>
        <time>2018-11-05T13:14:07Z</time>
      </trkpt>
      <trkpt lat="45.84298" lon="4.24865">
        <ele>547.128</ele>
        <time>2018-11-05T13:14:12Z</time>
      </trkpt>
      <trkpt lat="45.84298" lon="4.24866">
        <ele>547.497</ele>
        <time>2018-11-05T13:14:18Z</time>
      </trkpt>
      <trkpt lat="45.84299" lon="4.24867">
        <ele>547.987</ele>
        <time>2018-11-05T13:14:23Z</time>
      </trkpt>
      <trkpt lat="45.84302" lon="4.24868">
        <ele>548.671</ele>
        <time>2018-11-05T13:14:28Z</time>
      </trkpt>
      <trkpt lat="45.84307" lon="4.24867">
        <ele>549.566</ele>
        <time>2018-11-05T13:14:34Z</time>
      </trkpt>
      <trkpt lat="45.84313" lon="4.24871">
        <ele>549.95</ele>
        <time>2018-11-05T13:14:39Z</time>
      </trkpt>
      <trkpt lat="45.84316" lon="4.24873">
        <ele>550.394</ele>
        <time>2018-11-05T13:14:44Z</time>
      </trkpt>
      <trkpt lat="45.84318" lon="4.24873">
        <ele>550.185</ele>
        <time>2018-11-05T13:14:50Z</time>
      </trkpt>
      <trkpt lat="45.8432" lon="4.24872">
        <ele>550.786</ele>
        <time>2018-11-05T13:14:55Z</time>
      </trkpt>
      <trkpt lat="45.8432" lon="4.24871">
        <ele>550.902</ele>
        <time>2018-11-05T13:15:00Z</time>
      </trkpt>
      <trkpt lat="45.8432" lon="4.24869">
        <ele>551.005</ele>
        <time>2018-11-05T13:15:06Z</time>
      </trkpt>
      <trkpt lat="45.84321" lon="4.24869">
        <ele>551.425</ele>
        <time>2018-11-05T13:15:11Z</time>
      </trkpt>
      <trkpt lat="45.84323" lon="4.24871">
        <ele>551.67</ele>
        <time>2018-11-05T13:15:17Z</time>
      </trkpt>
      <trkpt lat="45.84323" lon="4.24873">
        <ele>551.439</ele>
        <time>2018-11-05T13:15:22Z</time>
      </trkpt>
      <trkpt lat="45.84323" lon="4.24874">
        <ele>551.468</ele>
        <time>2018-11-05T13:15:27Z</time>
      </trkpt>
      <trkpt lat="45.84323" lon="4.24875">
        <ele>551.63</ele>
        <time>2018-11-05T13:15:33Z</time>
      </trkpt>
      <trkpt lat="45.84323" lon="4.24877">
        <ele>551.639</ele>
        <time>2018-11-05T13:15:38Z</time>
      </trkpt>
      <trkpt lat="45.84323" lon="4.24877">
        <ele>551.826</ele>
        <time>2018-11-05T13:15:43Z</time>
      </trkpt>
      <trkpt lat="45.84323" lon="4.24878">
        <ele>551.993</ele>
        <time>2018-11-05T13:15:49Z</time>
      </trkpt>
      <trkpt lat="45.84322" lon="4.24877">
        <ele>552.248</ele>
        <time>2018-11-05T13:15:55Z</time>
      </trkpt>
      <trkpt lat="45.8432" lon="4.24873">
        <ele>552.446</ele>
        <time>2018-11-05T13:16:01Z</time>
      </trkpt>
      <trkpt lat="45.84319" lon="4.24871">
        <ele>552.732</ele>
        <time>2018-11-05T13:16:07Z</time>
      </trkpt>
      <trkpt lat="45.8432" lon="4.24871">
        <ele>553.012</ele>
        <time>2018-11-05T13:16:13Z</time>
      </trkpt>
      <trkpt lat="45.8432" lon="4.24873">
        <ele>553.052</ele>
        <time>2018-11-05T13:16:18Z</time>
      </trkpt>
      <trkpt lat="45.8432" lon="4.24873">
        <ele>552.969</ele>
        <time>2018-11-05T13:16:23Z</time>
      </trkpt>
      <trkpt lat="45.8432" lon="4.24873">
        <ele>552.935</ele>
        <time>2018-11-05T13:16:29Z</time>
      </trkpt>
      <trkpt lat="45.8432" lon="4.24873">
        <ele>552.847</ele>
        <time>2018-11-05T13:16:35Z</time>
      </trkpt>
      <trkpt lat="45.8432" lon="4.24873">
        <ele>552.793</ele>
        <time>2018-11-05T13:16:41Z</time>
      </trkpt>
      <trkpt lat="45.8432" lon="4.24873">
        <ele>552.758</ele>
        <time>2018-11-05T13:16:46Z</time>
      </trkpt>
      <trkpt lat="45.8432" lon="4.24873">
        <ele>552.785</ele>
        <time>2018-11-05T13:16:51Z</time>
      </trkpt>
      <trkpt lat="45.8432" lon="4.24873">
        <ele>552.784</ele>
        <time>2018-11-05T13:16:56Z</time>
      </trkpt>
      <trkpt lat="45.8432" lon="4.24873">
        <ele>552.765</ele>
        <time>2018-11-05T13:17:02Z</time>
      </trkpt>
      <trkpt lat="45.8432" lon="4.24873">
        <ele>552.765</ele>
        <time>2018-11-05T13:17:08Z</time>
      </trkpt>
      <trkpt lat="45.8432" lon="4.24873">
        <ele>552.761</ele>
        <time>2018-11-05T13:17:13Z</time>
      </trkpt>
      <trkpt lat="45.8432" lon="4.24873">
        <ele>552.897</ele>
        <time>2018-11-05T13:17:19Z</time>
      </trkpt>
      <trkpt lat="45.8432" lon="4.24873">
        <ele>553.088</ele>
        <time>2018-11-05T13:17:25Z</time>
      </trkpt>
      <trkpt lat="45.8432" lon="4.24873">
        <ele>553.32</ele>
        <time>2018-11-05T13:17:31Z</time>
      </trkpt>
      <trkpt lat="45.8432" lon="4.24873">
        <ele>553.879</ele>
        <time>2018-11-05T13:17:37Z</time>
      </trkpt>
      <trkpt lat="45.8432" lon="4.24873">
        <ele>553.942</ele>
        <time>2018-11-05T13:17:43Z</time>
      </trkpt>
      <trkpt lat="45.8432" lon="4.24873">
        <ele>554.156</ele>
        <time>2018-11-05T13:17:48Z</time>
      </trkpt>
      <trkpt lat="45.8432" lon="4.24873">
        <ele>554.177</ele>
        <time>2018-11-05T13:17:53Z</time>
      </trkpt>
      <trkpt lat="45.8432" lon="4.24873">
        <ele>554.315</ele>
        <time>2018-11-05T13:17:59Z</time>
      </trkpt>
      <trkpt lat="45.8432" lon="4.24873">
        <ele>554.01</ele>
        <time>2018-11-05T13:18:05Z</time>
      </trkpt>
      <trkpt lat="45.8432" lon="4.24873">
        <ele>554.002</ele>
        <time>2018-11-05T13:18:11Z</time>
      </trkpt>
      <trkpt lat="45.8432" lon="4.24873">
        <ele>554.048</ele>
        <time>2018-11-05T13:18:17Z</time>
      </trkpt>
      <trkpt lat="45.8432" lon="4.24873">
        <ele>553.972</ele>
        <time>2018-11-05T13:18:23Z</time>
      </trkpt>
      <trkpt lat="45.8432" lon="4.24873">
        <ele>554.044</ele>
        <time>2018-11-05T13:18:29Z</time>
      </trkpt>
      <trkpt lat="45.8432" lon="4.24873">
        <ele>554.083</ele>
        <time>2018-11-05T13:18:34Z</time>
      </trkpt>
      <trkpt lat="45.8432" lon="4.24873">
        <ele>554.05</ele>
        <time>2018-11-05T13:18:39Z</time>
      </trkpt>
      <trkpt lat="45.8432" lon="4.24873">
        <ele>554.09</ele>
        <time>2018-11-05T13:18:45Z</time>
      </trkpt>
      <trkpt lat="45.84319" lon="4.24873">
        <ele>554.209</ele>
        <time>2018-11-05T13:18:50Z</time>
      </trkpt>
      <trkpt lat="45.84317" lon="4.24873">
        <ele>554.209</ele>
        <time>2018-11-05T13:18:56Z</time>
      </trkpt>
      <trkpt lat="45.84313" lon="4.24871">
        <ele>553.874</ele>
        <time>2018-11-05T13:19:02Z</time>
      </trkpt>
      <trkpt lat="45.84308" lon="4.24864">
        <ele>554.322</ele>
        <time>2018-11-05T13:19:08Z</time>
      </trkpt>
      <trkpt lat="45.84305" lon="4.24855">
        <ele>554.651</ele>
        <time>2018-11-05T13:19:14Z</time>
      </trkpt>
      <trkpt lat="45.84305" lon="4.24842">
        <ele>554.44</ele>
        <time>2018-11-05T13:19:19Z</time>
      </trkpt>
      <trkpt lat="45.84307" lon="4.24831">
        <ele>553.751</ele>
        <time>2018-11-05T13:19:25Z</time>
      </trkpt>
      <trkpt lat="45.84304" lon="4.24825">
        <ele>553.087</ele>
        <time>2018-11-05T13:19:31Z</time>
      </trkpt>
      <trkpt lat="45.84302" lon="4.2482">
        <ele>552.893</ele>
        <time>2018-11-05T13:19:36Z</time>
      </trkpt>
      <trkpt lat="45.84299" lon="4.24821">
        <ele>552.412</ele>
        <time>2018-11-05T13:19:42Z</time>
      </trkpt>
      <trkpt lat="45.84297" lon="4.24824">
        <ele>552.239</ele>
        <time>2018-11-05T13:19:47Z</time>
      </trkpt>
      <trkpt lat="45.84297" lon="4.24825">
        <ele>552.887</ele>
        <time>2018-11-05T13:19:52Z</time>
      </trkpt>
      <trkpt lat="45.84295" lon="4.24827">
        <ele>553.93</ele>
        <time>2018-11-05T13:19:58Z</time>
      </trkpt>
      <trkpt lat="45.84292" lon="4.24833">
        <ele>554.7</ele>
        <time>2018-11-05T13:20:04Z</time>
      </trkpt>
      <trkpt lat="45.84291" lon="4.24839">
        <ele>555.402</ele>
        <time>2018-11-05T13:20:09Z</time>
      </trkpt>
      <trkpt lat="45.8429" lon="4.24845">
        <ele>556.105</ele>
        <time>2018-11-05T13:20:15Z</time>
      </trkpt>
      <trkpt lat="45.8429" lon="4.24853">
        <ele>557.007</ele>
        <time>2018-11-05T13:20:21Z</time>
      </trkpt>
      <trkpt lat="45.84288" lon="4.24855">
        <ele>557.533</ele>
        <time>2018-11-05T13:20:27Z</time>
      </trkpt>
      <trkpt lat="45.84286" lon="4.24859">
        <ele>557.792</ele>
        <time>2018-11-05T13:20:32Z</time>
      </trkpt>
      <trkpt lat="45.84282" lon="4.24865">
        <ele>558.402</ele>
        <time>2018-11-05T13:20:38Z</time>
      </trkpt>
      <trkpt lat="45.84279" lon="4.24873">
        <ele>558.683</ele>
        <time>2018-11-05T13:20:43Z</time>
      </trkpt>
      <trkpt lat="45.84278" lon="4.24881">
        <ele>559.164</ele>
        <time>2018-11-05T13:20:49Z</time>
      </trkpt>
      <trkpt lat="45.84275" lon="4.24887">
        <ele>559.553</ele>
        <time>2018-11-05T13:20:55Z</time>
      </trkpt>
      <trkpt lat="45.84275" lon="4.24897">
        <ele>559.539</ele>
        <time>2018-11-05T13:21:01Z</time>
      </trkpt>
      <trkpt lat="45.84273" lon="4.24902">
        <ele>559.761</ele>
        <time>2018-11-05T13:21:07Z</time>
      </trkpt>
      <trkpt lat="45.84269" lon="4.24907">
        <ele>559.839</ele>
        <time>2018-11-05T13:21:13Z</time>
      </trkpt>
      <trkpt lat="45.84266" lon="4.24911">
        <ele>559.792</ele>
        <time>2018-11-05T13:21:19Z</time>
      </trkpt>
      <trkpt lat="45.84264" lon="4.24917">
        <ele>559.879</ele>
        <time>2018-11-05T13:21:25Z</time>
      </trkpt>
      <trkpt lat="45.84263" lon="4.24919">
        <ele>560.309</ele>
        <time>2018-11-05T13:21:31Z</time>
      </trkpt>
      <trkpt lat="45.84262" lon="4.24924">
        <ele>560.57</ele>
        <time>2018-11-05T13:21:37Z</time>
      </trkpt>
      <trkpt lat="45.84261" lon="4.24931">
        <ele>561.317</ele>
        <time>2018-11-05T13:21:43Z</time>
      </trkpt>
      <trkpt lat="45.8426" lon="4.24939">
        <ele>562.283</ele>
        <time>2018-11-05T13:21:49Z</time>
      </trkpt>
      <trkpt lat="45.84256" lon="4.24943">
        <ele>562.972</ele>
        <time>2018-11-05T13:21:55Z</time>
      </trkpt>
      <trkpt lat="45.84255" lon="4.24951">
        <ele>563.634</ele>
        <time>2018-11-05T13:22:01Z</time>
      </trkpt>
      <trkpt lat="45.84253" lon="4.24956">
        <ele>564.125</ele>
        <time>2018-11-05T13:22:06Z</time>
      </trkpt>
      <trkpt lat="45.84251" lon="4.24965">
        <ele>564.726</ele>
        <time>2018-11-05T13:22:12Z</time>
      </trkpt>
      <trkpt lat="45.8425" lon="4.24971">
        <ele>565.215</ele>
        <time>2018-11-05T13:22:17Z</time>
      </trkpt>
      <trkpt lat="45.84249" lon="4.24974">
        <ele>566.059</ele>
        <time>2018-11-05T13:22:22Z</time>
      </trkpt>
      <trkpt lat="45.84249" lon="4.24977">
        <ele>566.759</ele>
        <time>2018-11-05T13:22:28Z</time>
      </trkpt>
      <trkpt lat="45.8425" lon="4.24978">
        <ele>567.201</ele>
        <time>2018-11-05T13:22:34Z</time>
      </trkpt>
      <trkpt lat="45.8425" lon="4.2498">
        <ele>567.702</ele>
        <time>2018-11-05T13:22:39Z</time>
      </trkpt>
      <trkpt lat="45.84248" lon="4.24983">
        <ele>567.876</ele>
        <time>2018-11-05T13:22:45Z</time>
      </trkpt>
      <trkpt lat="45.84246" lon="4.24984">
        <ele>567.984</ele>
        <time>2018-11-05T13:22:50Z</time>
      </trkpt>
      <trkpt lat="45.84243" lon="4.24987">
        <ele>568.331</ele>
        <time>2018-11-05T13:22:55Z</time>
      </trkpt>
      <trkpt lat="45.84242" lon="4.24992">
        <ele>568.814</ele>
        <time>2018-11-05T13:23:00Z</time>
      </trkpt>
      <trkpt lat="45.84241" lon="4.24997">
        <ele>569.099</ele>
        <time>2018-11-05T13:23:06Z</time>
      </trkpt>
      <trkpt lat="45.8424" lon="4.24998">
        <ele>569.669</ele>
        <time>2018-11-05T13:23:11Z</time>
      </trkpt>
      <trkpt lat="45.84237" lon="4.25002">
        <ele>570.458</ele>
        <time>2018-11-05T13:23:17Z</time>
      </trkpt>
      <trkpt lat="45.84237" lon="4.25007">
        <ele>570.736</ele>
        <time>2018-11-05T13:23:22Z</time>
      </trkpt>
      <trkpt lat="45.84234" lon="4.25016">
        <ele>571.335</ele>
        <time>2018-11-05T13:23:28Z</time>
      </trkpt>
      <trkpt lat="45.8423" lon="4.25023">
        <ele>571.921</ele>
        <time>2018-11-05T13:23:33Z</time>
      </trkpt>
      <trkpt lat="45.8423" lon="4.2503">
        <ele>572.795</ele>
        <time>2018-11-05T13:23:39Z</time>
      </trkpt>
      <trkpt lat="45.84229" lon="4.25035">
        <ele>573.554</ele>
        <time>2018-11-05T13:23:44Z</time>
      </trkpt>
      <trkpt lat="45.84228" lon="4.25039">
        <ele>573.745</ele>
        <time>2018-11-05T13:23:50Z</time>
      </trkpt>
      <trkpt lat="45.8423" lon="4.25039">
        <ele>573.771</ele>
        <time>2018-11-05T13:23:56Z</time>
      </trkpt>
      <trkpt lat="45.84232" lon="4.25038">
        <ele>573.353</ele>
        <time>2018-11-05T13:24:02Z</time>
      </trkpt>
      <trkpt lat="45.84228" lon="4.25045">
        <ele>573.369</ele>
        <time>2018-11-05T13:24:07Z</time>
      </trkpt>
      <trkpt lat="45.84226" lon="4.25052">
        <ele>573.623</ele>
        <time>2018-11-05T13:24:13Z</time>
      </trkpt>
      <trkpt lat="45.84225" lon="4.2506">
        <ele>574.039</ele>
        <time>2018-11-05T13:24:19Z</time>
      </trkpt>
      <trkpt lat="45.84224" lon="4.25065">
        <ele>574.232</ele>
        <time>2018-11-05T13:24:24Z</time>
      </trkpt>
      <trkpt lat="45.84224" lon="4.25072">
        <ele>574.827</ele>
        <time>2018-11-05T13:24:30Z</time>
      </trkpt>
      <trkpt lat="45.84225" lon="4.2508">
        <ele>575.209</ele>
        <time>2018-11-05T13:24:36Z</time>
      </trkpt>
      <trkpt lat="45.84224" lon="4.25085">
        <ele>575.258</ele>
        <time>2018-11-05T13:24:41Z</time>
      </trkpt>
      <trkpt lat="45.84222" lon="4.25092">
        <ele>575.513</ele>
        <time>2018-11-05T13:24:47Z</time>
      </trkpt>
      <trkpt lat="45.84222" lon="4.25098">
        <ele>576.195</ele>
        <time>2018-11-05T13:24:52Z</time>
      </trkpt>
      <trkpt lat="45.84223" lon="4.25107">
        <ele>576.567</ele>
        <time>2018-11-05T13:24:57Z</time>
      </trkpt>
      <trkpt lat="45.84224" lon="4.25113">
        <ele>577.061</ele>
        <time>2018-11-05T13:25:03Z</time>
      </trkpt>
      <trkpt lat="45.84223" lon="4.25118">
        <ele>577.703</ele>
        <time>2018-11-05T13:25:09Z</time>
      </trkpt>
      <trkpt lat="45.84224" lon="4.25124">
        <ele>578.701</ele>
        <time>2018-11-05T13:25:15Z</time>
      </trkpt>
      <trkpt lat="45.84225" lon="4.25126">
        <ele>579.337</ele>
        <time>2018-11-05T13:25:21Z</time>
      </trkpt>
      <trkpt lat="45.84225" lon="4.25126">
        <ele>579.407</ele>
        <time>2018-11-05T13:25:26Z</time>
      </trkpt>
      <trkpt lat="45.84226" lon="4.25127">
        <ele>579.823</ele>
        <time>2018-11-05T13:25:31Z</time>
      </trkpt>
      <trkpt lat="45.84226" lon="4.25127">
        <ele>580.516</ele>
        <time>2018-11-05T13:25:37Z</time>
      </trkpt>
      <trkpt lat="45.84227" lon="4.25127">
        <ele>580.907</ele>
        <time>2018-11-05T13:25:42Z</time>
      </trkpt>
      <trkpt lat="45.84227" lon="4.25128">
        <ele>581.206</ele>
        <time>2018-11-05T13:25:47Z</time>
      </trkpt>
      <trkpt lat="45.84227" lon="4.25133">
        <ele>581.304</ele>
        <time>2018-11-05T13:25:52Z</time>
      </trkpt>
      <trkpt lat="45.84227" lon="4.25134">
        <ele>581.695</ele>
        <time>2018-11-05T13:25:57Z</time>
      </trkpt>
      <trkpt lat="45.84227" lon="4.25133">
        <ele>581.848</ele>
        <time>2018-11-05T13:26:03Z</time>
      </trkpt>
      <trkpt lat="45.84227" lon="4.25133">
        <ele>582.003</ele>
        <time>2018-11-05T13:26:08Z</time>
      </trkpt>
      <trkpt lat="45.84228" lon="4.25133">
        <ele>582.144</ele>
        <time>2018-11-05T13:26:14Z</time>
      </trkpt>
      <trkpt lat="45.84228" lon="4.25137">
        <ele>582.143</ele>
        <time>2018-11-05T13:26:20Z</time>
      </trkpt>
      <trkpt lat="45.84227" lon="4.25138">
        <ele>581.71</ele>
        <time>2018-11-05T13:26:25Z</time>
      </trkpt>
      <trkpt lat="45.84226" lon="4.25137">
        <ele>581.149</ele>
        <time>2018-11-05T13:26:31Z</time>
      </trkpt>
      <trkpt lat="45.84224" lon="4.2514">
        <ele>581.22</ele>
        <time>2018-11-05T13:26:37Z</time>
      </trkpt>
      <trkpt lat="45.84225" lon="4.25143">
        <ele>581.438</ele>
        <time>2018-11-05T13:26:42Z</time>
      </trkpt>
      <trkpt lat="45.84225" lon="4.25148">
        <ele>581.835</ele>
        <time>2018-11-05T13:26:48Z</time>
      </trkpt>
      <trkpt lat="45.84226" lon="4.25149">
        <ele>582.271</ele>
        <time>2018-11-05T13:26:53Z</time>
      </trkpt>
      <trkpt lat="45.84231" lon="4.25148">
        <ele>582.015</ele>
        <time>2018-11-05T13:26:59Z</time>
      </trkpt>
      <trkpt lat="45.84232" lon="4.25147">
        <ele>581.541</ele>
        <time>2018-11-05T13:27:05Z</time>
      </trkpt>
      <trkpt lat="45.84231" lon="4.25145">
        <ele>580.89</ele>
        <time>2018-11-05T13:27:11Z</time>
      </trkpt>
      <trkpt lat="45.84232" lon="4.2515">
        <ele>580.418</ele>
        <time>2018-11-05T13:27:17Z</time>
      </trkpt>
      <trkpt lat="45.84233" lon="4.25152">
        <ele>579.979</ele>
        <time>2018-11-05T13:27:22Z</time>
      </trkpt>
      <trkpt lat="45.84232" lon="4.25154">
        <ele>579.911</ele>
        <time>2018-11-05T13:27:27Z</time>
      </trkpt>
      <trkpt lat="45.8423" lon="4.25152">
        <ele>580.019</ele>
        <time>2018-11-05T13:27:33Z</time>
      </trkpt>
      <trkpt lat="45.84227" lon="4.25154">
        <ele>579.775</ele>
        <time>2018-11-05T13:27:39Z</time>
      </trkpt>
      <trkpt lat="45.84222" lon="4.25159">
        <ele>579.848</ele>
        <time>2018-11-05T13:27:44Z</time>
      </trkpt>
      <trkpt lat="45.84217" lon="4.25166">
        <ele>580.441</ele>
        <time>2018-11-05T13:27:50Z</time>
      </trkpt>
      <trkpt lat="45.8421" lon="4.25163">
        <ele>581.025</ele>
        <time>2018-11-05T13:27:56Z</time>
      </trkpt>
      <trkpt lat="45.84205" lon="4.25158">
        <ele>581.326</ele>
        <time>2018-11-05T13:28:01Z</time>
      </trkpt>
      <trkpt lat="45.842" lon="4.25154">
        <ele>581.381</ele>
        <time>2018-11-05T13:28:07Z</time>
      </trkpt>
      <trkpt lat="45.84195" lon="4.25149">
        <ele>581.644</ele>
        <time>2018-11-05T13:28:12Z</time>
      </trkpt>
      <trkpt lat="45.84188" lon="4.25143">
        <ele>581.947</ele>
        <time>2018-11-05T13:28:18Z</time>
      </trkpt>
      <trkpt lat="45.84181" lon="4.25136">
        <ele>582.319</ele>
        <time>2018-11-05T13:28:24Z</time>
      </trkpt>
      <trkpt lat="45.84177" lon="4.25127">
        <ele>582.503</ele>
        <time>2018-11-05T13:28:30Z</time>
      </trkpt>
      <trkpt lat="45.84169" lon="4.25123">
        <ele>582.763</ele>
        <time>2018-11-05T13:28:36Z</time>
      </trkpt>
      <trkpt lat="45.84166" lon="4.2511">
        <ele>582.53</ele>
        <time>2018-11-05T13:28:42Z</time>
      </trkpt>
      <trkpt lat="45.84167" lon="4.25098">
        <ele>582.453</ele>
        <time>2018-11-05T13:28:48Z</time>
      </trkpt>
      <trkpt lat="45.84171" lon="4.25085">
        <ele>582.515</ele>
        <time>2018-11-05T13:28:54Z</time>
      </trkpt>
      <trkpt lat="45.84174" lon="4.25077">
        <ele>583.086</ele>
        <time>2018-11-05T13:28:59Z</time>
      </trkpt>
      <trkpt lat="45.84178" lon="4.2507">
        <ele>583.646</ele>
        <time>2018-11-05T13:29:04Z</time>
      </trkpt>
      <trkpt lat="45.8418" lon="4.25062">
        <ele>583.848</ele>
        <time>2018-11-05T13:29:10Z</time>
      </trkpt>
      <trkpt lat="45.84185" lon="4.25057">
        <ele>583.836</ele>
        <time>2018-11-05T13:29:15Z</time>
      </trkpt>
      <trkpt lat="45.84188" lon="4.25053">
        <ele>584.056</ele>
        <time>2018-11-05T13:29:20Z</time>
      </trkpt>
      <trkpt lat="45.84192" lon="4.25042">
        <ele>584.233</ele>
        <time>2018-11-05T13:29:26Z</time>
      </trkpt>
      <trkpt lat="45.84195" lon="4.25036">
        <ele>584.408</ele>
        <time>2018-11-05T13:29:32Z</time>
      </trkpt>
      <trkpt lat="45.84196" lon="4.25027">
        <ele>584.337</ele>
        <time>2018-11-05T13:29:38Z</time>
      </trkpt>
      <trkpt lat="45.84194" lon="4.25015">
        <ele>583.76</ele>
        <time>2018-11-05T13:29:44Z</time>
      </trkpt>
      <trkpt lat="45.84194" lon="4.25008">
        <ele>583.356</ele>
        <time>2018-11-05T13:29:50Z</time>
      </trkpt>
      <trkpt lat="45.84193" lon="4.24995">
        <ele>582.662</ele>
        <time>2018-11-05T13:29:56Z</time>
      </trkpt>
      <trkpt lat="45.84194" lon="4.24984">
        <ele>582.141</ele>
        <time>2018-11-05T13:30:02Z</time>
      </trkpt>
      <trkpt lat="45.84193" lon="4.24974">
        <ele>581.607</ele>
        <time>2018-11-05T13:30:08Z</time>
      </trkpt>
      <trkpt lat="45.84194" lon="4.24964">
        <ele>581.096</ele>
        <time>2018-11-05T13:30:13Z</time>
      </trkpt>
      <trkpt lat="45.84193" lon="4.24954">
        <ele>580.691</ele>
        <time>2018-11-05T13:30:19Z</time>
      </trkpt>
      <trkpt lat="45.84194" lon="4.24947">
        <ele>580.737</ele>
        <time>2018-11-05T13:30:24Z</time>
      </trkpt>
      <trkpt lat="45.84194" lon="4.24943">
        <ele>580.644</ele>
        <time>2018-11-05T13:30:29Z</time>
      </trkpt>
      <trkpt lat="45.84196" lon="4.24934">
        <ele>580.909</ele>
        <time>2018-11-05T13:30:35Z</time>
      </trkpt>
      <trkpt lat="45.84196" lon="4.24926">
        <ele>581.079</ele>
        <time>2018-11-05T13:30:40Z</time>
      </trkpt>
      <trkpt lat="45.84194" lon="4.24917">
        <ele>581.684</ele>
        <time>2018-11-05T13:30:45Z</time>
      </trkpt>
      <trkpt lat="45.84193" lon="4.24906">
        <ele>582.674</ele>
        <time>2018-11-05T13:30:51Z</time>
      </trkpt>
      <trkpt lat="45.84194" lon="4.24898">
        <ele>583.752</ele>
        <time>2018-11-05T13:30:56Z</time>
      </trkpt>
      <trkpt lat="45.84193" lon="4.24888">
        <ele>584.773</ele>
        <time>2018-11-05T13:31:02Z</time>
      </trkpt>
      <trkpt lat="45.84193" lon="4.24883">
        <ele>585.578</ele>
        <time>2018-11-05T13:31:07Z</time>
      </trkpt>
      <trkpt lat="45.84191" lon="4.24873">
        <ele>586.299</ele>
        <time>2018-11-05T13:31:13Z</time>
      </trkpt>
      <trkpt lat="45.84189" lon="4.24867">
        <ele>586.997</ele>
        <time>2018-11-05T13:31:19Z</time>
      </trkpt>
      <trkpt lat="45.84188" lon="4.24863">
        <ele>587.869</ele>
        <time>2018-11-05T13:31:24Z</time>
      </trkpt>
      <trkpt lat="45.84186" lon="4.24859">
        <ele>588.527</ele>
        <time>2018-11-05T13:31:29Z</time>
      </trkpt>
      <trkpt lat="45.84183" lon="4.24858">
        <ele>589.051</ele>
        <time>2018-11-05T13:31:35Z</time>
      </trkpt>
      <trkpt lat="45.84179" lon="4.2486">
        <ele>589.44</ele>
        <time>2018-11-05T13:31:40Z</time>
      </trkpt>
      <trkpt lat="45.84174" lon="4.24863">
        <ele>589.865</ele>
        <time>2018-11-05T13:31:46Z</time>
      </trkpt>
      <trkpt lat="45.84169" lon="4.24864">
        <ele>590.328</ele>
        <time>2018-11-05T13:31:51Z</time>
      </trkpt>
      <trkpt lat="45.84164" lon="4.24867">
        <ele>590.964</ele>
        <time>2018-11-05T13:31:56Z</time>
      </trkpt>
      <trkpt lat="45.84155" lon="4.24873">
        <ele>590.853</ele>
        <time>2018-11-05T13:32:02Z</time>
      </trkpt>
      <trkpt lat="45.84151" lon="4.24874">
        <ele>590.458</ele>
        <time>2018-11-05T13:32:07Z</time>
      </trkpt>
      <trkpt lat="45.84144" lon="4.24874">
        <ele>589.833</ele>
        <time>2018-11-05T13:32:13Z</time>
      </trkpt>
      <trkpt lat="45.84141" lon="4.24874">
        <ele>590.305</ele>
        <time>2018-11-05T13:32:18Z</time>
      </trkpt>
      <trkpt lat="45.84134" lon="4.24875">
        <ele>591.741</ele>
        <time>2018-11-05T13:32:24Z</time>
      </trkpt>
      <trkpt lat="45.84128" lon="4.24875">
        <ele>592.468</ele>
        <time>2018-11-05T13:32:30Z</time>
      </trkpt>
      <trkpt lat="45.84122" lon="4.24873">
        <ele>593.445</ele>
        <time>2018-11-05T13:32:36Z</time>
      </trkpt>
      <trkpt lat="45.84119" lon="4.24874">
        <ele>594.231</ele>
        <time>2018-11-05T13:32:41Z</time>
      </trkpt>
      <trkpt lat="45.84112" lon="4.24874">
        <ele>595.316</ele>
        <time>2018-11-05T13:32:46Z</time>
      </trkpt>
      <trkpt lat="45.84105" lon="4.24875">
        <ele>596.692</ele>
        <time>2018-11-05T13:32:52Z</time>
      </trkpt>
      <trkpt lat="45.84102" lon="4.24873">
        <ele>597.848</ele>
        <time>2018-11-05T13:32:57Z</time>
      </trkpt>
      <trkpt lat="45.84098" lon="4.24874">
        <ele>598.82</ele>
        <time>2018-11-05T13:33:03Z</time>
      </trkpt>
      <trkpt lat="45.84096" lon="4.24876">
        <ele>598.94</ele>
        <time>2018-11-05T13:33:08Z</time>
      </trkpt>
      <trkpt lat="45.8409" lon="4.24877">
        <ele>599.042</ele>
        <time>2018-11-05T13:33:14Z</time>
      </trkpt>
      <trkpt lat="45.84085" lon="4.24878">
        <ele>599.265</ele>
        <time>2018-11-05T13:33:19Z</time>
      </trkpt>
      <trkpt lat="45.84079" lon="4.24875">
        <ele>599.54</ele>
        <time>2018-11-05T13:33:24Z</time>
      </trkpt>
      <trkpt lat="45.8407" lon="4.2487">
        <ele>600.129</ele>
        <time>2018-11-05T13:33:30Z</time>
      </trkpt>
      <trkpt lat="45.84064" lon="4.24866">
        <ele>601.048</ele>
        <time>2018-11-05T13:33:36Z</time>
      </trkpt>
      <trkpt lat="45.84062" lon="4.24861">
        <ele>601.626</ele>
        <time>2018-11-05T13:33:42Z</time>
      </trkpt>
      <trkpt lat="45.84062" lon="4.24862">
        <ele>601.98</ele>
        <time>2018-11-05T13:33:48Z</time>
      </trkpt>
      <trkpt lat="45.84061" lon="4.24864">
        <ele>602.576</ele>
        <time>2018-11-05T13:33:54Z</time>
      </trkpt>
      <trkpt lat="45.84062" lon="4.24864">
        <ele>604.345</ele>
        <time>2018-11-05T13:34:00Z</time>
      </trkpt>
      <trkpt lat="45.84062" lon="4.24861">
        <ele>604.926</ele>
        <time>2018-11-05T13:34:05Z</time>
      </trkpt>
      <trkpt lat="45.84063" lon="4.2486">
        <ele>606.317</ele>
        <time>2018-11-05T13:34:11Z</time>
      </trkpt>
      <trkpt lat="45.84059" lon="4.24857">
        <ele>607.463</ele>
        <time>2018-11-05T13:34:17Z</time>
      </trkpt>
      <trkpt lat="45.84057" lon="4.24857">
        <ele>607.827</ele>
        <time>2018-11-05T13:34:22Z</time>
      </trkpt>
      <trkpt lat="45.84057" lon="4.24859">
        <ele>607.242</ele>
        <time>2018-11-05T13:34:28Z</time>
      </trkpt>
      <trkpt lat="45.84057" lon="4.2486">
        <ele>607.101</ele>
        <time>2018-11-05T13:34:33Z</time>
      </trkpt>
      <trkpt lat="45.84057" lon="4.24859">
        <ele>607.509</ele>
        <time>2018-11-05T13:34:38Z</time>
      </trkpt>
      <trkpt lat="45.84057" lon="4.24859">
        <ele>607.513</ele>
        <time>2018-11-05T13:34:43Z</time>
      </trkpt>
      <trkpt lat="45.84056" lon="4.24858">
        <ele>606.744</ele>
        <time>2018-11-05T13:34:49Z</time>
      </trkpt>
      <trkpt lat="45.84056" lon="4.24855">
        <ele>606.959</ele>
        <time>2018-11-05T13:34:55Z</time>
      </trkpt>
      <trkpt lat="45.84054" lon="4.24852">
        <ele>607.201</ele>
        <time>2018-11-05T13:35:01Z</time>
      </trkpt>
      <trkpt lat="45.8405" lon="4.24846">
        <ele>607.796</ele>
        <time>2018-11-05T13:35:07Z</time>
      </trkpt>
      <trkpt lat="45.84047" lon="4.24842">
        <ele>608.309</ele>
        <time>2018-11-05T13:35:12Z</time>
      </trkpt>
      <trkpt lat="45.84044" lon="4.24835">
        <ele>609.338</ele>
        <time>2018-11-05T13:35:18Z</time>
      </trkpt>
      <trkpt lat="45.84039" lon="4.24826">
        <ele>609.804</ele>
        <time>2018-11-05T13:35:24Z</time>
      </trkpt>
      <trkpt lat="45.84036" lon="4.24819">
        <ele>610.329</ele>
        <time>2018-11-05T13:35:30Z</time>
      </trkpt>
      <trkpt lat="45.84034" lon="4.24817">
        <ele>611.345</ele>
        <time>2018-11-05T13:35:35Z</time>
      </trkpt>
      <trkpt lat="45.84029" lon="4.2481">
        <ele>612.482</ele>
        <time>2018-11-05T13:35:41Z</time>
      </trkpt>
      <trkpt lat="45.84024" lon="4.24805">
        <ele>613.482</ele>
        <time>2018-11-05T13:35:47Z</time>
      </trkpt>
      <trkpt lat="45.84021" lon="4.24799">
        <ele>613.849</ele>
        <time>2018-11-05T13:35:52Z</time>
      </trkpt>
      <trkpt lat="45.84017" lon="4.24791">
        <ele>614.295</ele>
        <time>2018-11-05T13:35:58Z</time>
      </trkpt>
      <trkpt lat="45.84012" lon="4.24784">
        <ele>614.372</ele>
        <time>2018-11-05T13:36:03Z</time>
      </trkpt>
      <trkpt lat="45.84007" lon="4.24778">
        <ele>614.829</ele>
        <time>2018-11-05T13:36:09Z</time>
      </trkpt>
      <trkpt lat="45.84006" lon="4.24772">
        <ele>615.057</ele>
        <time>2018-11-05T13:36:14Z</time>
      </trkpt>
      <trkpt lat="45.84004" lon="4.24764">
        <ele>615.147</ele>
        <time>2018-11-05T13:36:19Z</time>
      </trkpt>
      <trkpt lat="45.84004" lon="4.24757">
        <ele>614.961</ele>
        <time>2018-11-05T13:36:25Z</time>
      </trkpt>
      <trkpt lat="45.84004" lon="4.24752">
        <ele>614.592</ele>
        <time>2018-11-05T13:36:31Z</time>
      </trkpt>
      <trkpt lat="45.84005" lon="4.24747">
        <ele>614.671</ele>
        <time>2018-11-05T13:36:36Z</time>
      </trkpt>
      <trkpt lat="45.84003" lon="4.24741">
        <ele>614.627</ele>
        <time>2018-11-05T13:36:42Z</time>
      </trkpt>
      <trkpt lat="45.84002" lon="4.24741">
        <ele>614.723</ele>
        <time>2018-11-05T13:36:47Z</time>
      </trkpt>
      <trkpt lat="45.83999" lon="4.2474">
        <ele>614.771</ele>
        <time>2018-11-05T13:36:53Z</time>
      </trkpt>
      <trkpt lat="45.83999" lon="4.2474">
        <ele>614.431</ele>
        <time>2018-11-05T13:36:58Z</time>
      </trkpt>
      <trkpt lat="45.83999" lon="4.24741">
        <ele>614.54</ele>
        <time>2018-11-05T13:37:04Z</time>
      </trkpt>
      <trkpt lat="45.84" lon="4.24742">
        <ele>614.012</ele>
        <time>2018-11-05T13:37:09Z</time>
      </trkpt>
      <trkpt lat="45.84001" lon="4.24742">
        <ele>613.959</ele>
        <time>2018-11-05T13:37:15Z</time>
      </trkpt>
      <trkpt lat="45.83999" lon="4.2474">
        <ele>613.774</ele>
        <time>2018-11-05T13:37:21Z</time>
      </trkpt>
      <trkpt lat="45.84" lon="4.24739">
        <ele>613.715</ele>
        <time>2018-11-05T13:37:27Z</time>
      </trkpt>
      <trkpt lat="45.83999" lon="4.24739">
        <ele>613.544</ele>
        <time>2018-11-05T13:37:33Z</time>
      </trkpt>
      <trkpt lat="45.84" lon="4.24739">
        <ele>613.501</ele>
        <time>2018-11-05T13:37:39Z</time>
      </trkpt>
      <trkpt lat="45.84001" lon="4.24738">
        <ele>613.235</ele>
        <time>2018-11-05T13:37:44Z</time>
      </trkpt>
      <trkpt lat="45.84" lon="4.24738">
        <ele>613.022</ele>
        <time>2018-11-05T13:37:49Z</time>
      </trkpt>
      <trkpt lat="45.83999" lon="4.24734">
        <ele>612.798</ele>
        <time>2018-11-05T13:37:55Z</time>
      </trkpt>
      <trkpt lat="45.83994" lon="4.2473">
        <ele>612.87</ele>
        <time>2018-11-05T13:38:01Z</time>
      </trkpt>
      <trkpt lat="45.8399" lon="4.24727">
        <ele>612.988</ele>
        <time>2018-11-05T13:38:07Z</time>
      </trkpt>
      <trkpt lat="45.83988" lon="4.24724">
        <ele>613.234</ele>
        <time>2018-11-05T13:38:13Z</time>
      </trkpt>
      <trkpt lat="45.83988" lon="4.24723">
        <ele>613.534</ele>
        <time>2018-11-05T13:38:19Z</time>
      </trkpt>
      <trkpt lat="45.83986" lon="4.24724">
        <ele>614.072</ele>
        <time>2018-11-05T13:38:24Z</time>
      </trkpt>
      <trkpt lat="45.83984" lon="4.24726">
        <ele>614.467</ele>
        <time>2018-11-05T13:38:29Z</time>
      </trkpt>
      <trkpt lat="45.83984" lon="4.24725">
        <ele>614.699</ele>
        <time>2018-11-05T13:38:35Z</time>
      </trkpt>
      <trkpt lat="45.83983" lon="4.24723">
        <ele>614.945</ele>
        <time>2018-11-05T13:38:40Z</time>
      </trkpt>
      <trkpt lat="45.8398" lon="4.24717">
        <ele>614.737</ele>
        <time>2018-11-05T13:38:46Z</time>
      </trkpt>
      <trkpt lat="45.83976" lon="4.24715">
        <ele>614.886</ele>
        <time>2018-11-05T13:38:52Z</time>
      </trkpt>
      <trkpt lat="45.83973" lon="4.24712">
        <ele>615.157</ele>
        <time>2018-11-05T13:38:57Z</time>
      </trkpt>
      <trkpt lat="45.8397" lon="4.24709">
        <ele>614.973</ele>
        <time>2018-11-05T13:39:02Z</time>
      </trkpt>
      <trkpt lat="45.83968" lon="4.24706">
        <ele>615.044</ele>
        <time>2018-11-05T13:39:08Z</time>
      </trkpt>
      <trkpt lat="45.83965" lon="4.24704">
        <ele>615.081</ele>
        <time>2018-11-05T13:39:13Z</time>
      </trkpt>
      <trkpt lat="45.83962" lon="4.24702">
        <ele>615.061</ele>
        <time>2018-11-05T13:39:18Z</time>
      </trkpt>
      <trkpt lat="45.83958" lon="4.24701">
        <ele>615.137</ele>
        <time>2018-11-05T13:39:24Z</time>
      </trkpt>
      <trkpt lat="45.83954" lon="4.247">
        <ele>615.609</ele>
        <time>2018-11-05T13:39:29Z</time>
      </trkpt>
      <trkpt lat="45.8395" lon="4.24697">
        <ele>616.031</ele>
        <time>2018-11-05T13:39:34Z</time>
      </trkpt>
      <trkpt lat="45.83947" lon="4.24693">
        <ele>616.581</ele>
        <time>2018-11-05T13:39:40Z</time>
      </trkpt>
      <trkpt lat="45.83944" lon="4.24689">
        <ele>617.368</ele>
        <time>2018-11-05T13:39:46Z</time>
      </trkpt>
      <trkpt lat="45.83942" lon="4.24688">
        <ele>617.71</ele>
        <time>2018-11-05T13:39:52Z</time>
      </trkpt>
      <trkpt lat="45.83941" lon="4.24688">
        <ele>618.261</ele>
        <time>2018-11-05T13:39:57Z</time>
      </trkpt>
      <trkpt lat="45.83942" lon="4.24688">
        <ele>618.208</ele>
        <time>2018-11-05T13:40:03Z</time>
      </trkpt>
      <trkpt lat="45.83943" lon="4.2469">
        <ele>618.094</ele>
        <time>2018-11-05T13:40:08Z</time>
      </trkpt>
      <trkpt lat="45.83942" lon="4.24691">
        <ele>618.273</ele>
        <time>2018-11-05T13:40:13Z</time>
      </trkpt>
      <trkpt lat="45.83941" lon="4.24691">
        <ele>618.007</ele>
        <time>2018-11-05T13:40:19Z</time>
      </trkpt>
      <trkpt lat="45.83942" lon="4.24688">
        <ele>617.658</ele>
        <time>2018-11-05T13:40:25Z</time>
      </trkpt>
      <trkpt lat="45.83942" lon="4.24689">
        <ele>617.632</ele>
        <time>2018-11-05T13:40:31Z</time>
      </trkpt>
      <trkpt lat="45.83941" lon="4.24689">
        <ele>617.782</ele>
        <time>2018-11-05T13:40:37Z</time>
      </trkpt>
      <trkpt lat="45.83941" lon="4.24687">
        <ele>617.906</ele>
        <time>2018-11-05T13:40:42Z</time>
      </trkpt>
      <trkpt lat="45.83939" lon="4.24686">
        <ele>617.892</ele>
        <time>2018-11-05T13:40:47Z</time>
      </trkpt>
      <trkpt lat="45.83939" lon="4.24685">
        <ele>618.037</ele>
        <time>2018-11-05T13:40:53Z</time>
      </trkpt>
      <trkpt lat="45.8394" lon="4.24682">
        <ele>618.012</ele>
        <time>2018-11-05T13:40:59Z</time>
      </trkpt>
      <trkpt lat="45.83938" lon="4.2468">
        <ele>617.761</ele>
        <time>2018-11-05T13:41:04Z</time>
      </trkpt>
      <trkpt lat="45.83935" lon="4.24681">
        <ele>618.007</ele>
        <time>2018-11-05T13:41:10Z</time>
      </trkpt>
      <trkpt lat="45.83935" lon="4.24681">
        <ele>618.077</ele>
        <time>2018-11-05T13:41:15Z</time>
      </trkpt>
      <trkpt lat="45.83934" lon="4.2468">
        <ele>617.944</ele>
        <time>2018-11-05T13:41:21Z</time>
      </trkpt>
      <trkpt lat="45.83933" lon="4.24676">
        <ele>617.758</ele>
        <time>2018-11-05T13:41:26Z</time>
      </trkpt>
      <trkpt lat="45.83929" lon="4.24674">
        <ele>617.993</ele>
        <time>2018-11-05T13:41:32Z</time>
      </trkpt>
      <trkpt lat="45.83925" lon="4.24672">
        <ele>618.556</ele>
        <time>2018-11-05T13:41:37Z</time>
      </trkpt>
      <trkpt lat="45.83919" lon="4.24669">
        <ele>618.728</ele>
        <time>2018-11-05T13:41:43Z</time>
      </trkpt>
      <trkpt lat="45.83915" lon="4.24667">
        <ele>619.082</ele>
        <time>2018-11-05T13:41:48Z</time>
      </trkpt>
      <trkpt lat="45.83908" lon="4.24661">
        <ele>619.633</ele>
        <time>2018-11-05T13:41:53Z</time>
      </trkpt>
      <trkpt lat="45.83905" lon="4.2466">
        <ele>620.341</ele>
        <time>2018-11-05T13:41:59Z</time>
      </trkpt>
      <trkpt lat="45.83899" lon="4.24659">
        <ele>620.806</ele>
        <time>2018-11-05T13:42:04Z</time>
      </trkpt>
      <trkpt lat="45.8389" lon="4.24655">
        <ele>620.958</ele>
        <time>2018-11-05T13:42:10Z</time>
      </trkpt>
      <trkpt lat="45.83885" lon="4.2465">
        <ele>621.595</ele>
        <time>2018-11-05T13:42:15Z</time>
      </trkpt>
      <trkpt lat="45.83879" lon="4.24644">
        <ele>622.325</ele>
        <time>2018-11-05T13:42:21Z</time>
      </trkpt>
      <trkpt lat="45.83873" lon="4.2464">
        <ele>622.545</ele>
        <time>2018-11-05T13:42:26Z</time>
      </trkpt>
      <trkpt lat="45.83868" lon="4.24635">
        <ele>622.764</ele>
        <time>2018-11-05T13:42:31Z</time>
      </trkpt>
      <trkpt lat="45.83864" lon="4.24631">
        <ele>622.698</ele>
        <time>2018-11-05T13:42:36Z</time>
      </trkpt>
      <trkpt lat="45.83858" lon="4.24626">
        <ele>622.989</ele>
        <time>2018-11-05T13:42:42Z</time>
      </trkpt>
      <trkpt lat="45.83851" lon="4.24621">
        <ele>623.267</ele>
        <time>2018-11-05T13:42:48Z</time>
      </trkpt>
      <trkpt lat="45.83849" lon="4.24618">
        <ele>623.584</ele>
        <time>2018-11-05T13:42:53Z</time>
      </trkpt>
      <trkpt lat="45.83841" lon="4.24616">
        <ele>623.176</ele>
        <time>2018-11-05T13:42:59Z</time>
      </trkpt>
      <trkpt lat="45.83835" lon="4.24613">
        <ele>622.586</ele>
        <time>2018-11-05T13:43:05Z</time>
      </trkpt>
      <trkpt lat="45.8383" lon="4.24608">
        <ele>622.181</ele>
        <time>2018-11-05T13:43:11Z</time>
      </trkpt>
      <trkpt lat="45.83824" lon="4.24603">
        <ele>621.772</ele>
        <time>2018-11-05T13:43:17Z</time>
      </trkpt>
      <trkpt lat="45.83819" lon="4.24597">
        <ele>621.639</ele>
        <time>2018-11-05T13:43:23Z</time>
      </trkpt>
      <trkpt lat="45.83814" lon="4.24594">
        <ele>621.234</ele>
        <time>2018-11-05T13:43:29Z</time>
      </trkpt>
      <trkpt lat="45.83809" lon="4.24591">
        <ele>621</ele>
        <time>2018-11-05T13:43:34Z</time>
      </trkpt>
      <trkpt lat="45.83805" lon="4.24589">
        <ele>620.499</ele>
        <time>2018-11-05T13:43:40Z</time>
      </trkpt>
      <trkpt lat="45.83799" lon="4.24583">
        <ele>620.112</ele>
        <time>2018-11-05T13:43:46Z</time>
      </trkpt>
      <trkpt lat="45.83793" lon="4.24576">
        <ele>619.708</ele>
        <time>2018-11-05T13:43:51Z</time>
      </trkpt>
      <trkpt lat="45.83785" lon="4.24571">
        <ele>619.39</ele>
        <time>2018-11-05T13:43:56Z</time>
      </trkpt>
      <trkpt lat="45.8378" lon="4.24568">
        <ele>618.891</ele>
        <time>2018-11-05T13:44:01Z</time>
      </trkpt>
      <trkpt lat="45.83774" lon="4.2456">
        <ele>617.912</ele>
        <time>2018-11-05T13:44:07Z</time>
      </trkpt>
      <trkpt lat="45.8377" lon="4.24553">
        <ele>617.286</ele>
        <time>2018-11-05T13:44:12Z</time>
      </trkpt>
      <trkpt lat="45.83767" lon="4.24546">
        <ele>616.384</ele>
        <time>2018-11-05T13:44:18Z</time>
      </trkpt>
      <trkpt lat="45.83763" lon="4.2454">
        <ele>615.324</ele>
        <time>2018-11-05T13:44:23Z</time>
      </trkpt>
      <trkpt lat="45.8376" lon="4.24534">
        <ele>614.301</ele>
        <time>2018-11-05T13:44:28Z</time>
      </trkpt>
      <trkpt lat="45.83757" lon="4.24524">
        <ele>613.058</ele>
        <time>2018-11-05T13:44:34Z</time>
      </trkpt>
      <trkpt lat="45.83754" lon="4.2452">
        <ele>612.495</ele>
        <time>2018-11-05T13:44:39Z</time>
      </trkpt>
      <trkpt lat="45.83751" lon="4.24514">
        <ele>611.919</ele>
        <time>2018-11-05T13:44:44Z</time>
      </trkpt>
      <trkpt lat="45.83747" lon="4.24506">
        <ele>611.317</ele>
        <time>2018-11-05T13:44:50Z</time>
      </trkpt>
      <trkpt lat="45.83744" lon="4.24496">
        <ele>610.817</ele>
        <time>2018-11-05T13:44:55Z</time>
      </trkpt>
      <trkpt lat="45.83743" lon="4.24489">
        <ele>610.192</ele>
        <time>2018-11-05T13:45:00Z</time>
      </trkpt>
      <trkpt lat="45.83743" lon="4.24481">
        <ele>609.279</ele>
        <time>2018-11-05T13:45:05Z</time>
      </trkpt>
      <trkpt lat="45.83742" lon="4.24473">
        <ele>608.225</ele>
        <time>2018-11-05T13:45:11Z</time>
      </trkpt>
      <trkpt lat="45.83742" lon="4.24461">
        <ele>607.481</ele>
        <time>2018-11-05T13:45:17Z</time>
      </trkpt>
      <trkpt lat="45.83743" lon="4.24451">
        <ele>606.431</ele>
        <time>2018-11-05T13:45:23Z</time>
      </trkpt>
      <trkpt lat="45.83744" lon="4.24443">
        <ele>605.523</ele>
        <time>2018-11-05T13:45:28Z</time>
      </trkpt>
      <trkpt lat="45.83742" lon="4.24433">
        <ele>604.417</ele>
        <time>2018-11-05T13:45:34Z</time>
      </trkpt>
      <trkpt lat="45.83743" lon="4.24421">
        <ele>603.449</ele>
        <time>2018-11-05T13:45:40Z</time>
      </trkpt>
      <trkpt lat="45.83743" lon="4.24411">
        <ele>602.859</ele>
        <time>2018-11-05T13:45:45Z</time>
      </trkpt>
      <trkpt lat="45.83742" lon="4.24402">
        <ele>602.443</ele>
        <time>2018-11-05T13:45:50Z</time>
      </trkpt>
      <trkpt lat="45.8374" lon="4.2439">
        <ele>601.755</ele>
        <time>2018-11-05T13:45:56Z</time>
      </trkpt>
      <trkpt lat="45.8374" lon="4.24381">
        <ele>601.364</ele>
        <time>2018-11-05T13:46:02Z</time>
      </trkpt>
      <trkpt lat="45.8374" lon="4.2437">
        <ele>600.763</ele>
        <time>2018-11-05T13:46:07Z</time>
      </trkpt>
      <trkpt lat="45.8374" lon="4.24362">
        <ele>600.328</ele>
        <time>2018-11-05T13:46:13Z</time>
      </trkpt>
      <trkpt lat="45.83737" lon="4.24351">
        <ele>600.16</ele>
        <time>2018-11-05T13:46:19Z</time>
      </trkpt>
      <trkpt lat="45.83734" lon="4.24341">
        <ele>599.633</ele>
        <time>2018-11-05T13:46:25Z</time>
      </trkpt>
      <trkpt lat="45.83733" lon="4.24331">
        <ele>599.173</ele>
        <time>2018-11-05T13:46:31Z</time>
      </trkpt>
      <trkpt lat="45.83732" lon="4.24322">
        <ele>599.096</ele>
        <time>2018-11-05T13:46:36Z</time>
      </trkpt>
      <trkpt lat="45.83732" lon="4.24315">
        <ele>598.618</ele>
        <time>2018-11-05T13:46:42Z</time>
      </trkpt>
      <trkpt lat="45.83731" lon="4.24303">
        <ele>598.202</ele>
        <time>2018-11-05T13:46:47Z</time>
      </trkpt>
      <trkpt lat="45.8373" lon="4.24295">
        <ele>598.2</ele>
        <time>2018-11-05T13:46:53Z</time>
      </trkpt>
      <trkpt lat="45.83729" lon="4.24287">
        <ele>597.886</ele>
        <time>2018-11-05T13:46:58Z</time>
      </trkpt>
      <trkpt lat="45.83729" lon="4.24277">
        <ele>597.275</ele>
        <time>2018-11-05T13:47:04Z</time>
      </trkpt>
      <trkpt lat="45.83729" lon="4.24269">
        <ele>596.825</ele>
        <time>2018-11-05T13:47:09Z</time>
      </trkpt>
      <trkpt lat="45.83729" lon="4.24259">
        <ele>596.304</ele>
        <time>2018-11-05T13:47:15Z</time>
      </trkpt>
      <trkpt lat="45.83729" lon="4.24253">
        <ele>596.202</ele>
        <time>2018-11-05T13:47:20Z</time>
      </trkpt>
      <trkpt lat="45.83728" lon="4.24246">
        <ele>596.173</ele>
        <time>2018-11-05T13:47:25Z</time>
      </trkpt>
      <trkpt lat="45.83729" lon="4.24239">
        <ele>596.39</ele>
        <time>2018-11-05T13:47:30Z</time>
      </trkpt>
      <trkpt lat="45.83729" lon="4.24229">
        <ele>596.38</ele>
        <time>2018-11-05T13:47:35Z</time>
      </trkpt>
      <trkpt lat="45.83726" lon="4.24219">
        <ele>596.061</ele>
        <time>2018-11-05T13:47:41Z</time>
      </trkpt>
      <trkpt lat="45.83725" lon="4.24211">
        <ele>595.821</ele>
        <time>2018-11-05T13:47:46Z</time>
      </trkpt>
      <trkpt lat="45.83724" lon="4.24203">
        <ele>595.576</ele>
        <time>2018-11-05T13:47:52Z</time>
      </trkpt>
      <trkpt lat="45.83723" lon="4.24192">
        <ele>595.269</ele>
        <time>2018-11-05T13:47:58Z</time>
      </trkpt>
      <trkpt lat="45.8372" lon="4.24184">
        <ele>594.672</ele>
        <time>2018-11-05T13:48:04Z</time>
      </trkpt>
      <trkpt lat="45.83718" lon="4.24175">
        <ele>594.297</ele>
        <time>2018-11-05T13:48:09Z</time>
      </trkpt>
      <trkpt lat="45.83717" lon="4.24166">
        <ele>593.971</ele>
        <time>2018-11-05T13:48:15Z</time>
      </trkpt>
      <trkpt lat="45.83715" lon="4.2416">
        <ele>593.745</ele>
        <time>2018-11-05T13:48:20Z</time>
      </trkpt>
      <trkpt lat="45.83713" lon="4.24151">
        <ele>593.691</ele>
        <time>2018-11-05T13:48:26Z</time>
      </trkpt>
      <trkpt lat="45.83711" lon="4.24142">
        <ele>593.63</ele>
        <time>2018-11-05T13:48:32Z</time>
      </trkpt>
      <trkpt lat="45.83707" lon="4.24134">
        <ele>593.088</ele>
        <time>2018-11-05T13:48:38Z</time>
      </trkpt>
      <trkpt lat="45.83703" lon="4.24132">
        <ele>592.96</ele>
        <time>2018-11-05T13:48:44Z</time>
      </trkpt>
      <trkpt lat="45.83703" lon="4.24132">
        <ele>593.225</ele>
        <time>2018-11-05T13:48:50Z</time>
      </trkpt>
      <trkpt lat="45.83702" lon="4.24133">
        <ele>593.891</ele>
        <time>2018-11-05T13:48:55Z</time>
      </trkpt>
      <trkpt lat="45.83698" lon="4.24135">
        <ele>594.179</ele>
        <time>2018-11-05T13:49:01Z</time>
      </trkpt>
      <trkpt lat="45.83696" lon="4.24135">
        <ele>594.539</ele>
        <time>2018-11-05T13:49:07Z</time>
      </trkpt>
      <trkpt lat="45.83695" lon="4.24134">
        <ele>594.75</ele>
        <time>2018-11-05T13:49:12Z</time>
      </trkpt>
      <trkpt lat="45.83695" lon="4.24133">
        <ele>595.046</ele>
        <time>2018-11-05T13:49:17Z</time>
      </trkpt>
      <trkpt lat="45.8369" lon="4.24139">
        <ele>595.108</ele>
        <time>2018-11-05T13:49:23Z</time>
      </trkpt>
      <trkpt lat="45.83685" lon="4.24147">
        <ele>594.736</ele>
        <time>2018-11-05T13:49:29Z</time>
      </trkpt>
      <trkpt lat="45.83681" lon="4.24153">
        <ele>594.898</ele>
        <time>2018-11-05T13:49:35Z</time>
      </trkpt>
      <trkpt lat="45.83676" lon="4.2416">
        <ele>595.059</ele>
        <time>2018-11-05T13:49:41Z</time>
      </trkpt>
      <trkpt lat="45.83671" lon="4.24166">
        <ele>594.96</ele>
        <time>2018-11-05T13:49:47Z</time>
      </trkpt>
      <trkpt lat="45.83666" lon="4.24171">
        <ele>594.701</ele>
        <time>2018-11-05T13:49:52Z</time>
      </trkpt>
      <trkpt lat="45.83662" lon="4.24176">
        <ele>594.354</ele>
        <time>2018-11-05T13:49:57Z</time>
      </trkpt>
      <trkpt lat="45.83655" lon="4.24184">
        <ele>594.101</ele>
        <time>2018-11-05T13:50:03Z</time>
      </trkpt>
      <trkpt lat="45.8365" lon="4.24189">
        <ele>593.861</ele>
        <time>2018-11-05T13:50:08Z</time>
      </trkpt>
      <trkpt lat="45.83646" lon="4.24192">
        <ele>593.261</ele>
        <time>2018-11-05T13:50:13Z</time>
      </trkpt>
      <trkpt lat="45.83639" lon="4.24196">
        <ele>592.815</ele>
        <time>2018-11-05T13:50:18Z</time>
      </trkpt>
      <trkpt lat="45.83632" lon="4.24201">
        <ele>592.272</ele>
        <time>2018-11-05T13:50:24Z</time>
      </trkpt>
      <trkpt lat="45.83626" lon="4.24202">
        <ele>591.873</ele>
        <time>2018-11-05T13:50:30Z</time>
      </trkpt>
      <trkpt lat="45.8362" lon="4.24206">
        <ele>591.668</ele>
        <time>2018-11-05T13:50:35Z</time>
      </trkpt>
      <trkpt lat="45.83613" lon="4.24211">
        <ele>591.226</ele>
        <time>2018-11-05T13:50:41Z</time>
      </trkpt>
      <trkpt lat="45.83609" lon="4.24214">
        <ele>590.949</ele>
        <time>2018-11-05T13:50:46Z</time>
      </trkpt>
      <trkpt lat="45.83604" lon="4.24221">
        <ele>590.541</ele>
        <time>2018-11-05T13:50:51Z</time>
      </trkpt>
      <trkpt lat="45.836" lon="4.24228">
        <ele>590.188</ele>
        <time>2018-11-05T13:50:57Z</time>
      </trkpt>
      <trkpt lat="45.83592" lon="4.24233">
        <ele>589.851</ele>
        <time>2018-11-05T13:51:03Z</time>
      </trkpt>
      <trkpt lat="45.83585" lon="4.24237">
        <ele>589.336</ele>
        <time>2018-11-05T13:51:09Z</time>
      </trkpt>
      <trkpt lat="45.83578" lon="4.24241">
        <ele>588.928</ele>
        <time>2018-11-05T13:51:15Z</time>
      </trkpt>
      <trkpt lat="45.83575" lon="4.24244">
        <ele>588.642</ele>
        <time>2018-11-05T13:51:20Z</time>
      </trkpt>
      <trkpt lat="45.83567" lon="4.24249">
        <ele>588.32</ele>
        <time>2018-11-05T13:51:26Z</time>
      </trkpt>
      <trkpt lat="45.83561" lon="4.24251">
        <ele>588.307</ele>
        <time>2018-11-05T13:51:31Z</time>
      </trkpt>
      <trkpt lat="45.83556" lon="4.24252">
        <ele>588.291</ele>
        <time>2018-11-05T13:51:36Z</time>
      </trkpt>
      <trkpt lat="45.83553" lon="4.24258">
        <ele>588.228</ele>
        <time>2018-11-05T13:51:41Z</time>
      </trkpt>
      <trkpt lat="45.83553" lon="4.24262">
        <ele>587.734</ele>
        <time>2018-11-05T13:51:46Z</time>
      </trkpt>
      <trkpt lat="45.83556" lon="4.24267">
        <ele>586.942</ele>
        <time>2018-11-05T13:51:52Z</time>
      </trkpt>
      <trkpt lat="45.83557" lon="4.24274">
        <ele>586.415</ele>
        <time>2018-11-05T13:51:57Z</time>
      </trkpt>
      <trkpt lat="45.83556" lon="4.24282">
        <ele>585.731</ele>
        <time>2018-11-05T13:52:02Z</time>
      </trkpt>
      <trkpt lat="45.83552" lon="4.2429">
        <ele>584.992</ele>
        <time>2018-11-05T13:52:08Z</time>
      </trkpt>
      <trkpt lat="45.83546" lon="4.24296">
        <ele>584.159</ele>
        <time>2018-11-05T13:52:14Z</time>
      </trkpt>
      <trkpt lat="45.83537" lon="4.243">
        <ele>583.202</ele>
        <time>2018-11-05T13:52:21Z</time>
      </trkpt>
      <trkpt lat="45.83533" lon="4.24304">
        <ele>582.557</ele>
        <time>2018-11-05T13:52:26Z</time>
      </trkpt>
      <trkpt lat="45.83529" lon="4.24308">
        <ele>581.987</ele>
        <time>2018-11-05T13:52:31Z</time>
      </trkpt>
      <trkpt lat="45.83524" lon="4.24311">
        <ele>581.487</ele>
        <time>2018-11-05T13:52:36Z</time>
      </trkpt>
      <trkpt lat="45.83518" lon="4.24313">
        <ele>580.653</ele>
        <time>2018-11-05T13:52:42Z</time>
      </trkpt>
      <trkpt lat="45.83512" lon="4.24317">
        <ele>579.816</ele>
        <time>2018-11-05T13:52:48Z</time>
      </trkpt>
      <trkpt lat="45.83508" lon="4.24319">
        <ele>579.216</ele>
        <time>2018-11-05T13:52:53Z</time>
      </trkpt>
      <trkpt lat="45.83504" lon="4.24321">
        <ele>578.34</ele>
        <time>2018-11-05T13:52:59Z</time>
      </trkpt>
      <trkpt lat="45.83499" lon="4.24323">
        <ele>577.484</ele>
        <time>2018-11-05T13:53:04Z</time>
      </trkpt>
      <trkpt lat="45.83494" lon="4.24326">
        <ele>576.465</ele>
        <time>2018-11-05T13:53:10Z</time>
      </trkpt>
      <trkpt lat="45.8349" lon="4.24331">
        <ele>575.709</ele>
        <time>2018-11-05T13:53:15Z</time>
      </trkpt>
      <trkpt lat="45.83483" lon="4.24333">
        <ele>574.819</ele>
        <time>2018-11-05T13:53:20Z</time>
      </trkpt>
      <trkpt lat="45.83481" lon="4.24336">
        <ele>574.376</ele>
        <time>2018-11-05T13:53:26Z</time>
      </trkpt>
      <trkpt lat="45.83476" lon="4.24339">
        <ele>573.511</ele>
        <time>2018-11-05T13:53:32Z</time>
      </trkpt>
      <trkpt lat="45.83471" lon="4.24341">
        <ele>572.799</ele>
        <time>2018-11-05T13:53:37Z</time>
      </trkpt>
      <trkpt lat="45.83465" lon="4.24345">
        <ele>571.888</ele>
        <time>2018-11-05T13:53:43Z</time>
      </trkpt>
      <trkpt lat="45.83459" lon="4.24347">
        <ele>571.12</ele>
        <time>2018-11-05T13:53:48Z</time>
      </trkpt>
      <trkpt lat="45.83451" lon="4.24349">
        <ele>570.404</ele>
        <time>2018-11-05T13:53:53Z</time>
      </trkpt>
      <trkpt lat="45.83448" lon="4.24354">
        <ele>569.774</ele>
        <time>2018-11-05T13:53:59Z</time>
      </trkpt>
      <trkpt lat="45.83442" lon="4.24357">
        <ele>568.763</ele>
        <time>2018-11-05T13:54:05Z</time>
      </trkpt>
      <trkpt lat="45.83437" lon="4.24358">
        <ele>567.85</ele>
        <time>2018-11-05T13:54:11Z</time>
      </trkpt>
      <trkpt lat="45.83434" lon="4.2436">
        <ele>567.284</ele>
        <time>2018-11-05T13:54:17Z</time>
      </trkpt>
      <trkpt lat="45.83429" lon="4.24361">
        <ele>567.4</ele>
        <time>2018-11-05T13:54:22Z</time>
      </trkpt>
      <trkpt lat="45.83423" lon="4.24356">
        <ele>567.023</ele>
        <time>2018-11-05T13:54:28Z</time>
      </trkpt>
      <trkpt lat="45.83419" lon="4.24364">
        <ele>565.958</ele>
        <time>2018-11-05T13:54:34Z</time>
      </trkpt>
      <trkpt lat="45.8341" lon="4.24375">
        <ele>564.433</ele>
        <time>2018-11-05T13:54:40Z</time>
      </trkpt>
      <trkpt lat="45.83406" lon="4.24381">
        <ele>562.993</ele>
        <time>2018-11-05T13:54:46Z</time>
      </trkpt>
      <trkpt lat="45.83398" lon="4.24382">
        <ele>562.085</ele>
        <time>2018-11-05T13:54:52Z</time>
      </trkpt>
      <trkpt lat="45.8339" lon="4.24382">
        <ele>561.092</ele>
        <time>2018-11-05T13:54:58Z</time>
      </trkpt>
      <trkpt lat="45.83383" lon="4.2438">
        <ele>559.898</ele>
        <time>2018-11-05T13:55:03Z</time>
      </trkpt>
      <trkpt lat="45.83375" lon="4.24382">
        <ele>558.421</ele>
        <time>2018-11-05T13:55:09Z</time>
      </trkpt>
      <trkpt lat="45.83372" lon="4.24385">
        <ele>557.765</ele>
        <time>2018-11-05T13:55:15Z</time>
      </trkpt>
      <trkpt lat="45.83369" lon="4.24386">
        <ele>557.614</ele>
        <time>2018-11-05T13:55:20Z</time>
      </trkpt>
      <trkpt lat="45.83364" lon="4.24389">
        <ele>557.364</ele>
        <time>2018-11-05T13:55:26Z</time>
      </trkpt>
      <trkpt lat="45.83358" lon="4.24393">
        <ele>557.071</ele>
        <time>2018-11-05T13:55:31Z</time>
      </trkpt>
      <trkpt lat="45.83354" lon="4.24395">
        <ele>557.062</ele>
        <time>2018-11-05T13:55:37Z</time>
      </trkpt>
      <trkpt lat="45.83349" lon="4.24399">
        <ele>556.854</ele>
        <time>2018-11-05T13:55:42Z</time>
      </trkpt>
      <trkpt lat="45.83345" lon="4.24402">
        <ele>555.717</ele>
        <time>2018-11-05T13:55:47Z</time>
      </trkpt>
      <trkpt lat="45.83333" lon="4.24404">
        <ele>554.53</ele>
        <time>2018-11-05T13:55:53Z</time>
      </trkpt>
      <trkpt lat="45.83325" lon="4.24407">
        <ele>553.583</ele>
        <time>2018-11-05T13:55:59Z</time>
      </trkpt>
      <trkpt lat="45.83318" lon="4.2441">
        <ele>552.754</ele>
        <time>2018-11-05T13:56:05Z</time>
      </trkpt>
      <trkpt lat="45.83313" lon="4.24417">
        <ele>551.938</ele>
        <time>2018-11-05T13:56:11Z</time>
      </trkpt>
      <trkpt lat="45.83307" lon="4.24425">
        <ele>551.448</ele>
        <time>2018-11-05T13:56:17Z</time>
      </trkpt>
      <trkpt lat="45.83304" lon="4.24432">
        <ele>550.685</ele>
        <time>2018-11-05T13:56:23Z</time>
      </trkpt>
      <trkpt lat="45.83298" lon="4.24438">
        <ele>549.964</ele>
        <time>2018-11-05T13:56:28Z</time>
      </trkpt>
      <trkpt lat="45.83287" lon="4.24444">
        <ele>548.778</ele>
        <time>2018-11-05T13:56:34Z</time>
      </trkpt>
      <trkpt lat="45.83283" lon="4.24446">
        <ele>547.752</ele>
        <time>2018-11-05T13:56:40Z</time>
      </trkpt>
      <trkpt lat="45.83277" lon="4.24443">
        <ele>547.12</ele>
        <time>2018-11-05T13:56:46Z</time>
      </trkpt>
      <trkpt lat="45.83273" lon="4.24439">
        <ele>546.77</ele>
        <time>2018-11-05T13:56:51Z</time>
      </trkpt>
      <trkpt lat="45.83267" lon="4.24431">
        <ele>546.23</ele>
        <time>2018-11-05T13:56:57Z</time>
      </trkpt>
      <trkpt lat="45.83261" lon="4.24428">
        <ele>546.098</ele>
        <time>2018-11-05T13:57:02Z</time>
      </trkpt>
      <trkpt lat="45.83254" lon="4.24422">
        <ele>546.332</ele>
        <time>2018-11-05T13:57:08Z</time>
      </trkpt>
      <trkpt lat="45.83249" lon="4.24418">
        <ele>546.886</ele>
        <time>2018-11-05T13:57:14Z</time>
      </trkpt>
      <trkpt lat="45.83242" lon="4.24413">
        <ele>546.976</ele>
        <time>2018-11-05T13:57:20Z</time>
      </trkpt>
      <trkpt lat="45.83236" lon="4.24407">
        <ele>547.074</ele>
        <time>2018-11-05T13:57:26Z</time>
      </trkpt>
      <trkpt lat="45.8323" lon="4.24402">
        <ele>547.379</ele>
        <time>2018-11-05T13:57:32Z</time>
      </trkpt>
      <trkpt lat="45.83224" lon="4.24398">
        <ele>547.44</ele>
        <time>2018-11-05T13:57:37Z</time>
      </trkpt>
      <trkpt lat="45.83219" lon="4.24392">
        <ele>547.673</ele>
        <time>2018-11-05T13:57:43Z</time>
      </trkpt>
      <trkpt lat="45.83212" lon="4.24385">
        <ele>547.862</ele>
        <time>2018-11-05T13:57:49Z</time>
      </trkpt>
      <trkpt lat="45.83207" lon="4.24381">
        <ele>547.833</ele>
        <time>2018-11-05T13:57:54Z</time>
      </trkpt>
      <trkpt lat="45.83201" lon="4.24374">
        <ele>548.109</ele>
        <time>2018-11-05T13:58:00Z</time>
      </trkpt>
      <trkpt lat="45.83194" lon="4.24368">
        <ele>548.383</ele>
        <time>2018-11-05T13:58:05Z</time>
      </trkpt>
      <trkpt lat="45.83187" lon="4.24363">
        <ele>548.86</ele>
        <time>2018-11-05T13:58:11Z</time>
      </trkpt>
      <trkpt lat="45.83181" lon="4.24358">
        <ele>548.994</ele>
        <time>2018-11-05T13:58:16Z</time>
      </trkpt>
      <trkpt lat="45.83173" lon="4.24356">
        <ele>549.405</ele>
        <time>2018-11-05T13:58:22Z</time>
      </trkpt>
      <trkpt lat="45.83168" lon="4.24351">
        <ele>549.709</ele>
        <time>2018-11-05T13:58:27Z</time>
      </trkpt>
      <trkpt lat="45.83161" lon="4.24347">
        <ele>550.25</ele>
        <time>2018-11-05T13:58:33Z</time>
      </trkpt>
      <trkpt lat="45.83155" lon="4.24344">
        <ele>550.633</ele>
        <time>2018-11-05T13:58:38Z</time>
      </trkpt>
      <trkpt lat="45.83148" lon="4.24339">
        <ele>551.151</ele>
        <time>2018-11-05T13:58:44Z</time>
      </trkpt>
      <trkpt lat="45.8314" lon="4.24334">
        <ele>551.175</ele>
        <time>2018-11-05T13:58:50Z</time>
      </trkpt>
      <trkpt lat="45.83133" lon="4.24331">
        <ele>551.102</ele>
        <time>2018-11-05T13:58:56Z</time>
      </trkpt>
      <trkpt lat="45.83126" lon="4.24325">
        <ele>551.415</ele>
        <time>2018-11-05T13:59:02Z</time>
      </trkpt>
      <trkpt lat="45.8312" lon="4.24323">
        <ele>551.68</ele>
        <time>2018-11-05T13:59:08Z</time>
      </trkpt>
      <trkpt lat="45.83113" lon="4.24316">
        <ele>551.864</ele>
        <time>2018-11-05T13:59:14Z</time>
      </trkpt>
      <trkpt lat="45.83107" lon="4.24312">
        <ele>552.08</ele>
        <time>2018-11-05T13:59:20Z</time>
      </trkpt>
      <trkpt lat="45.831" lon="4.24307">
        <ele>552.334</ele>
        <time>2018-11-05T13:59:25Z</time>
      </trkpt>
      <trkpt lat="45.83095" lon="4.24302">
        <ele>552.529</ele>
        <time>2018-11-05T13:59:30Z</time>
      </trkpt>
      <trkpt lat="45.83089" lon="4.24297">
        <ele>552.413</ele>
        <time>2018-11-05T13:59:36Z</time>
      </trkpt>
      <trkpt lat="45.83083" lon="4.24293">
        <ele>552.195</ele>
        <time>2018-11-05T13:59:42Z</time>
      </trkpt>
      <trkpt lat="45.83076" lon="4.24288">
        <ele>552.181</ele>
        <time>2018-11-05T13:59:47Z</time>
      </trkpt>
      <trkpt lat="45.83072" lon="4.24283">
        <ele>552.09</ele>
        <time>2018-11-05T13:59:52Z</time>
      </trkpt>
      <trkpt lat="45.83065" lon="4.24278">
        <ele>551.896</ele>
        <time>2018-11-05T13:59:58Z</time>
      </trkpt>
      <trkpt lat="45.83057" lon="4.24274">
        <ele>551.808</ele>
        <time>2018-11-05T14:00:03Z</time>
      </trkpt>
      <trkpt lat="45.83049" lon="4.24273">
        <ele>552.143</ele>
        <time>2018-11-05T14:00:09Z</time>
      </trkpt>
      <trkpt lat="45.83042" lon="4.24273">
        <ele>552.173</ele>
        <time>2018-11-05T14:00:14Z</time>
      </trkpt>
      <trkpt lat="45.83033" lon="4.24277">
        <ele>552.575</ele>
        <time>2018-11-05T14:00:20Z</time>
      </trkpt>
      <trkpt lat="45.83027" lon="4.24281">
        <ele>553.262</ele>
        <time>2018-11-05T14:00:26Z</time>
      </trkpt>
      <trkpt lat="45.83022" lon="4.24289">
        <ele>553.795</ele>
        <time>2018-11-05T14:00:32Z</time>
      </trkpt>
      <trkpt lat="45.83016" lon="4.24286">
        <ele>554.223</ele>
        <time>2018-11-05T14:00:37Z</time>
      </trkpt>
      <trkpt lat="45.83012" lon="4.24281">
        <ele>554.775</ele>
        <time>2018-11-05T14:00:43Z</time>
      </trkpt>
      <trkpt lat="45.83009" lon="4.24276">
        <ele>555.118</ele>
        <time>2018-11-05T14:00:48Z</time>
      </trkpt>
      <trkpt lat="45.83007" lon="4.24269">
        <ele>555.834</ele>
        <time>2018-11-05T14:00:54Z</time>
      </trkpt>
      <trkpt lat="45.83009" lon="4.24268">
        <ele>556.132</ele>
        <time>2018-11-05T14:01:00Z</time>
      </trkpt>
      <trkpt lat="45.8301" lon="4.24267">
        <ele>556.244</ele>
        <time>2018-11-05T14:01:05Z</time>
      </trkpt>
      <trkpt lat="45.8301" lon="4.24267">
        <ele>556.156</ele>
        <time>2018-11-05T14:01:10Z</time>
      </trkpt>
      <trkpt lat="45.83009" lon="4.24267">
        <ele>555.915</ele>
        <time>2018-11-05T14:01:16Z</time>
      </trkpt>
      <trkpt lat="45.8301" lon="4.24268">
        <ele>555.878</ele>
        <time>2018-11-05T14:01:22Z</time>
      </trkpt>
      <trkpt lat="45.8301" lon="4.2427">
        <ele>555.765</ele>
        <time>2018-11-05T14:01:28Z</time>
      </trkpt>
      <trkpt lat="45.8301" lon="4.24271">
        <ele>555.722</ele>
        <time>2018-11-05T14:01:33Z</time>
      </trkpt>
      <trkpt lat="45.8301" lon="4.24273">
        <ele>555.66</ele>
        <time>2018-11-05T14:01:39Z</time>
      </trkpt>
      <trkpt lat="45.83008" lon="4.24274">
        <ele>555.644</ele>
        <time>2018-11-05T14:01:44Z</time>
      </trkpt>
      <trkpt lat="45.83007" lon="4.24275">
        <ele>555.647</ele>
        <time>2018-11-05T14:01:50Z</time>
      </trkpt>
      <trkpt lat="45.83008" lon="4.24273">
        <ele>555.622</ele>
        <time>2018-11-05T14:01:56Z</time>
      </trkpt>
      <trkpt lat="45.83008" lon="4.24271">
        <ele>555.603</ele>
        <time>2018-11-05T14:02:02Z</time>
      </trkpt>
      <trkpt lat="45.83008" lon="4.24269">
        <ele>555.581</ele>
        <time>2018-11-05T14:02:07Z</time>
      </trkpt>
      <trkpt lat="45.83008" lon="4.24269">
        <ele>555.541</ele>
        <time>2018-11-05T14:02:13Z</time>
      </trkpt>
      <trkpt lat="45.83008" lon="4.24269">
        <ele>555.487</ele>
        <time>2018-11-05T14:02:19Z</time>
      </trkpt>
      <trkpt lat="45.83009" lon="4.24271">
        <ele>555.439</ele>
        <time>2018-11-05T14:02:24Z</time>
      </trkpt>
      <trkpt lat="45.83009" lon="4.24271">
        <ele>555.384</ele>
        <time>2018-11-05T14:02:30Z</time>
      </trkpt>
      <trkpt lat="45.83009" lon="4.24269">
        <ele>555.36</ele>
        <time>2018-11-05T14:02:36Z</time>
      </trkpt>
      <trkpt lat="45.83009" lon="4.24268">
        <ele>555.338</ele>
        <time>2018-11-05T14:02:41Z</time>
      </trkpt>
      <trkpt lat="45.83009" lon="4.24268">
        <ele>555.323</ele>
        <time>2018-11-05T14:02:47Z</time>
      </trkpt>
      <trkpt lat="45.83008" lon="4.24269">
        <ele>555.299</ele>
        <time>2018-11-05T14:02:53Z</time>
      </trkpt>
      <trkpt lat="45.83008" lon="4.24271">
        <ele>555.266</ele>
        <time>2018-11-05T14:02:58Z</time>
      </trkpt>
      <trkpt lat="45.83008" lon="4.2427">
        <ele>555.261</ele>
        <time>2018-11-05T14:03:04Z</time>
      </trkpt>
      <trkpt lat="45.83008" lon="4.24268">
        <ele>555.419</ele>
        <time>2018-11-05T14:03:10Z</time>
      </trkpt>
      <trkpt lat="45.83009" lon="4.24269">
        <ele>556.04</ele>
        <time>2018-11-05T14:03:15Z</time>
      </trkpt>
      <trkpt lat="45.8301" lon="4.24273">
        <ele>557.161</ele>
        <time>2018-11-05T14:03:21Z</time>
      </trkpt>
      <trkpt lat="45.83011" lon="4.24277">
        <ele>557.776</ele>
        <time>2018-11-05T14:03:26Z</time>
      </trkpt>
      <trkpt lat="45.83012" lon="4.24282">
        <ele>558.252</ele>
        <time>2018-11-05T14:03:32Z</time>
      </trkpt>
      <trkpt lat="45.83012" lon="4.24285">
        <ele>558.727</ele>
        <time>2018-11-05T14:03:38Z</time>
      </trkpt>
      <trkpt lat="45.83013" lon="4.24285">
        <ele>559.151</ele>
        <time>2018-11-05T14:03:43Z</time>
      </trkpt>
      <trkpt lat="45.83012" lon="4.24284">
        <ele>559.192</ele>
        <time>2018-11-05T14:03:49Z</time>
      </trkpt>
      <trkpt lat="45.83012" lon="4.24283">
        <ele>559.16</ele>
        <time>2018-11-05T14:03:54Z</time>
      </trkpt>
      <trkpt lat="45.83012" lon="4.24286">
        <ele>559.179</ele>
        <time>2018-11-05T14:04:00Z</time>
      </trkpt>
      <trkpt lat="45.83011" lon="4.24288">
        <ele>559.216</ele>
        <time>2018-11-05T14:04:05Z</time>
      </trkpt>
      <trkpt lat="45.83008" lon="4.24292">
        <ele>558.977</ele>
        <time>2018-11-05T14:04:10Z</time>
      </trkpt>
      <trkpt lat="45.83006" lon="4.24296">
        <ele>558.313</ele>
        <time>2018-11-05T14:04:16Z</time>
      </trkpt>
      <trkpt lat="45.83004" lon="4.24299">
        <ele>557.709</ele>
        <time>2018-11-05T14:04:21Z</time>
      </trkpt>
      <trkpt lat="45.82999" lon="4.24304">
        <ele>556.965</ele>
        <time>2018-11-05T14:04:27Z</time>
      </trkpt>
      <trkpt lat="45.82997" lon="4.24306">
        <ele>555.991</ele>
        <time>2018-11-05T14:04:32Z</time>
      </trkpt>
      <trkpt lat="45.82993" lon="4.24311">
        <ele>555.085</ele>
        <time>2018-11-05T14:04:38Z</time>
      </trkpt>
      <trkpt lat="45.8299" lon="4.24314">
        <ele>554.442</ele>
        <time>2018-11-05T14:04:43Z</time>
      </trkpt>
      <trkpt lat="45.82983" lon="4.24318">
        <ele>553.655</ele>
        <time>2018-11-05T14:04:49Z</time>
      </trkpt>
      <trkpt lat="45.82977" lon="4.24321">
        <ele>553.024</ele>
        <time>2018-11-05T14:04:54Z</time>
      </trkpt>
      <trkpt lat="45.82972" lon="4.24323">
        <ele>552.231</ele>
        <time>2018-11-05T14:05:00Z</time>
      </trkpt>
      <trkpt lat="45.82967" lon="4.24322">
        <ele>551.391</ele>
        <time>2018-11-05T14:05:06Z</time>
      </trkpt>
      <trkpt lat="45.8296" lon="4.24323">
        <ele>551.145</ele>
        <time>2018-11-05T14:05:11Z</time>
      </trkpt>
      <trkpt lat="45.82954" lon="4.24324">
        <ele>550.354</ele>
        <time>2018-11-05T14:05:17Z</time>
      </trkpt>
      <trkpt lat="45.82948" lon="4.24323">
        <ele>549.855</ele>
        <time>2018-11-05T14:05:22Z</time>
      </trkpt>
      <trkpt lat="45.82939" lon="4.24325">
        <ele>549.598</ele>
        <time>2018-11-05T14:05:28Z</time>
      </trkpt>
      <trkpt lat="45.82933" lon="4.24327">
        <ele>549.296</ele>
        <time>2018-11-05T14:05:34Z</time>
      </trkpt>
      <trkpt lat="45.82927" lon="4.24329">
        <ele>548.79</ele>
        <time>2018-11-05T14:05:40Z</time>
      </trkpt>
      <trkpt lat="45.82922" lon="4.24328">
        <ele>548.342</ele>
        <time>2018-11-05T14:05:45Z</time>
      </trkpt>
      <trkpt lat="45.82917" lon="4.24327">
        <ele>548.202</ele>
        <time>2018-11-05T14:05:51Z</time>
      </trkpt>
      <trkpt lat="45.82915" lon="4.24325">
        <ele>548.134</ele>
        <time>2018-11-05T14:05:56Z</time>
      </trkpt>
      <trkpt lat="45.82914" lon="4.24323">
        <ele>547.855</ele>
        <time>2018-11-05T14:06:02Z</time>
      </trkpt>
      <trkpt lat="45.82914" lon="4.24324">
        <ele>547.247</ele>
        <time>2018-11-05T14:06:07Z</time>
      </trkpt>
      <trkpt lat="45.82913" lon="4.24324">
        <ele>546.41</ele>
        <time>2018-11-05T14:06:13Z</time>
      </trkpt>
      <trkpt lat="45.82912" lon="4.24325">
        <ele>545.733</ele>
        <time>2018-11-05T14:06:18Z</time>
      </trkpt>
      <trkpt lat="45.82909" lon="4.24326">
        <ele>545.662</ele>
        <time>2018-11-05T14:06:24Z</time>
      </trkpt>
      <trkpt lat="45.82903" lon="4.24325">
        <ele>545.814</ele>
        <time>2018-11-05T14:06:30Z</time>
      </trkpt>
      <trkpt lat="45.82899" lon="4.24324">
        <ele>545.621</ele>
        <time>2018-11-05T14:06:35Z</time>
      </trkpt>
      <trkpt lat="45.82895" lon="4.2432">
        <ele>545.158</ele>
        <time>2018-11-05T14:06:41Z</time>
      </trkpt>
      <trkpt lat="45.82891" lon="4.24318">
        <ele>544.859</ele>
        <time>2018-11-05T14:06:46Z</time>
      </trkpt>
      <trkpt lat="45.82886" lon="4.24316">
        <ele>544.808</ele>
        <time>2018-11-05T14:06:52Z</time>
      </trkpt>
      <trkpt lat="45.82884" lon="4.24314">
        <ele>543.951</ele>
        <time>2018-11-05T14:06:57Z</time>
      </trkpt>
      <trkpt lat="45.82881" lon="4.24306">
        <ele>543.241</ele>
        <time>2018-11-05T14:07:03Z</time>
      </trkpt>
      <trkpt lat="45.82879" lon="4.24301">
        <ele>542.92</ele>
        <time>2018-11-05T14:07:08Z</time>
      </trkpt>
      <trkpt lat="45.82877" lon="4.24293">
        <ele>542.793</ele>
        <time>2018-11-05T14:07:14Z</time>
      </trkpt>
      <trkpt lat="45.82878" lon="4.24288">
        <ele>542.838</ele>
        <time>2018-11-05T14:07:20Z</time>
      </trkpt>
      <trkpt lat="45.82876" lon="4.24283">
        <ele>542.695</ele>
        <time>2018-11-05T14:07:26Z</time>
      </trkpt>
      <trkpt lat="45.82877" lon="4.24278">
        <ele>542.298</ele>
        <time>2018-11-05T14:07:32Z</time>
      </trkpt>
      <trkpt lat="45.82876" lon="4.24273">
        <ele>541.964</ele>
        <time>2018-11-05T14:07:38Z</time>
      </trkpt>
      <trkpt lat="45.82874" lon="4.24266">
        <ele>541.827</ele>
        <time>2018-11-05T14:07:43Z</time>
      </trkpt>
      <trkpt lat="45.82872" lon="4.24259">
        <ele>541.371</ele>
        <time>2018-11-05T14:07:48Z</time>
      </trkpt>
      <trkpt lat="45.82871" lon="4.24253">
        <ele>540.673</ele>
        <time>2018-11-05T14:07:54Z</time>
      </trkpt>
      <trkpt lat="45.82871" lon="4.24249">
        <ele>540.072</ele>
        <time>2018-11-05T14:08:00Z</time>
      </trkpt>
      <trkpt lat="45.82871" lon="4.24248">
        <ele>539.517</ele>
        <time>2018-11-05T14:08:06Z</time>
      </trkpt>
      <trkpt lat="45.82872" lon="4.24249">
        <ele>539.359</ele>
        <time>2018-11-05T14:08:12Z</time>
      </trkpt>
      <trkpt lat="45.82872" lon="4.24245">
        <ele>538.776</ele>
        <time>2018-11-05T14:08:17Z</time>
      </trkpt>
      <trkpt lat="45.82873" lon="4.24239">
        <ele>538.295</ele>
        <time>2018-11-05T14:08:22Z</time>
      </trkpt>
      <trkpt lat="45.82872" lon="4.24231">
        <ele>537.551</ele>
        <time>2018-11-05T14:08:28Z</time>
      </trkpt>
      <trkpt lat="45.8287" lon="4.24224">
        <ele>536.476</ele>
        <time>2018-11-05T14:08:34Z</time>
      </trkpt>
      <trkpt lat="45.82871" lon="4.24218">
        <ele>535.497</ele>
        <time>2018-11-05T14:08:40Z</time>
      </trkpt>
      <trkpt lat="45.82871" lon="4.24216">
        <ele>534.855</ele>
        <time>2018-11-05T14:08:45Z</time>
      </trkpt>
      <trkpt lat="45.8287" lon="4.24213">
        <ele>534.135</ele>
        <time>2018-11-05T14:08:51Z</time>
      </trkpt>
      <trkpt lat="45.8287" lon="4.24212">
        <ele>533.45</ele>
        <time>2018-11-05T14:08:56Z</time>
      </trkpt>
      <trkpt lat="45.8287" lon="4.24209">
        <ele>532.767</ele>
        <time>2018-11-05T14:09:02Z</time>
      </trkpt>
      <trkpt lat="45.8287" lon="4.24209">
        <ele>532.551</ele>
        <time>2018-11-05T14:09:07Z</time>
      </trkpt>
      <trkpt lat="45.8287" lon="4.24204">
        <ele>532.123</ele>
        <time>2018-11-05T14:09:13Z</time>
      </trkpt>
      <trkpt lat="45.82869" lon="4.24203">
        <ele>531.618</ele>
        <time>2018-11-05T14:09:19Z</time>
      </trkpt>
      <trkpt lat="45.8287" lon="4.24202">
        <ele>531.022</ele>
        <time>2018-11-05T14:09:25Z</time>
      </trkpt>
      <trkpt lat="45.8287" lon="4.24203">
        <ele>530.646</ele>
        <time>2018-11-05T14:09:30Z</time>
      </trkpt>
      <trkpt lat="45.82869" lon="4.24203">
        <ele>530.419</ele>
        <time>2018-11-05T14:09:35Z</time>
      </trkpt>
      <trkpt lat="45.82869" lon="4.24202">
        <ele>530.44</ele>
        <time>2018-11-05T14:09:41Z</time>
      </trkpt>
      <trkpt lat="45.8287" lon="4.24203">
        <ele>529.92</ele>
        <time>2018-11-05T14:09:47Z</time>
      </trkpt>
      <trkpt lat="45.82869" lon="4.24201">
        <ele>528.925</ele>
        <time>2018-11-05T14:09:53Z</time>
      </trkpt>
      <trkpt lat="45.82868" lon="4.24197">
        <ele>527.889</ele>
        <time>2018-11-05T14:09:58Z</time>
      </trkpt>
      <trkpt lat="45.82867" lon="4.24195">
        <ele>526.642</ele>
        <time>2018-11-05T14:10:04Z</time>
      </trkpt>
      <trkpt lat="45.82864" lon="4.24193">
        <ele>525.536</ele>
        <time>2018-11-05T14:10:10Z</time>
      </trkpt>
      <trkpt lat="45.8286" lon="4.24189">
        <ele>524.591</ele>
        <time>2018-11-05T14:10:15Z</time>
      </trkpt>
      <trkpt lat="45.82854" lon="4.2419">
        <ele>523.403</ele>
        <time>2018-11-05T14:10:20Z</time>
      </trkpt>
      <trkpt lat="45.82848" lon="4.24185">
        <ele>522.704</ele>
        <time>2018-11-05T14:10:26Z</time>
      </trkpt>
      <trkpt lat="45.82845" lon="4.24181">
        <ele>522.388</ele>
        <time>2018-11-05T14:10:31Z</time>
      </trkpt>
      <trkpt lat="45.82843" lon="4.24178">
        <ele>521.272</ele>
        <time>2018-11-05T14:10:37Z</time>
      </trkpt>
      <trkpt lat="45.8284" lon="4.24179">
        <ele>520.169</ele>
        <time>2018-11-05T14:10:43Z</time>
      </trkpt>
      <trkpt lat="45.82839" lon="4.24179">
        <ele>519.545</ele>
        <time>2018-11-05T14:10:49Z</time>
      </trkpt>
      <trkpt lat="45.82839" lon="4.24176">
        <ele>518.92</ele>
        <time>2018-11-05T14:10:54Z</time>
      </trkpt>
      <trkpt lat="45.82838" lon="4.24172">
        <ele>517.954</ele>
        <time>2018-11-05T14:11:00Z</time>
      </trkpt>
      <trkpt lat="45.82834" lon="4.24165">
        <ele>517.35</ele>
        <time>2018-11-05T14:11:05Z</time>
      </trkpt>
      <trkpt lat="45.82832" lon="4.24155">
        <ele>516.777</ele>
        <time>2018-11-05T14:11:11Z</time>
      </trkpt>
      <trkpt lat="45.8283" lon="4.24151">
        <ele>516.163</ele>
        <time>2018-11-05T14:11:17Z</time>
      </trkpt>
      <trkpt lat="45.82829" lon="4.24145">
        <ele>515.427</ele>
        <time>2018-11-05T14:11:22Z</time>
      </trkpt>
      <trkpt lat="45.82828" lon="4.24142">
        <ele>515.592</ele>
        <time>2018-11-05T14:11:28Z</time>
      </trkpt>
      <trkpt lat="45.82826" lon="4.2414">
        <ele>515.78</ele>
        <time>2018-11-05T14:11:33Z</time>
      </trkpt>
      <trkpt lat="45.82826" lon="4.24141">
        <ele>515.784</ele>
        <time>2018-11-05T14:11:39Z</time>
      </trkpt>
      <trkpt lat="45.82827" lon="4.24141">
        <ele>515.965</ele>
        <time>2018-11-05T14:11:44Z</time>
      </trkpt>
      <trkpt lat="45.82825" lon="4.24141">
        <ele>517.312</ele>
        <time>2018-11-05T14:11:50Z</time>
      </trkpt>
      <trkpt lat="45.82825" lon="4.24141">
        <ele>517.949</ele>
        <time>2018-11-05T14:11:55Z</time>
      </trkpt>
      <trkpt lat="45.82825" lon="4.24139">
        <ele>518.766</ele>
        <time>2018-11-05T14:12:01Z</time>
      </trkpt>
      <trkpt lat="45.82826" lon="4.2414">
        <ele>519.119</ele>
        <time>2018-11-05T14:12:07Z</time>
      </trkpt>
      <trkpt lat="45.82827" lon="4.24142">
        <ele>518.893</ele>
        <time>2018-11-05T14:12:12Z</time>
      </trkpt>
      <trkpt lat="45.82827" lon="4.24141">
        <ele>518.185</ele>
        <time>2018-11-05T14:12:17Z</time>
      </trkpt>
      <trkpt lat="45.82828" lon="4.2414">
        <ele>519.074</ele>
        <time>2018-11-05T14:12:23Z</time>
      </trkpt>
      <trkpt lat="45.82826" lon="4.24138">
        <ele>520.245</ele>
        <time>2018-11-05T14:12:29Z</time>
      </trkpt>
      <trkpt lat="45.82825" lon="4.24137">
        <ele>520.501</ele>
        <time>2018-11-05T14:12:34Z</time>
      </trkpt>
      <trkpt lat="45.82822" lon="4.24135">
        <ele>520.059</ele>
        <time>2018-11-05T14:12:40Z</time>
      </trkpt>
      <trkpt lat="45.82821" lon="4.24132">
        <ele>519.746</ele>
        <time>2018-11-05T14:12:45Z</time>
      </trkpt>
      <trkpt lat="45.82818" lon="4.24128">
        <ele>519.041</ele>
        <time>2018-11-05T14:12:50Z</time>
      </trkpt>
      <trkpt lat="45.82815" lon="4.24127">
        <ele>518.85</ele>
        <time>2018-11-05T14:12:55Z</time>
      </trkpt>
      <trkpt lat="45.82813" lon="4.24124">
        <ele>518.492</ele>
        <time>2018-11-05T14:13:01Z</time>
      </trkpt>
      <trkpt lat="45.82812" lon="4.24123">
        <ele>518.532</ele>
        <time>2018-11-05T14:13:07Z</time>
      </trkpt>
      <trkpt lat="45.82811" lon="4.24123">
        <ele>519.177</ele>
        <time>2018-11-05T14:13:12Z</time>
      </trkpt>
      <trkpt lat="45.8281" lon="4.24122">
        <ele>519.871</ele>
        <time>2018-11-05T14:13:18Z</time>
      </trkpt>
      <trkpt lat="45.82809" lon="4.24123">
        <ele>520.117</ele>
        <time>2018-11-05T14:13:24Z</time>
      </trkpt>
      <trkpt lat="45.82809" lon="4.24123">
        <ele>520.569</ele>
        <time>2018-11-05T14:13:29Z</time>
      </trkpt>
      <trkpt lat="45.82808" lon="4.24121">
        <ele>521.379</ele>
        <time>2018-11-05T14:13:34Z</time>
      </trkpt>
      <trkpt lat="45.82807" lon="4.2412">
        <ele>521.814</ele>
        <time>2018-11-05T14:13:40Z</time>
      </trkpt>
      <trkpt lat="45.82806" lon="4.24118">
        <ele>521.645</ele>
        <time>2018-11-05T14:13:45Z</time>
      </trkpt>
      <trkpt lat="45.82804" lon="4.24111">
        <ele>521.545</ele>
        <time>2018-11-05T14:13:50Z</time>
      </trkpt>
      <trkpt lat="45.82799" lon="4.24101">
        <ele>521.652</ele>
        <time>2018-11-05T14:13:56Z</time>
      </trkpt>
      <trkpt lat="45.82797" lon="4.24092">
        <ele>522.36</ele>
        <time>2018-11-05T14:14:02Z</time>
      </trkpt>
      <trkpt lat="45.82792" lon="4.24082">
        <ele>522.992</ele>
        <time>2018-11-05T14:14:08Z</time>
      </trkpt>
      <trkpt lat="45.8279" lon="4.24075">
        <ele>523.313</ele>
        <time>2018-11-05T14:14:13Z</time>
      </trkpt>
      <trkpt lat="45.82786" lon="4.24069">
        <ele>523.522</ele>
        <time>2018-11-05T14:14:18Z</time>
      </trkpt>
      <trkpt lat="45.82779" lon="4.24059">
        <ele>524.295</ele>
        <time>2018-11-05T14:14:24Z</time>
      </trkpt>
      <trkpt lat="45.82773" lon="4.24057">
        <ele>525.321</ele>
        <time>2018-11-05T14:14:30Z</time>
      </trkpt>
      <trkpt lat="45.82767" lon="4.24058">
        <ele>526.206</ele>
        <time>2018-11-05T14:14:36Z</time>
      </trkpt>
      <trkpt lat="45.82761" lon="4.24057">
        <ele>526.693</ele>
        <time>2018-11-05T14:14:41Z</time>
      </trkpt>
      <trkpt lat="45.82753" lon="4.24056">
        <ele>527.426</ele>
        <time>2018-11-05T14:14:47Z</time>
      </trkpt>
      <trkpt lat="45.82749" lon="4.24056">
        <ele>528.352</ele>
        <time>2018-11-05T14:14:52Z</time>
      </trkpt>
      <trkpt lat="45.82746" lon="4.24055">
        <ele>529.09</ele>
        <time>2018-11-05T14:14:57Z</time>
      </trkpt>
      <trkpt lat="45.82743" lon="4.24053">
        <ele>530.553</ele>
        <time>2018-11-05T14:15:03Z</time>
      </trkpt>
      <trkpt lat="45.82736" lon="4.24052">
        <ele>532.056</ele>
        <time>2018-11-05T14:15:09Z</time>
      </trkpt>
      <trkpt lat="45.82734" lon="4.24052">
        <ele>532.573</ele>
        <time>2018-11-05T14:15:15Z</time>
      </trkpt>
      <trkpt lat="45.82733" lon="4.24051">
        <ele>532.609</ele>
        <time>2018-11-05T14:15:20Z</time>
      </trkpt>
      <trkpt lat="45.82729" lon="4.2405">
        <ele>533.108</ele>
        <time>2018-11-05T14:15:25Z</time>
      </trkpt>
      <trkpt lat="45.82726" lon="4.2405">
        <ele>533.85</ele>
        <time>2018-11-05T14:15:31Z</time>
      </trkpt>
      <trkpt lat="45.82723" lon="4.24051">
        <ele>534.38</ele>
        <time>2018-11-05T14:15:36Z</time>
      </trkpt>
      <trkpt lat="45.82718" lon="4.24052">
        <ele>534.706</ele>
        <time>2018-11-05T14:15:42Z</time>
      </trkpt>
      <trkpt lat="45.82716" lon="4.24053">
        <ele>535.331</ele>
        <time>2018-11-05T14:15:47Z</time>
      </trkpt>
      <trkpt lat="45.82713" lon="4.24053">
        <ele>535.538</ele>
        <time>2018-11-05T14:15:53Z</time>
      </trkpt>
      <trkpt lat="45.82708" lon="4.24054">
        <ele>535.706</ele>
        <time>2018-11-05T14:15:58Z</time>
      </trkpt>
      <trkpt lat="45.82703" lon="4.24056">
        <ele>535.875</ele>
        <time>2018-11-05T14:16:04Z</time>
      </trkpt>
      <trkpt lat="45.827" lon="4.24055">
        <ele>536.522</ele>
        <time>2018-11-05T14:16:09Z</time>
      </trkpt>
      <trkpt lat="45.82696" lon="4.24053">
        <ele>537.252</ele>
        <time>2018-11-05T14:16:15Z</time>
      </trkpt>
      <trkpt lat="45.82693" lon="4.24053">
        <ele>537.899</ele>
        <time>2018-11-05T14:16:21Z</time>
      </trkpt>
      <trkpt lat="45.82687" lon="4.24051">
        <ele>539.217</ele>
        <time>2018-11-05T14:16:27Z</time>
      </trkpt>
      <trkpt lat="45.82683" lon="4.2405">
        <ele>540.295</ele>
        <time>2018-11-05T14:16:32Z</time>
      </trkpt>
      <trkpt lat="45.82678" lon="4.24048">
        <ele>541.175</ele>
        <time>2018-11-05T14:16:37Z</time>
      </trkpt>
      <trkpt lat="45.82674" lon="4.24048">
        <ele>542.187</ele>
        <time>2018-11-05T14:16:43Z</time>
      </trkpt>
      <trkpt lat="45.82671" lon="4.24047">
        <ele>542.937</ele>
        <time>2018-11-05T14:16:48Z</time>
      </trkpt>
      <trkpt lat="45.82666" lon="4.24046">
        <ele>543.956</ele>
        <time>2018-11-05T14:16:54Z</time>
      </trkpt>
      <trkpt lat="45.82661" lon="4.24045">
        <ele>544.743</ele>
        <time>2018-11-05T14:17:00Z</time>
      </trkpt>
      <trkpt lat="45.82656" lon="4.24044">
        <ele>545.318</ele>
        <time>2018-11-05T14:17:05Z</time>
      </trkpt>
      <trkpt lat="45.82651" lon="4.24044">
        <ele>546.043</ele>
        <time>2018-11-05T14:17:11Z</time>
      </trkpt>
      <trkpt lat="45.82648" lon="4.24043">
        <ele>546.534</ele>
        <time>2018-11-05T14:17:16Z</time>
      </trkpt>
      <trkpt lat="45.82643" lon="4.24041">
        <ele>547.012</ele>
        <time>2018-11-05T14:17:22Z</time>
      </trkpt>
      <trkpt lat="45.8264" lon="4.24043">
        <ele>547.643</ele>
        <time>2018-11-05T14:17:28Z</time>
      </trkpt>
      <trkpt lat="45.82634" lon="4.24042">
        <ele>548.424</ele>
        <time>2018-11-05T14:17:33Z</time>
      </trkpt>
      <trkpt lat="45.82628" lon="4.24041">
        <ele>549.55</ele>
        <time>2018-11-05T14:17:39Z</time>
      </trkpt>
      <trkpt lat="45.82623" lon="4.2404">
        <ele>550.731</ele>
        <time>2018-11-05T14:17:45Z</time>
      </trkpt>
      <trkpt lat="45.82618" lon="4.24042">
        <ele>551.668</ele>
        <time>2018-11-05T14:17:50Z</time>
      </trkpt>
      <trkpt lat="45.8261" lon="4.24039">
        <ele>552.301</ele>
        <time>2018-11-05T14:17:56Z</time>
      </trkpt>
      <trkpt lat="45.82604" lon="4.24038">
        <ele>553.16</ele>
        <time>2018-11-05T14:18:02Z</time>
      </trkpt>
      <trkpt lat="45.82599" lon="4.24036">
        <ele>553.879</ele>
        <time>2018-11-05T14:18:07Z</time>
      </trkpt>
      <trkpt lat="45.82594" lon="4.24035">
        <ele>554.552</ele>
        <time>2018-11-05T14:18:12Z</time>
      </trkpt>
      <trkpt lat="45.8259" lon="4.24034">
        <ele>554.959</ele>
        <time>2018-11-05T14:18:17Z</time>
      </trkpt>
      <trkpt lat="45.82587" lon="4.24033">
        <ele>555.751</ele>
        <time>2018-11-05T14:18:23Z</time>
      </trkpt>
      <trkpt lat="45.82581" lon="4.2403">
        <ele>556.505</ele>
        <time>2018-11-05T14:18:29Z</time>
      </trkpt>
      <trkpt lat="45.82576" lon="4.24029">
        <ele>557.072</ele>
        <time>2018-11-05T14:18:35Z</time>
      </trkpt>
      <trkpt lat="45.82571" lon="4.24029">
        <ele>557.624</ele>
        <time>2018-11-05T14:18:41Z</time>
      </trkpt>
      <trkpt lat="45.82566" lon="4.24028">
        <ele>557.899</ele>
        <time>2018-11-05T14:18:46Z</time>
      </trkpt>
      <trkpt lat="45.82562" lon="4.24026">
        <ele>557.953</ele>
        <time>2018-11-05T14:18:51Z</time>
      </trkpt>
      <trkpt lat="45.82558" lon="4.24025">
        <ele>557.884</ele>
        <time>2018-11-05T14:18:57Z</time>
      </trkpt>
      <trkpt lat="45.82556" lon="4.24024">
        <ele>557.844</ele>
        <time>2018-11-05T14:19:02Z</time>
      </trkpt>
      <trkpt lat="45.82553" lon="4.24026">
        <ele>557.943</ele>
        <time>2018-11-05T14:19:08Z</time>
      </trkpt>
      <trkpt lat="45.82553" lon="4.24027">
        <ele>558.188</ele>
        <time>2018-11-05T14:19:13Z</time>
      </trkpt>
      <trkpt lat="45.82552" lon="4.24027">
        <ele>558.836</ele>
        <time>2018-11-05T14:19:18Z</time>
      </trkpt>
      <trkpt lat="45.82552" lon="4.24026">
        <ele>559.327</ele>
        <time>2018-11-05T14:19:23Z</time>
      </trkpt>
      <trkpt lat="45.82553" lon="4.24028">
        <ele>559.285</ele>
        <time>2018-11-05T14:19:29Z</time>
      </trkpt>
      <trkpt lat="45.82553" lon="4.24029">
        <ele>559.254</ele>
        <time>2018-11-05T14:19:34Z</time>
      </trkpt>
      <trkpt lat="45.82552" lon="4.24027">
        <ele>559.192</ele>
        <time>2018-11-05T14:19:40Z</time>
      </trkpt>
      <trkpt lat="45.82552" lon="4.24025">
        <ele>559.181</ele>
        <time>2018-11-05T14:19:45Z</time>
      </trkpt>
      <trkpt lat="45.82552" lon="4.24025">
        <ele>559.591</ele>
        <time>2018-11-05T14:19:51Z</time>
      </trkpt>
      <trkpt lat="45.82551" lon="4.24025">
        <ele>560.417</ele>
        <time>2018-11-05T14:19:56Z</time>
      </trkpt>
      <trkpt lat="45.8255" lon="4.24026">
        <ele>561.136</ele>
        <time>2018-11-05T14:20:02Z</time>
      </trkpt>
      <trkpt lat="45.8255" lon="4.24028">
        <ele>561.621</ele>
        <time>2018-11-05T14:20:08Z</time>
      </trkpt>
      <trkpt lat="45.8255" lon="4.24029">
        <ele>561.978</ele>
        <time>2018-11-05T14:20:14Z</time>
      </trkpt>
      <trkpt lat="45.82551" lon="4.24028">
        <ele>562.098</ele>
        <time>2018-11-05T14:20:19Z</time>
      </trkpt>
      <trkpt lat="45.82552" lon="4.24027">
        <ele>562.096</ele>
        <time>2018-11-05T14:20:24Z</time>
      </trkpt>
      <trkpt lat="45.82549" lon="4.24025">
        <ele>562.386</ele>
        <time>2018-11-05T14:20:30Z</time>
      </trkpt>
      <trkpt lat="45.82548" lon="4.24032">
        <ele>562.447</ele>
        <time>2018-11-05T14:20:36Z</time>
      </trkpt>
      <trkpt lat="45.82548" lon="4.24036">
        <ele>562.419</ele>
        <time>2018-11-05T14:20:42Z</time>
      </trkpt>
      <trkpt lat="45.82546" lon="4.24036">
        <ele>562.289</ele>
        <time>2018-11-05T14:20:48Z</time>
      </trkpt>
      <trkpt lat="45.82546" lon="4.24035">
        <ele>562.286</ele>
        <time>2018-11-05T14:20:54Z</time>
      </trkpt>
      <trkpt lat="45.82546" lon="4.24037">
        <ele>562.533</ele>
        <time>2018-11-05T14:21:00Z</time>
      </trkpt>
      <trkpt lat="45.82547" lon="4.2404">
        <ele>562.554</ele>
        <time>2018-11-05T14:21:05Z</time>
      </trkpt>
      <trkpt lat="45.82546" lon="4.24048">
        <ele>562.362</ele>
        <time>2018-11-05T14:21:11Z</time>
      </trkpt>
      <trkpt lat="45.82544" lon="4.24057">
        <ele>562.442</ele>
        <time>2018-11-05T14:21:17Z</time>
      </trkpt>
      <trkpt lat="45.82543" lon="4.24067">
        <ele>562.978</ele>
        <time>2018-11-05T14:21:23Z</time>
      </trkpt>
      <trkpt lat="45.82542" lon="4.24075">
        <ele>563.127</ele>
        <time>2018-11-05T14:21:28Z</time>
      </trkpt>
      <trkpt lat="45.8254" lon="4.24084">
        <ele>563.002</ele>
        <time>2018-11-05T14:21:34Z</time>
      </trkpt>
      <trkpt lat="45.82537" lon="4.24094">
        <ele>562.981</ele>
        <time>2018-11-05T14:21:40Z</time>
      </trkpt>
      <trkpt lat="45.82535" lon="4.24102">
        <ele>563.299</ele>
        <time>2018-11-05T14:21:45Z</time>
      </trkpt>
      <trkpt lat="45.82534" lon="4.24113">
        <ele>563.475</ele>
        <time>2018-11-05T14:21:51Z</time>
      </trkpt>
      <trkpt lat="45.82533" lon="4.2412">
        <ele>563.601</ele>
        <time>2018-11-05T14:21:56Z</time>
      </trkpt>
      <trkpt lat="45.82531" lon="4.24131">
        <ele>563.875</ele>
        <time>2018-11-05T14:22:02Z</time>
      </trkpt>
      <trkpt lat="45.8253" lon="4.24141">
        <ele>564.362</ele>
        <time>2018-11-05T14:22:08Z</time>
      </trkpt>
      <trkpt lat="45.82528" lon="4.24152">
        <ele>564.833</ele>
        <time>2018-11-05T14:22:14Z</time>
      </trkpt>
      <trkpt lat="45.82527" lon="4.24161">
        <ele>564.986</ele>
        <time>2018-11-05T14:22:19Z</time>
      </trkpt>
      <trkpt lat="45.82526" lon="4.24173">
        <ele>564.945</ele>
        <time>2018-11-05T14:22:25Z</time>
      </trkpt>
      <trkpt lat="45.82524" lon="4.24182">
        <ele>565.231</ele>
        <time>2018-11-05T14:22:30Z</time>
      </trkpt>
      <trkpt lat="45.82524" lon="4.24191">
        <ele>565.375</ele>
        <time>2018-11-05T14:22:36Z</time>
      </trkpt>
      <trkpt lat="45.82523" lon="4.24201">
        <ele>565.488</ele>
        <time>2018-11-05T14:22:42Z</time>
      </trkpt>
      <trkpt lat="45.82521" lon="4.2421">
        <ele>565.514</ele>
        <time>2018-11-05T14:22:47Z</time>
      </trkpt>
      <trkpt lat="45.82521" lon="4.24222">
        <ele>565.747</ele>
        <time>2018-11-05T14:22:53Z</time>
      </trkpt>
      <trkpt lat="45.82521" lon="4.24231">
        <ele>565.984</ele>
        <time>2018-11-05T14:22:58Z</time>
      </trkpt>
      <trkpt lat="45.82521" lon="4.24241">
        <ele>566.401</ele>
        <time>2018-11-05T14:23:04Z</time>
      </trkpt>
      <trkpt lat="45.8252" lon="4.24252">
        <ele>566.856</ele>
        <time>2018-11-05T14:23:10Z</time>
      </trkpt>
      <trkpt lat="45.8252" lon="4.24263">
        <ele>566.997</ele>
        <time>2018-11-05T14:23:16Z</time>
      </trkpt>
      <trkpt lat="45.82519" lon="4.24273">
        <ele>567.506</ele>
        <time>2018-11-05T14:23:22Z</time>
      </trkpt>
      <trkpt lat="45.82521" lon="4.24284">
        <ele>567.913</ele>
        <time>2018-11-05T14:23:28Z</time>
      </trkpt>
      <trkpt lat="45.82522" lon="4.24295">
        <ele>568.172</ele>
        <time>2018-11-05T14:23:34Z</time>
      </trkpt>
      <trkpt lat="45.82521" lon="4.24307">
        <ele>568.302</ele>
        <time>2018-11-05T14:23:40Z</time>
      </trkpt>
      <trkpt lat="45.82521" lon="4.24316">
        <ele>568.723</ele>
        <time>2018-11-05T14:23:46Z</time>
      </trkpt>
      <trkpt lat="45.8252" lon="4.24325">
        <ele>569.073</ele>
        <time>2018-11-05T14:23:51Z</time>
      </trkpt>
      <trkpt lat="45.82521" lon="4.24336">
        <ele>569.144</ele>
        <time>2018-11-05T14:23:57Z</time>
      </trkpt>
      <trkpt lat="45.82521" lon="4.24344">
        <ele>568.996</ele>
        <time>2018-11-05T14:24:02Z</time>
      </trkpt>
      <trkpt lat="45.82513" lon="4.24347">
        <ele>569.08</ele>
        <time>2018-11-05T14:24:07Z</time>
      </trkpt>
      <trkpt lat="45.82504" lon="4.24343">
        <ele>569.341</ele>
        <time>2018-11-05T14:24:13Z</time>
      </trkpt>
      <trkpt lat="45.82497" lon="4.24342">
        <ele>570.162</ele>
        <time>2018-11-05T14:24:19Z</time>
      </trkpt>
      <trkpt lat="45.82491" lon="4.24339">
        <ele>570.637</ele>
        <time>2018-11-05T14:24:24Z</time>
      </trkpt>
      <trkpt lat="45.82483" lon="4.24336">
        <ele>571.041</ele>
        <time>2018-11-05T14:24:30Z</time>
      </trkpt>
      <trkpt lat="45.82477" lon="4.24334">
        <ele>571.349</ele>
        <time>2018-11-05T14:24:35Z</time>
      </trkpt>
      <trkpt lat="45.82469" lon="4.24331">
        <ele>571.411</ele>
        <time>2018-11-05T14:24:41Z</time>
      </trkpt>
      <trkpt lat="45.82461" lon="4.24327">
        <ele>571.93</ele>
        <time>2018-11-05T14:24:47Z</time>
      </trkpt>
      <trkpt lat="45.82456" lon="4.24326">
        <ele>572.483</ele>
        <time>2018-11-05T14:24:52Z</time>
      </trkpt>
      <trkpt lat="45.8245" lon="4.24322">
        <ele>572.663</ele>
        <time>2018-11-05T14:24:57Z</time>
      </trkpt>
      <trkpt lat="45.82442" lon="4.24316">
        <ele>572.883</ele>
        <time>2018-11-05T14:25:03Z</time>
      </trkpt>
      <trkpt lat="45.82436" lon="4.24308">
        <ele>572.545</ele>
        <time>2018-11-05T14:25:09Z</time>
      </trkpt>
      <trkpt lat="45.82429" lon="4.24302">
        <ele>572.229</ele>
        <time>2018-11-05T14:25:15Z</time>
      </trkpt>
      <trkpt lat="45.82424" lon="4.24295">
        <ele>572.033</ele>
        <time>2018-11-05T14:25:20Z</time>
      </trkpt>
      <trkpt lat="45.82419" lon="4.2429">
        <ele>571.995</ele>
        <time>2018-11-05T14:25:25Z</time>
      </trkpt>
      <trkpt lat="45.82411" lon="4.24282">
        <ele>572.124</ele>
        <time>2018-11-05T14:25:31Z</time>
      </trkpt>
      <trkpt lat="45.82406" lon="4.24276">
        <ele>572.125</ele>
        <time>2018-11-05T14:25:36Z</time>
      </trkpt>
      <trkpt lat="45.82398" lon="4.24271">
        <ele>572.183</ele>
        <time>2018-11-05T14:25:42Z</time>
      </trkpt>
      <trkpt lat="45.82394" lon="4.24265">
        <ele>572.172</ele>
        <time>2018-11-05T14:25:47Z</time>
      </trkpt>
      <trkpt lat="45.82388" lon="4.24257">
        <ele>572.022</ele>
        <time>2018-11-05T14:25:52Z</time>
      </trkpt>
      <trkpt lat="45.82381" lon="4.24251">
        <ele>572.05</ele>
        <time>2018-11-05T14:25:58Z</time>
      </trkpt>
      <trkpt lat="45.82375" lon="4.24243">
        <ele>572.358</ele>
        <time>2018-11-05T14:26:03Z</time>
      </trkpt>
      <trkpt lat="45.82369" lon="4.24238">
        <ele>572.514</ele>
        <time>2018-11-05T14:26:09Z</time>
      </trkpt>
      <trkpt lat="45.82362" lon="4.2423">
        <ele>572.275</ele>
        <time>2018-11-05T14:26:15Z</time>
      </trkpt>
      <trkpt lat="45.82359" lon="4.24223">
        <ele>572.358</ele>
        <time>2018-11-05T14:26:20Z</time>
      </trkpt>
      <trkpt lat="45.82353" lon="4.24215">
        <ele>572.481</ele>
        <time>2018-11-05T14:26:26Z</time>
      </trkpt>
      <trkpt lat="45.82347" lon="4.24206">
        <ele>572.472</ele>
        <time>2018-11-05T14:26:31Z</time>
      </trkpt>
      <trkpt lat="45.82342" lon="4.24197">
        <ele>572.653</ele>
        <time>2018-11-05T14:26:37Z</time>
      </trkpt>
      <trkpt lat="45.82339" lon="4.24189">
        <ele>572.786</ele>
        <time>2018-11-05T14:26:42Z</time>
      </trkpt>
      <trkpt lat="45.82335" lon="4.24179">
        <ele>572.951</ele>
        <time>2018-11-05T14:26:48Z</time>
      </trkpt>
      <trkpt lat="45.82332" lon="4.24172">
        <ele>572.98</ele>
        <time>2018-11-05T14:26:53Z</time>
      </trkpt>
      <trkpt lat="45.82327" lon="4.24165">
        <ele>572.856</ele>
        <time>2018-11-05T14:26:59Z</time>
      </trkpt>
      <trkpt lat="45.82324" lon="4.24157">
        <ele>572.894</ele>
        <time>2018-11-05T14:27:04Z</time>
      </trkpt>
      <trkpt lat="45.8232" lon="4.24148">
        <ele>572.829</ele>
        <time>2018-11-05T14:27:09Z</time>
      </trkpt>
      <trkpt lat="45.82316" lon="4.24139">
        <ele>572.505</ele>
        <time>2018-11-05T14:27:15Z</time>
      </trkpt>
      <trkpt lat="45.82311" lon="4.24131">
        <ele>572.353</ele>
        <time>2018-11-05T14:27:21Z</time>
      </trkpt>
      <trkpt lat="45.82305" lon="4.24119">
        <ele>571.904</ele>
        <time>2018-11-05T14:27:27Z</time>
      </trkpt>
      <trkpt lat="45.82301" lon="4.24112">
        <ele>571.461</ele>
        <time>2018-11-05T14:27:33Z</time>
      </trkpt>
      <trkpt lat="45.82297" lon="4.24102">
        <ele>571.142</ele>
        <time>2018-11-05T14:27:38Z</time>
      </trkpt>
      <trkpt lat="45.82293" lon="4.24094">
        <ele>570.733</ele>
        <time>2018-11-05T14:27:44Z</time>
      </trkpt>
      <trkpt lat="45.82286" lon="4.24085">
        <ele>570.229</ele>
        <time>2018-11-05T14:27:50Z</time>
      </trkpt>
      <trkpt lat="45.82282" lon="4.24077">
        <ele>569.861</ele>
        <time>2018-11-05T14:27:56Z</time>
      </trkpt>
      <trkpt lat="45.82277" lon="4.24065">
        <ele>569.615</ele>
        <time>2018-11-05T14:28:02Z</time>
      </trkpt>
      <trkpt lat="45.82273" lon="4.24054">
        <ele>569.425</ele>
        <time>2018-11-05T14:28:08Z</time>
      </trkpt>
      <trkpt lat="45.8227" lon="4.24045">
        <ele>569.235</ele>
        <time>2018-11-05T14:28:13Z</time>
      </trkpt>
      <trkpt lat="45.82266" lon="4.24037">
        <ele>568.829</ele>
        <time>2018-11-05T14:28:18Z</time>
      </trkpt>
      <trkpt lat="45.8226" lon="4.2403">
        <ele>568.303</ele>
        <time>2018-11-05T14:28:24Z</time>
      </trkpt>
      <trkpt lat="45.82256" lon="4.24018">
        <ele>568.104</ele>
        <time>2018-11-05T14:28:30Z</time>
      </trkpt>
      <trkpt lat="45.82253" lon="4.24009">
        <ele>567.926</ele>
        <time>2018-11-05T14:28:35Z</time>
      </trkpt>
      <trkpt lat="45.82249" lon="4.23998">
        <ele>567.922</ele>
        <time>2018-11-05T14:28:41Z</time>
      </trkpt>
      <trkpt lat="45.82248" lon="4.23989">
        <ele>567.363</ele>
        <time>2018-11-05T14:28:47Z</time>
      </trkpt>
      <trkpt lat="45.82243" lon="4.2398">
        <ele>567.18</ele>
        <time>2018-11-05T14:28:52Z</time>
      </trkpt>
      <trkpt lat="45.82238" lon="4.2397">
        <ele>566.658</ele>
        <time>2018-11-05T14:28:58Z</time>
      </trkpt>
      <trkpt lat="45.82234" lon="4.23961">
        <ele>566.24</ele>
        <time>2018-11-05T14:29:04Z</time>
      </trkpt>
      <trkpt lat="45.8223" lon="4.23955">
        <ele>565.952</ele>
        <time>2018-11-05T14:29:09Z</time>
      </trkpt>
      <trkpt lat="45.82231" lon="4.23953">
        <ele>565.584</ele>
        <time>2018-11-05T14:29:14Z</time>
      </trkpt>
      <trkpt lat="45.8223" lon="4.23947">
        <ele>565.267</ele>
        <time>2018-11-05T14:29:20Z</time>
      </trkpt>
      <trkpt lat="45.82226" lon="4.23938">
        <ele>565.023</ele>
        <time>2018-11-05T14:29:25Z</time>
      </trkpt>
      <trkpt lat="45.82223" lon="4.23932">
        <ele>564.785</ele>
        <time>2018-11-05T14:29:30Z</time>
      </trkpt>
      <trkpt lat="45.82217" lon="4.23922">
        <ele>564.339</ele>
        <time>2018-11-05T14:29:36Z</time>
      </trkpt>
      <trkpt lat="45.82215" lon="4.23916">
        <ele>564.106</ele>
        <time>2018-11-05T14:29:41Z</time>
      </trkpt>
      <trkpt lat="45.82212" lon="4.23904">
        <ele>563.837</ele>
        <time>2018-11-05T14:29:47Z</time>
      </trkpt>
      <trkpt lat="45.8221" lon="4.23898">
        <ele>563.286</ele>
        <time>2018-11-05T14:29:52Z</time>
      </trkpt>
      <trkpt lat="45.82211" lon="4.23895">
        <ele>562.647</ele>
        <time>2018-11-05T14:29:58Z</time>
      </trkpt>
      <trkpt lat="45.82211" lon="4.23895">
        <ele>562.593</ele>
        <time>2018-11-05T14:30:03Z</time>
      </trkpt>
      <trkpt lat="45.82211" lon="4.23892">
        <ele>562.031</ele>
        <time>2018-11-05T14:30:08Z</time>
      </trkpt>
      <trkpt lat="45.8221" lon="4.2389">
        <ele>561.586</ele>
        <time>2018-11-05T14:30:14Z</time>
      </trkpt>
      <trkpt lat="45.82212" lon="4.23888">
        <ele>561.563</ele>
        <time>2018-11-05T14:30:20Z</time>
      </trkpt>
      <trkpt lat="45.82212" lon="4.23889">
        <ele>561.574</ele>
        <time>2018-11-05T14:30:25Z</time>
      </trkpt>
      <trkpt lat="45.82212" lon="4.23889">
        <ele>561.55</ele>
        <time>2018-11-05T14:30:30Z</time>
      </trkpt>
      <trkpt lat="45.82211" lon="4.23889">
        <ele>561.532</ele>
        <time>2018-11-05T14:30:36Z</time>
      </trkpt>
      <trkpt lat="45.82211" lon="4.23889">
        <ele>561.316</ele>
        <time>2018-11-05T14:30:41Z</time>
      </trkpt>
      <trkpt lat="45.82212" lon="4.23883">
        <ele>561.253</ele>
        <time>2018-11-05T14:30:46Z</time>
      </trkpt>
      <trkpt lat="45.82216" lon="4.23874">
        <ele>561.598</ele>
        <time>2018-11-05T14:30:52Z</time>
      </trkpt>
      <trkpt lat="45.8222" lon="4.23868">
        <ele>561.559</ele>
        <time>2018-11-05T14:30:57Z</time>
      </trkpt>
      <trkpt lat="45.82224" lon="4.23861">
        <ele>561.183</ele>
        <time>2018-11-05T14:31:02Z</time>
      </trkpt>
      <trkpt lat="45.82227" lon="4.23854">
        <ele>561.093</ele>
        <time>2018-11-05T14:31:07Z</time>
      </trkpt>
      <trkpt lat="45.82232" lon="4.23844">
        <ele>560.586</ele>
        <time>2018-11-05T14:31:13Z</time>
      </trkpt>
      <trkpt lat="45.82234" lon="4.23839">
        <ele>559.738</ele>
        <time>2018-11-05T14:31:18Z</time>
      </trkpt>
      <trkpt lat="45.82238" lon="4.23828">
        <ele>558.864</ele>
        <time>2018-11-05T14:31:24Z</time>
      </trkpt>
      <trkpt lat="45.82242" lon="4.23818">
        <ele>558.427</ele>
        <time>2018-11-05T14:31:30Z</time>
      </trkpt>
      <trkpt lat="45.82247" lon="4.23811">
        <ele>558.494</ele>
        <time>2018-11-05T14:31:35Z</time>
      </trkpt>
      <trkpt lat="45.8225" lon="4.23803">
        <ele>558.396</ele>
        <time>2018-11-05T14:31:41Z</time>
      </trkpt>
      <trkpt lat="45.82254" lon="4.23795">
        <ele>558.016</ele>
        <time>2018-11-05T14:31:46Z</time>
      </trkpt>
      <trkpt lat="45.82259" lon="4.23786">
        <ele>557.648</ele>
        <time>2018-11-05T14:31:52Z</time>
      </trkpt>
      <trkpt lat="45.82261" lon="4.2378">
        <ele>557.327</ele>
        <time>2018-11-05T14:31:58Z</time>
      </trkpt>
      <trkpt lat="45.82265" lon="4.23775">
        <ele>556.867</ele>
        <time>2018-11-05T14:32:03Z</time>
      </trkpt>
      <trkpt lat="45.82269" lon="4.23765">
        <ele>556.537</ele>
        <time>2018-11-05T14:32:09Z</time>
      </trkpt>
      <trkpt lat="45.82275" lon="4.23755">
        <ele>555.725</ele>
        <time>2018-11-05T14:32:15Z</time>
      </trkpt>
      <trkpt lat="45.82276" lon="4.23751">
        <ele>555.062</ele>
        <time>2018-11-05T14:32:20Z</time>
      </trkpt>
      <trkpt lat="45.8228" lon="4.23748">
        <ele>554.591</ele>
        <time>2018-11-05T14:32:25Z</time>
      </trkpt>
      <trkpt lat="45.82286" lon="4.23743">
        <ele>553.802</ele>
        <time>2018-11-05T14:32:31Z</time>
      </trkpt>
      <trkpt lat="45.82291" lon="4.23739">
        <ele>553.173</ele>
        <time>2018-11-05T14:32:36Z</time>
      </trkpt>
      <trkpt lat="45.82297" lon="4.23737">
        <ele>552.223</ele>
        <time>2018-11-05T14:32:42Z</time>
      </trkpt>
      <trkpt lat="45.82301" lon="4.23736">
        <ele>551.331</ele>
        <time>2018-11-05T14:32:47Z</time>
      </trkpt>
      <trkpt lat="45.82307" lon="4.23731">
        <ele>550.433</ele>
        <time>2018-11-05T14:32:53Z</time>
      </trkpt>
      <trkpt lat="45.82314" lon="4.23722">
        <ele>549.7</ele>
        <time>2018-11-05T14:32:59Z</time>
      </trkpt>
      <trkpt lat="45.82318" lon="4.2372">
        <ele>549.382</ele>
        <time>2018-11-05T14:33:04Z</time>
      </trkpt>
      <trkpt lat="45.82319" lon="4.23722">
        <ele>548.918</ele>
        <time>2018-11-05T14:33:09Z</time>
      </trkpt>
      <trkpt lat="45.82322" lon="4.23721">
        <ele>547.776</ele>
        <time>2018-11-05T14:33:15Z</time>
      </trkpt>
      <trkpt lat="45.82326" lon="4.23724">
        <ele>546.789</ele>
        <time>2018-11-05T14:33:20Z</time>
      </trkpt>
      <trkpt lat="45.82336" lon="4.23735">
        <ele>546.107</ele>
        <time>2018-11-05T14:33:26Z</time>
      </trkpt>
      <trkpt lat="45.8234" lon="4.23739">
        <ele>545.66</ele>
        <time>2018-11-05T14:33:31Z</time>
      </trkpt>
      <trkpt lat="45.82346" lon="4.23742">
        <ele>545.518</ele>
        <time>2018-11-05T14:33:36Z</time>
      </trkpt>
      <trkpt lat="45.8235" lon="4.23742">
        <ele>545.21</ele>
        <time>2018-11-05T14:33:42Z</time>
      </trkpt>
      <trkpt lat="45.82351" lon="4.23742">
        <ele>544.462</ele>
        <time>2018-11-05T14:33:47Z</time>
      </trkpt>
      <trkpt lat="45.82355" lon="4.23739">
        <ele>544.159</ele>
        <time>2018-11-05T14:33:53Z</time>
      </trkpt>
      <trkpt lat="45.8236" lon="4.23734">
        <ele>544.057</ele>
        <time>2018-11-05T14:33:59Z</time>
      </trkpt>
      <trkpt lat="45.82363" lon="4.23729">
        <ele>543.867</ele>
        <time>2018-11-05T14:34:05Z</time>
      </trkpt>
      <trkpt lat="45.82366" lon="4.23723">
        <ele>543.08</ele>
        <time>2018-11-05T14:34:11Z</time>
      </trkpt>
      <trkpt lat="45.82369" lon="4.23717">
        <ele>542.015</ele>
        <time>2018-11-05T14:34:16Z</time>
      </trkpt>
      <trkpt lat="45.82374" lon="4.23706">
        <ele>541.887</ele>
        <time>2018-11-05T14:34:22Z</time>
      </trkpt>
      <trkpt lat="45.82376" lon="4.23701">
        <ele>542.091</ele>
        <time>2018-11-05T14:34:27Z</time>
      </trkpt>
      <trkpt lat="45.8238" lon="4.23694">
        <ele>541.985</ele>
        <time>2018-11-05T14:34:32Z</time>
      </trkpt>
      <trkpt lat="45.8238" lon="4.23684">
        <ele>541.575</ele>
        <time>2018-11-05T14:34:38Z</time>
      </trkpt>
      <trkpt lat="45.8238" lon="4.23676">
        <ele>540.677</ele>
        <time>2018-11-05T14:34:43Z</time>
      </trkpt>
      <trkpt lat="45.82381" lon="4.23664">
        <ele>539.933</ele>
        <time>2018-11-05T14:34:48Z</time>
      </trkpt>
      <trkpt lat="45.82382" lon="4.23655">
        <ele>539.524</ele>
        <time>2018-11-05T14:34:54Z</time>
      </trkpt>
      <trkpt lat="45.82384" lon="4.23642">
        <ele>538.921</ele>
        <time>2018-11-05T14:35:00Z</time>
      </trkpt>
      <trkpt lat="45.82386" lon="4.23632">
        <ele>538.28</ele>
        <time>2018-11-05T14:35:06Z</time>
      </trkpt>
      <trkpt lat="45.82386" lon="4.23624">
        <ele>537.875</ele>
        <time>2018-11-05T14:35:11Z</time>
      </trkpt>
      <trkpt lat="45.82386" lon="4.23617">
        <ele>537.634</ele>
        <time>2018-11-05T14:35:17Z</time>
      </trkpt>
      <trkpt lat="45.82388" lon="4.23606">
        <ele>537.938</ele>
        <time>2018-11-05T14:35:23Z</time>
      </trkpt>
      <trkpt lat="45.8239" lon="4.23597">
        <ele>538.732</ele>
        <time>2018-11-05T14:35:29Z</time>
      </trkpt>
      <trkpt lat="45.82395" lon="4.23589">
        <ele>539.532</ele>
        <time>2018-11-05T14:35:35Z</time>
      </trkpt>
      <trkpt lat="45.82404" lon="4.23583">
        <ele>540.5</ele>
        <time>2018-11-05T14:35:41Z</time>
      </trkpt>
      <trkpt lat="45.82409" lon="4.23583">
        <ele>541.338</ele>
        <time>2018-11-05T14:35:47Z</time>
      </trkpt>
      <trkpt lat="45.82418" lon="4.23584">
        <ele>542.092</ele>
        <time>2018-11-05T14:35:53Z</time>
      </trkpt>
      <trkpt lat="45.82424" lon="4.23585">
        <ele>542.992</ele>
        <time>2018-11-05T14:35:59Z</time>
      </trkpt>
      <trkpt lat="45.8243" lon="4.23587">
        <ele>543.72</ele>
        <time>2018-11-05T14:36:05Z</time>
      </trkpt>
      <trkpt lat="45.82436" lon="4.23591">
        <ele>544.278</ele>
        <time>2018-11-05T14:36:11Z</time>
      </trkpt>
      <trkpt lat="45.8244" lon="4.23593">
        <ele>544.502</ele>
        <time>2018-11-05T14:36:17Z</time>
      </trkpt>
      <trkpt lat="45.82447" lon="4.23596">
        <ele>545.204</ele>
        <time>2018-11-05T14:36:23Z</time>
      </trkpt>
      <trkpt lat="45.82453" lon="4.23598">
        <ele>546.26</ele>
        <time>2018-11-05T14:36:29Z</time>
      </trkpt>
      <trkpt lat="45.82459" lon="4.23599">
        <ele>547.018</ele>
        <time>2018-11-05T14:36:34Z</time>
      </trkpt>
      <trkpt lat="45.82465" lon="4.23598">
        <ele>547.919</ele>
        <time>2018-11-05T14:36:40Z</time>
      </trkpt>
      <trkpt lat="45.82473" lon="4.23595">
        <ele>548.968</ele>
        <time>2018-11-05T14:36:46Z</time>
      </trkpt>
      <trkpt lat="45.82479" lon="4.23592">
        <ele>549.844</ele>
        <time>2018-11-05T14:36:51Z</time>
      </trkpt>
      <trkpt lat="45.82485" lon="4.23589">
        <ele>550.539</ele>
        <time>2018-11-05T14:36:56Z</time>
      </trkpt>
      <trkpt lat="45.82491" lon="4.23587">
        <ele>551.115</ele>
        <time>2018-11-05T14:37:01Z</time>
      </trkpt>
      <trkpt lat="45.82499" lon="4.23586">
        <ele>551.715</ele>
        <time>2018-11-05T14:37:07Z</time>
      </trkpt>
      <trkpt lat="45.82505" lon="4.23584">
        <ele>552.165</ele>
        <time>2018-11-05T14:37:12Z</time>
      </trkpt>
      <trkpt lat="45.82512" lon="4.2358">
        <ele>553.167</ele>
        <time>2018-11-05T14:37:18Z</time>
      </trkpt>
      <trkpt lat="45.82518" lon="4.23579">
        <ele>554.088</ele>
        <time>2018-11-05T14:37:23Z</time>
      </trkpt>
      <trkpt lat="45.82524" lon="4.23578">
        <ele>554.617</ele>
        <time>2018-11-05T14:37:28Z</time>
      </trkpt>
      <trkpt lat="45.82532" lon="4.23576">
        <ele>555.277</ele>
        <time>2018-11-05T14:37:34Z</time>
      </trkpt>
      <trkpt lat="45.82538" lon="4.23575">
        <ele>556.127</ele>
        <time>2018-11-05T14:37:40Z</time>
      </trkpt>
      <trkpt lat="45.82542" lon="4.23576">
        <ele>556.611</ele>
        <time>2018-11-05T14:37:45Z</time>
      </trkpt>
      <trkpt lat="45.82545" lon="4.23577">
        <ele>557.297</ele>
        <time>2018-11-05T14:37:51Z</time>
      </trkpt>
      <trkpt lat="45.82552" lon="4.23574">
        <ele>558.225</ele>
        <time>2018-11-05T14:37:57Z</time>
      </trkpt>
      <trkpt lat="45.82558" lon="4.23572">
        <ele>558.587</ele>
        <time>2018-11-05T14:38:02Z</time>
      </trkpt>
      <trkpt lat="45.82566" lon="4.23571">
        <ele>558.892</ele>
        <time>2018-11-05T14:38:07Z</time>
      </trkpt>
      <trkpt lat="45.82574" lon="4.23572">
        <ele>559.344</ele>
        <time>2018-11-05T14:38:13Z</time>
      </trkpt>
      <trkpt lat="45.82579" lon="4.23574">
        <ele>559.269</ele>
        <time>2018-11-05T14:38:18Z</time>
      </trkpt>
      <trkpt lat="45.82588" lon="4.23575">
        <ele>559.185</ele>
        <time>2018-11-05T14:38:24Z</time>
      </trkpt>
      <trkpt lat="45.82595" lon="4.23577">
        <ele>559.385</ele>
        <time>2018-11-05T14:38:30Z</time>
      </trkpt>
      <trkpt lat="45.82601" lon="4.23577">
        <ele>559.322</ele>
        <time>2018-11-05T14:38:36Z</time>
      </trkpt>
      <trkpt lat="45.82606" lon="4.23576">
        <ele>559.26</ele>
        <time>2018-11-05T14:38:41Z</time>
      </trkpt>
      <trkpt lat="45.82606" lon="4.23575">
        <ele>559.224</ele>
        <time>2018-11-05T14:38:47Z</time>
      </trkpt>
      <trkpt lat="45.82604" lon="4.23574">
        <ele>559.058</ele>
        <time>2018-11-05T14:38:53Z</time>
      </trkpt>
      <trkpt lat="45.82606" lon="4.23573">
        <ele>558.686</ele>
        <time>2018-11-05T14:38:59Z</time>
      </trkpt>
      <trkpt lat="45.82606" lon="4.23574">
        <ele>558.518</ele>
        <time>2018-11-05T14:39:04Z</time>
      </trkpt>
      <trkpt lat="45.82608" lon="4.23576">
        <ele>558.019</ele>
        <time>2018-11-05T14:39:10Z</time>
      </trkpt>
      <trkpt lat="45.82607" lon="4.23576">
        <ele>557.853</ele>
        <time>2018-11-05T14:39:15Z</time>
      </trkpt>
      <trkpt lat="45.82607" lon="4.23576">
        <ele>557.679</ele>
        <time>2018-11-05T14:39:21Z</time>
      </trkpt>
      <trkpt lat="45.82609" lon="4.23578">
        <ele>557.024</ele>
        <time>2018-11-05T14:39:27Z</time>
      </trkpt>
      <trkpt lat="45.82611" lon="4.23581">
        <ele>556.917</ele>
        <time>2018-11-05T14:39:32Z</time>
      </trkpt>
      <trkpt lat="45.82612" lon="4.23581">
        <ele>556.713</ele>
        <time>2018-11-05T14:39:37Z</time>
      </trkpt>
      <trkpt lat="45.82612" lon="4.23579">
        <ele>556.613</ele>
        <time>2018-11-05T14:39:43Z</time>
      </trkpt>
      <trkpt lat="45.82612" lon="4.23578">
        <ele>556.449</ele>
        <time>2018-11-05T14:39:49Z</time>
      </trkpt>
      <trkpt lat="45.82613" lon="4.23579">
        <ele>556.416</ele>
        <time>2018-11-05T14:39:54Z</time>
      </trkpt>
      <trkpt lat="45.82613" lon="4.23578">
        <ele>556.191</ele>
        <time>2018-11-05T14:39:59Z</time>
      </trkpt>
      <trkpt lat="45.82611" lon="4.23576">
        <ele>556.035</ele>
        <time>2018-11-05T14:40:04Z</time>
      </trkpt>
      <trkpt lat="45.82609" lon="4.23578">
        <ele>555.925</ele>
        <time>2018-11-05T14:40:10Z</time>
      </trkpt>
      <trkpt lat="45.82609" lon="4.23576">
        <ele>555.655</ele>
        <time>2018-11-05T14:40:16Z</time>
      </trkpt>
      <trkpt lat="45.82608" lon="4.2357">
        <ele>556.005</ele>
        <time>2018-11-05T14:40:22Z</time>
      </trkpt>
      <trkpt lat="45.82608" lon="4.23564">
        <ele>556.775</ele>
        <time>2018-11-05T14:40:27Z</time>
      </trkpt>
      <trkpt lat="45.82611" lon="4.23551">
        <ele>557.11</ele>
        <time>2018-11-05T14:40:33Z</time>
      </trkpt>
      <trkpt lat="45.82614" lon="4.23542">
        <ele>557.23</ele>
        <time>2018-11-05T14:40:39Z</time>
      </trkpt>
      <trkpt lat="45.82615" lon="4.23531">
        <ele>557.272</ele>
        <time>2018-11-05T14:40:45Z</time>
      </trkpt>
      <trkpt lat="45.82615" lon="4.23525">
        <ele>557.326</ele>
        <time>2018-11-05T14:40:50Z</time>
      </trkpt>
      <trkpt lat="45.82617" lon="4.23516">
        <ele>557.583</ele>
        <time>2018-11-05T14:40:56Z</time>
      </trkpt>
      <trkpt lat="45.82617" lon="4.23503">
        <ele>557.955</ele>
        <time>2018-11-05T14:41:02Z</time>
      </trkpt>
      <trkpt lat="45.82619" lon="4.23497">
        <ele>558.273</ele>
        <time>2018-11-05T14:41:07Z</time>
      </trkpt>
      <trkpt lat="45.8262" lon="4.2349">
        <ele>558.382</ele>
        <time>2018-11-05T14:41:12Z</time>
      </trkpt>
      <trkpt lat="45.82621" lon="4.2348">
        <ele>558.408</ele>
        <time>2018-11-05T14:41:18Z</time>
      </trkpt>
      <trkpt lat="45.82621" lon="4.2347">
        <ele>558.068</ele>
        <time>2018-11-05T14:41:23Z</time>
      </trkpt>
      <trkpt lat="45.82619" lon="4.2346">
        <ele>557.571</ele>
        <time>2018-11-05T14:41:29Z</time>
      </trkpt>
      <trkpt lat="45.82617" lon="4.23449">
        <ele>557.036</ele>
        <time>2018-11-05T14:41:35Z</time>
      </trkpt>
      <trkpt lat="45.82618" lon="4.2344">
        <ele>556.199</ele>
        <time>2018-11-05T14:41:40Z</time>
      </trkpt>
      <trkpt lat="45.82616" lon="4.23431">
        <ele>555.526</ele>
        <time>2018-11-05T14:41:46Z</time>
      </trkpt>
      <trkpt lat="45.82615" lon="4.23423">
        <ele>555.407</ele>
        <time>2018-11-05T14:41:51Z</time>
      </trkpt>
      <trkpt lat="45.82615" lon="4.23417">
        <ele>555.971</ele>
        <time>2018-11-05T14:41:56Z</time>
      </trkpt>
      <trkpt lat="45.82617" lon="4.23407">
        <ele>556.473</ele>
        <time>2018-11-05T14:42:02Z</time>
      </trkpt>
      <trkpt lat="45.8262" lon="4.23394">
        <ele>556.308</ele>
        <time>2018-11-05T14:42:08Z</time>
      </trkpt>
      <trkpt lat="45.82618" lon="4.23386">
        <ele>556.078</ele>
        <time>2018-11-05T14:42:13Z</time>
      </trkpt>
      <trkpt lat="45.82613" lon="4.23373">
        <ele>556.09</ele>
        <time>2018-11-05T14:42:19Z</time>
      </trkpt>
      <trkpt lat="45.8261" lon="4.23367">
        <ele>555.326</ele>
        <time>2018-11-05T14:42:25Z</time>
      </trkpt>
      <trkpt lat="45.82608" lon="4.23356">
        <ele>554.72</ele>
        <time>2018-11-05T14:42:31Z</time>
      </trkpt>
      <trkpt lat="45.82604" lon="4.23346">
        <ele>554.299</ele>
        <time>2018-11-05T14:42:37Z</time>
      </trkpt>
      <trkpt lat="45.826" lon="4.23333">
        <ele>553.683</ele>
        <time>2018-11-05T14:42:43Z</time>
      </trkpt>
      <trkpt lat="45.82598" lon="4.23324">
        <ele>553.166</ele>
        <time>2018-11-05T14:42:48Z</time>
      </trkpt>
      <trkpt lat="45.82597" lon="4.23317">
        <ele>552.918</ele>
        <time>2018-11-05T14:42:53Z</time>
      </trkpt>
      <trkpt lat="45.82597" lon="4.23311">
        <ele>553.023</ele>
        <time>2018-11-05T14:42:58Z</time>
      </trkpt>
      <trkpt lat="45.82598" lon="4.23297">
        <ele>553.433</ele>
        <time>2018-11-05T14:43:04Z</time>
      </trkpt>
      <trkpt lat="45.82597" lon="4.23287">
        <ele>553.866</ele>
        <time>2018-11-05T14:43:09Z</time>
      </trkpt>
      <trkpt lat="45.82596" lon="4.23276">
        <ele>554.174</ele>
        <time>2018-11-05T14:43:15Z</time>
      </trkpt>
      <trkpt lat="45.82596" lon="4.23267">
        <ele>554.525</ele>
        <time>2018-11-05T14:43:21Z</time>
      </trkpt>
      <trkpt lat="45.82596" lon="4.2326">
        <ele>554.816</ele>
        <time>2018-11-05T14:43:26Z</time>
      </trkpt>
      <trkpt lat="45.82592" lon="4.23249">
        <ele>554.95</ele>
        <time>2018-11-05T14:43:32Z</time>
      </trkpt>
      <trkpt lat="45.8259" lon="4.23241">
        <ele>554.731</ele>
        <time>2018-11-05T14:43:37Z</time>
      </trkpt>
      <trkpt lat="45.82588" lon="4.23235">
        <ele>554.39</ele>
        <time>2018-11-05T14:43:42Z</time>
      </trkpt>
      <trkpt lat="45.82583" lon="4.23226">
        <ele>553.584</ele>
        <time>2018-11-05T14:43:48Z</time>
      </trkpt>
      <trkpt lat="45.82579" lon="4.23219">
        <ele>552.807</ele>
        <time>2018-11-05T14:43:54Z</time>
      </trkpt>
      <trkpt lat="45.82578" lon="4.23216">
        <ele>551.946</ele>
        <time>2018-11-05T14:44:00Z</time>
      </trkpt>
      <trkpt lat="45.82578" lon="4.23217">
        <ele>551.097</ele>
        <time>2018-11-05T14:44:05Z</time>
      </trkpt>
      <trkpt lat="45.82578" lon="4.23216">
        <ele>550.19</ele>
        <time>2018-11-05T14:44:10Z</time>
      </trkpt>
      <trkpt lat="45.82577" lon="4.23212">
        <ele>549.198</ele>
        <time>2018-11-05T14:44:15Z</time>
      </trkpt>
      <trkpt lat="45.82574" lon="4.23206">
        <ele>548.34</ele>
        <time>2018-11-05T14:44:21Z</time>
      </trkpt>
      <trkpt lat="45.82571" lon="4.23203">
        <ele>547.713</ele>
        <time>2018-11-05T14:44:27Z</time>
      </trkpt>
      <trkpt lat="45.82569" lon="4.23203">
        <ele>547.622</ele>
        <time>2018-11-05T14:44:33Z</time>
      </trkpt>
      <trkpt lat="45.82568" lon="4.23205">
        <ele>547.443</ele>
        <time>2018-11-05T14:44:38Z</time>
      </trkpt>
      <trkpt lat="45.82569" lon="4.23206">
        <ele>546.994</ele>
        <time>2018-11-05T14:44:43Z</time>
      </trkpt>
      <trkpt lat="45.8257" lon="4.23202">
        <ele>546.298</ele>
        <time>2018-11-05T14:44:49Z</time>
      </trkpt>
      <trkpt lat="45.82567" lon="4.23197">
        <ele>545.775</ele>
        <time>2018-11-05T14:44:54Z</time>
      </trkpt>
      <trkpt lat="45.82562" lon="4.23188">
        <ele>544.651</ele>
        <time>2018-11-05T14:45:00Z</time>
      </trkpt>
      <trkpt lat="45.82556" lon="4.23181">
        <ele>543.967</ele>
        <time>2018-11-05T14:45:06Z</time>
      </trkpt>
      <trkpt lat="45.82551" lon="4.23177">
        <ele>543.748</ele>
        <time>2018-11-05T14:45:12Z</time>
      </trkpt>
      <trkpt lat="45.82545" lon="4.23172">
        <ele>543.112</ele>
        <time>2018-11-05T14:45:18Z</time>
      </trkpt>
      <trkpt lat="45.82541" lon="4.23163">
        <ele>542.447</ele>
        <time>2018-11-05T14:45:24Z</time>
      </trkpt>
      <trkpt lat="45.82537" lon="4.23158">
        <ele>541.862</ele>
        <time>2018-11-05T14:45:29Z</time>
      </trkpt>
      <trkpt lat="45.82528" lon="4.23152">
        <ele>541.199</ele>
        <time>2018-11-05T14:45:35Z</time>
      </trkpt>
      <trkpt lat="45.82522" lon="4.23146">
        <ele>540.239</ele>
        <time>2018-11-05T14:45:41Z</time>
      </trkpt>
      <trkpt lat="45.82517" lon="4.2314">
        <ele>539.208</ele>
        <time>2018-11-05T14:45:47Z</time>
      </trkpt>
      <trkpt lat="45.82511" lon="4.23133">
        <ele>538.39</ele>
        <time>2018-11-05T14:45:53Z</time>
      </trkpt>
      <trkpt lat="45.82505" lon="4.23124">
        <ele>538.046</ele>
        <time>2018-11-05T14:45:59Z</time>
      </trkpt>
      <trkpt lat="45.82501" lon="4.23116">
        <ele>537.262</ele>
        <time>2018-11-05T14:46:05Z</time>
      </trkpt>
      <trkpt lat="45.82496" lon="4.23107">
        <ele>536.071</ele>
        <time>2018-11-05T14:46:11Z</time>
      </trkpt>
      <trkpt lat="45.82492" lon="4.23101">
        <ele>535.424</ele>
        <time>2018-11-05T14:46:16Z</time>
      </trkpt>
      <trkpt lat="45.82489" lon="4.23094">
        <ele>535.104</ele>
        <time>2018-11-05T14:46:22Z</time>
      </trkpt>
      <trkpt lat="45.82484" lon="4.23085">
        <ele>534.522</ele>
        <time>2018-11-05T14:46:27Z</time>
      </trkpt>
      <trkpt lat="45.82481" lon="4.23076">
        <ele>533.852</ele>
        <time>2018-11-05T14:46:33Z</time>
      </trkpt>
      <trkpt lat="45.82479" lon="4.23065">
        <ele>533.494</ele>
        <time>2018-11-05T14:46:38Z</time>
      </trkpt>
      <trkpt lat="45.82476" lon="4.23057">
        <ele>533.145</ele>
        <time>2018-11-05T14:46:43Z</time>
      </trkpt>
      <trkpt lat="45.82473" lon="4.23047">
        <ele>532.897</ele>
        <time>2018-11-05T14:46:49Z</time>
      </trkpt>
      <trkpt lat="45.8247" lon="4.23038">
        <ele>532.615</ele>
        <time>2018-11-05T14:46:54Z</time>
      </trkpt>
      <trkpt lat="45.82465" lon="4.23027">
        <ele>532.026</ele>
        <time>2018-11-05T14:47:00Z</time>
      </trkpt>
      <trkpt lat="45.82463" lon="4.23018">
        <ele>531.744</ele>
        <time>2018-11-05T14:47:05Z</time>
      </trkpt>
      <trkpt lat="45.82461" lon="4.23007">
        <ele>531.803</ele>
        <time>2018-11-05T14:47:11Z</time>
      </trkpt>
      <trkpt lat="45.82459" lon="4.22998">
        <ele>532.078</ele>
        <time>2018-11-05T14:47:17Z</time>
      </trkpt>
      <trkpt lat="45.82457" lon="4.22988">
        <ele>532.176</ele>
        <time>2018-11-05T14:47:22Z</time>
      </trkpt>
      <trkpt lat="45.82457" lon="4.2298">
        <ele>532.247</ele>
        <time>2018-11-05T14:47:27Z</time>
      </trkpt>
      <trkpt lat="45.82452" lon="4.22968">
        <ele>532.381</ele>
        <time>2018-11-05T14:47:33Z</time>
      </trkpt>
      <trkpt lat="45.8245" lon="4.22957">
        <ele>532.714</ele>
        <time>2018-11-05T14:47:39Z</time>
      </trkpt>
      <trkpt lat="45.82448" lon="4.22952">
        <ele>532.913</ele>
        <time>2018-11-05T14:47:45Z</time>
      </trkpt>
      <trkpt lat="45.82446" lon="4.2294">
        <ele>532.579</ele>
        <time>2018-11-05T14:47:51Z</time>
      </trkpt>
      <trkpt lat="45.82445" lon="4.22928">
        <ele>532.87</ele>
        <time>2018-11-05T14:47:57Z</time>
      </trkpt>
      <trkpt lat="45.82444" lon="4.2292">
        <ele>532.953</ele>
        <time>2018-11-05T14:48:03Z</time>
      </trkpt>
      <trkpt lat="45.82441" lon="4.22911">
        <ele>533.178</ele>
        <time>2018-11-05T14:48:08Z</time>
      </trkpt>
      <trkpt lat="45.82438" lon="4.22902">
        <ele>533.251</ele>
        <time>2018-11-05T14:48:13Z</time>
      </trkpt>
      <trkpt lat="45.82435" lon="4.22894">
        <ele>533.874</ele>
        <time>2018-11-05T14:48:19Z</time>
      </trkpt>
      <trkpt lat="45.82431" lon="4.22886">
        <ele>534.593</ele>
        <time>2018-11-05T14:48:25Z</time>
      </trkpt>
      <trkpt lat="45.82427" lon="4.22878">
        <ele>534.548</ele>
        <time>2018-11-05T14:48:31Z</time>
      </trkpt>
      <trkpt lat="45.82425" lon="4.22873">
        <ele>534.109</ele>
        <time>2018-11-05T14:48:37Z</time>
      </trkpt>
      <trkpt lat="45.82422" lon="4.22867">
        <ele>533.93</ele>
        <time>2018-11-05T14:48:42Z</time>
      </trkpt>
      <trkpt lat="45.82418" lon="4.22859">
        <ele>533.033</ele>
        <time>2018-11-05T14:48:48Z</time>
      </trkpt>
      <trkpt lat="45.82417" lon="4.22853">
        <ele>532.776</ele>
        <time>2018-11-05T14:48:53Z</time>
      </trkpt>
      <trkpt lat="45.82422" lon="4.22852">
        <ele>532.051</ele>
        <time>2018-11-05T14:48:59Z</time>
      </trkpt>
      <trkpt lat="45.8243" lon="4.22848">
        <ele>531.628</ele>
        <time>2018-11-05T14:49:05Z</time>
      </trkpt>
      <trkpt lat="45.82436" lon="4.22848">
        <ele>531.257</ele>
        <time>2018-11-05T14:49:11Z</time>
      </trkpt>
      <trkpt lat="45.82441" lon="4.22846">
        <ele>530.994</ele>
        <time>2018-11-05T14:49:16Z</time>
      </trkpt>
      <trkpt lat="45.82449" lon="4.22843">
        <ele>530.574</ele>
        <time>2018-11-05T14:49:21Z</time>
      </trkpt>
      <trkpt lat="45.82456" lon="4.22842">
        <ele>529.803</ele>
        <time>2018-11-05T14:49:27Z</time>
      </trkpt>
      <trkpt lat="45.82462" lon="4.2284">
        <ele>529.089</ele>
        <time>2018-11-05T14:49:32Z</time>
      </trkpt>
      <trkpt lat="45.82466" lon="4.22842">
        <ele>528.401</ele>
        <time>2018-11-05T14:49:38Z</time>
      </trkpt>
      <trkpt lat="45.82474" lon="4.22844">
        <ele>528.159</ele>
        <time>2018-11-05T14:49:43Z</time>
      </trkpt>
      <trkpt lat="45.82477" lon="4.22845">
        <ele>527.825</ele>
        <time>2018-11-05T14:49:48Z</time>
      </trkpt>
      <trkpt lat="45.82479" lon="4.22848">
        <ele>527.635</ele>
        <time>2018-11-05T14:49:53Z</time>
      </trkpt>
      <trkpt lat="45.82482" lon="4.22855">
        <ele>527.715</ele>
        <time>2018-11-05T14:49:59Z</time>
      </trkpt>
      <trkpt lat="45.82487" lon="4.22863">
        <ele>528.016</ele>
        <time>2018-11-05T14:50:05Z</time>
      </trkpt>
      <trkpt lat="45.82492" lon="4.2287">
        <ele>528.526</ele>
        <time>2018-11-05T14:50:11Z</time>
      </trkpt>
      <trkpt lat="45.82497" lon="4.22877">
        <ele>528.789</ele>
        <time>2018-11-05T14:50:16Z</time>
      </trkpt>
      <trkpt lat="45.825" lon="4.22884">
        <ele>529.135</ele>
        <time>2018-11-05T14:50:22Z</time>
      </trkpt>
      <trkpt lat="45.82504" lon="4.2289">
        <ele>529.22</ele>
        <time>2018-11-05T14:50:27Z</time>
      </trkpt>
      <trkpt lat="45.82509" lon="4.22897">
        <ele>529.096</ele>
        <time>2018-11-05T14:50:33Z</time>
      </trkpt>
      <trkpt lat="45.82512" lon="4.22902">
        <ele>528.608</ele>
        <time>2018-11-05T14:50:38Z</time>
      </trkpt>
      <trkpt lat="45.82515" lon="4.22908">
        <ele>528.648</ele>
        <time>2018-11-05T14:50:44Z</time>
      </trkpt>
      <trkpt lat="45.82519" lon="4.22917">
        <ele>528.587</ele>
        <time>2018-11-05T14:50:50Z</time>
      </trkpt>
      <trkpt lat="45.82523" lon="4.22923">
        <ele>528.155</ele>
        <time>2018-11-05T14:50:56Z</time>
      </trkpt>
      <trkpt lat="45.82527" lon="4.2293">
        <ele>527.766</ele>
        <time>2018-11-05T14:51:01Z</time>
      </trkpt>
      <trkpt lat="45.82531" lon="4.22938">
        <ele>527.341</ele>
        <time>2018-11-05T14:51:07Z</time>
      </trkpt>
      <trkpt lat="45.82535" lon="4.22944">
        <ele>527.04</ele>
        <time>2018-11-05T14:51:12Z</time>
      </trkpt>
      <trkpt lat="45.8254" lon="4.22951">
        <ele>526.401</ele>
        <time>2018-11-05T14:51:18Z</time>
      </trkpt>
      <trkpt lat="45.82544" lon="4.22957">
        <ele>525.854</ele>
        <time>2018-11-05T14:51:23Z</time>
      </trkpt>
      <trkpt lat="45.8255" lon="4.22961">
        <ele>524.905</ele>
        <time>2018-11-05T14:51:29Z</time>
      </trkpt>
      <trkpt lat="45.82556" lon="4.22966">
        <ele>524.4</ele>
        <time>2018-11-05T14:51:35Z</time>
      </trkpt>
      <trkpt lat="45.8256" lon="4.2297">
        <ele>523.844</ele>
        <time>2018-11-05T14:51:41Z</time>
      </trkpt>
      <trkpt lat="45.82563" lon="4.22974">
        <ele>523.489</ele>
        <time>2018-11-05T14:51:47Z</time>
      </trkpt>
      <trkpt lat="45.82571" lon="4.22979">
        <ele>523.084</ele>
        <time>2018-11-05T14:51:53Z</time>
      </trkpt>
      <trkpt lat="45.82577" lon="4.22982">
        <ele>522.484</ele>
        <time>2018-11-05T14:51:59Z</time>
      </trkpt>
      <trkpt lat="45.82579" lon="4.22986">
        <ele>522.524</ele>
        <time>2018-11-05T14:52:04Z</time>
      </trkpt>
      <trkpt lat="45.82584" lon="4.2299">
        <ele>522.253</ele>
        <time>2018-11-05T14:52:09Z</time>
      </trkpt>
      <trkpt lat="45.82589" lon="4.22994">
        <ele>522.17</ele>
        <time>2018-11-05T14:52:15Z</time>
      </trkpt>
      <trkpt lat="45.82594" lon="4.23002">
        <ele>521.882</ele>
        <time>2018-11-05T14:52:20Z</time>
      </trkpt>
      <trkpt lat="45.82596" lon="4.23005">
        <ele>521.071</ele>
        <time>2018-11-05T14:52:25Z</time>
      </trkpt>
      <trkpt lat="45.82601" lon="4.23008">
        <ele>519.959</ele>
        <time>2018-11-05T14:52:31Z</time>
      </trkpt>
      <trkpt lat="45.82611" lon="4.23008">
        <ele>518.406</ele>
        <time>2018-11-05T14:52:37Z</time>
      </trkpt>
      <trkpt lat="45.82619" lon="4.23005">
        <ele>517.525</ele>
        <time>2018-11-05T14:52:42Z</time>
      </trkpt>
      <trkpt lat="45.82624" lon="4.23002">
        <ele>516.766</ele>
        <time>2018-11-05T14:52:48Z</time>
      </trkpt>
      <trkpt lat="45.82632" lon="4.22998">
        <ele>516.094</ele>
        <time>2018-11-05T14:52:53Z</time>
      </trkpt>
      <trkpt lat="45.82637" lon="4.22997">
        <ele>515.195</ele>
        <time>2018-11-05T14:52:58Z</time>
      </trkpt>
      <trkpt lat="45.82642" lon="4.22995">
        <ele>513.839</ele>
        <time>2018-11-05T14:53:04Z</time>
      </trkpt>
      <trkpt lat="45.82647" lon="4.22995">
        <ele>513.137</ele>
        <time>2018-11-05T14:53:10Z</time>
      </trkpt>
      <trkpt lat="45.82652" lon="4.22996">
        <ele>512.913</ele>
        <time>2018-11-05T14:53:16Z</time>
      </trkpt>
      <trkpt lat="45.82659" lon="4.22997">
        <ele>512.762</ele>
        <time>2018-11-05T14:53:22Z</time>
      </trkpt>
      <trkpt lat="45.82669" lon="4.22994">
        <ele>512.619</ele>
        <time>2018-11-05T14:53:28Z</time>
      </trkpt>
      <trkpt lat="45.82676" lon="4.22994">
        <ele>512.407</ele>
        <time>2018-11-05T14:53:33Z</time>
      </trkpt>
      <trkpt lat="45.82686" lon="4.22994">
        <ele>512.563</ele>
        <time>2018-11-05T14:53:39Z</time>
      </trkpt>
      <trkpt lat="45.82693" lon="4.22994">
        <ele>511.931</ele>
        <time>2018-11-05T14:53:45Z</time>
      </trkpt>
      <trkpt lat="45.82696" lon="4.22996">
        <ele>511.115</ele>
        <time>2018-11-05T14:53:50Z</time>
      </trkpt>
      <trkpt lat="45.82701" lon="4.22998">
        <ele>510.101</ele>
        <time>2018-11-05T14:53:56Z</time>
      </trkpt>
      <trkpt lat="45.82707" lon="4.23">
        <ele>509.278</ele>
        <time>2018-11-05T14:54:02Z</time>
      </trkpt>
      <trkpt lat="45.82712" lon="4.23002">
        <ele>508.506</ele>
        <time>2018-11-05T14:54:07Z</time>
      </trkpt>
      <trkpt lat="45.82716" lon="4.23007">
        <ele>508.23</ele>
        <time>2018-11-05T14:54:13Z</time>
      </trkpt>
      <trkpt lat="45.82719" lon="4.23011">
        <ele>508.323</ele>
        <time>2018-11-05T14:54:18Z</time>
      </trkpt>
      <trkpt lat="45.82723" lon="4.23016">
        <ele>508.638</ele>
        <time>2018-11-05T14:54:24Z</time>
      </trkpt>
      <trkpt lat="45.82725" lon="4.2302">
        <ele>508.186</ele>
        <time>2018-11-05T14:54:30Z</time>
      </trkpt>
      <trkpt lat="45.82727" lon="4.23021">
        <ele>507.535</ele>
        <time>2018-11-05T14:54:35Z</time>
      </trkpt>
      <trkpt lat="45.8273" lon="4.23027">
        <ele>507.082</ele>
        <time>2018-11-05T14:54:40Z</time>
      </trkpt>
      <trkpt lat="45.82732" lon="4.23042">
        <ele>507.024</ele>
        <time>2018-11-05T14:54:46Z</time>
      </trkpt>
      <trkpt lat="45.82733" lon="4.23045">
        <ele>507.49</ele>
        <time>2018-11-05T14:54:52Z</time>
      </trkpt>
      <trkpt lat="45.82734" lon="4.23047">
        <ele>507.568</ele>
        <time>2018-11-05T14:54:58Z</time>
      </trkpt>
      <trkpt lat="45.82736" lon="4.23051">
        <ele>507.898</ele>
        <time>2018-11-05T14:55:04Z</time>
      </trkpt>
      <trkpt lat="45.82738" lon="4.23057">
        <ele>508.215</ele>
        <time>2018-11-05T14:55:09Z</time>
      </trkpt>
      <trkpt lat="45.82743" lon="4.23061">
        <ele>508.019</ele>
        <time>2018-11-05T14:55:15Z</time>
      </trkpt>
      <trkpt lat="45.82744" lon="4.23065">
        <ele>508.667</ele>
        <time>2018-11-05T14:55:20Z</time>
      </trkpt>
      <trkpt lat="45.82746" lon="4.23071">
        <ele>508.899</ele>
        <time>2018-11-05T14:55:25Z</time>
      </trkpt>
      <trkpt lat="45.82749" lon="4.23077">
        <ele>509.608</ele>
        <time>2018-11-05T14:55:31Z</time>
      </trkpt>
      <trkpt lat="45.82754" lon="4.23086">
        <ele>510.175</ele>
        <time>2018-11-05T14:55:37Z</time>
      </trkpt>
      <trkpt lat="45.82757" lon="4.23089">
        <ele>510.22</ele>
        <time>2018-11-05T14:55:42Z</time>
      </trkpt>
      <trkpt lat="45.8276" lon="4.23098">
        <ele>510.204</ele>
        <time>2018-11-05T14:55:48Z</time>
      </trkpt>
      <trkpt lat="45.82764" lon="4.23105">
        <ele>509.847</ele>
        <time>2018-11-05T14:55:54Z</time>
      </trkpt>
      <trkpt lat="45.82768" lon="4.2311">
        <ele>509.278</ele>
        <time>2018-11-05T14:56:00Z</time>
      </trkpt>
      <trkpt lat="45.82773" lon="4.23116">
        <ele>508.253</ele>
        <time>2018-11-05T14:56:05Z</time>
      </trkpt>
      <trkpt lat="45.82779" lon="4.23126">
        <ele>507.569</ele>
        <time>2018-11-05T14:56:11Z</time>
      </trkpt>
      <trkpt lat="45.82783" lon="4.23136">
        <ele>507.258</ele>
        <time>2018-11-05T14:56:16Z</time>
      </trkpt>
      <trkpt lat="45.82786" lon="4.23142">
        <ele>506.672</ele>
        <time>2018-11-05T14:56:22Z</time>
      </trkpt>
      <trkpt lat="45.82788" lon="4.23151">
        <ele>506.84</ele>
        <time>2018-11-05T14:56:28Z</time>
      </trkpt>
      <trkpt lat="45.8279" lon="4.23158">
        <ele>506.849</ele>
        <time>2018-11-05T14:56:34Z</time>
      </trkpt>
      <trkpt lat="45.82794" lon="4.23164">
        <ele>506.565</ele>
        <time>2018-11-05T14:56:39Z</time>
      </trkpt>
      <trkpt lat="45.82803" lon="4.23175">
        <ele>506.738</ele>
        <time>2018-11-05T14:56:45Z</time>
      </trkpt>
      <trkpt lat="45.82809" lon="4.23186">
        <ele>507.096</ele>
        <time>2018-11-05T14:56:51Z</time>
      </trkpt>
      <trkpt lat="45.82811" lon="4.23191">
        <ele>506.927</ele>
        <time>2018-11-05T14:56:56Z</time>
      </trkpt>
      <trkpt lat="45.82814" lon="4.23198">
        <ele>506.35</ele>
        <time>2018-11-05T14:57:02Z</time>
      </trkpt>
      <trkpt lat="45.82816" lon="4.23205">
        <ele>505.468</ele>
        <time>2018-11-05T14:57:08Z</time>
      </trkpt>
      <trkpt lat="45.8282" lon="4.23211">
        <ele>504.038</ele>
        <time>2018-11-05T14:57:14Z</time>
      </trkpt>
      <trkpt lat="45.82823" lon="4.23216">
        <ele>502.684</ele>
        <time>2018-11-05T14:57:20Z</time>
      </trkpt>
      <trkpt lat="45.82826" lon="4.23222">
        <ele>501.32</ele>
        <time>2018-11-05T14:57:25Z</time>
      </trkpt>
      <trkpt lat="45.82831" lon="4.23229">
        <ele>500.321</ele>
        <time>2018-11-05T14:57:31Z</time>
      </trkpt>
      <trkpt lat="45.82834" lon="4.2323">
        <ele>499.344</ele>
        <time>2018-11-05T14:57:36Z</time>
      </trkpt>
      <trkpt lat="45.82838" lon="4.23233">
        <ele>498.615</ele>
        <time>2018-11-05T14:57:41Z</time>
      </trkpt>
      <trkpt lat="45.82842" lon="4.23235">
        <ele>497.67</ele>
        <time>2018-11-05T14:57:47Z</time>
      </trkpt>
      <trkpt lat="45.82851" lon="4.23237">
        <ele>496.648</ele>
        <time>2018-11-05T14:57:53Z</time>
      </trkpt>
      <trkpt lat="45.82854" lon="4.23237">
        <ele>495.999</ele>
        <time>2018-11-05T14:57:58Z</time>
      </trkpt>
      <trkpt lat="45.82855" lon="4.23244">
        <ele>495.456</ele>
        <time>2018-11-05T14:58:04Z</time>
      </trkpt>
      <trkpt lat="45.82855" lon="4.23245">
        <ele>494.611</ele>
        <time>2018-11-05T14:58:09Z</time>
      </trkpt>
      <trkpt lat="45.82857" lon="4.23244">
        <ele>494.016</ele>
        <time>2018-11-05T14:58:14Z</time>
      </trkpt>
      <trkpt lat="45.82856" lon="4.23244">
        <ele>493.159</ele>
        <time>2018-11-05T14:58:20Z</time>
      </trkpt>
      <trkpt lat="45.82856" lon="4.23242">
        <ele>491.962</ele>
        <time>2018-11-05T14:58:26Z</time>
      </trkpt>
      <trkpt lat="45.82858" lon="4.23241">
        <ele>489.868</ele>
        <time>2018-11-05T14:58:31Z</time>
      </trkpt>
      <trkpt lat="45.82859" lon="4.23241">
        <ele>487.641</ele>
        <time>2018-11-05T14:58:37Z</time>
      </trkpt>
      <trkpt lat="45.8286" lon="4.23241">
        <ele>485.293</ele>
        <time>2018-11-05T14:58:43Z</time>
      </trkpt>
      <trkpt lat="45.82867" lon="4.23243">
        <ele>483.755</ele>
        <time>2018-11-05T14:58:49Z</time>
      </trkpt>
      <trkpt lat="45.82868" lon="4.23243">
        <ele>483.056</ele>
        <time>2018-11-05T14:58:54Z</time>
      </trkpt>
      <trkpt lat="45.82871" lon="4.23243">
        <ele>483.028</ele>
        <time>2018-11-05T14:58:59Z</time>
      </trkpt>
      <trkpt lat="45.82872" lon="4.23244">
        <ele>482.909</ele>
        <time>2018-11-05T14:59:05Z</time>
      </trkpt>
      <trkpt lat="45.82872" lon="4.23246">
        <ele>483.064</ele>
        <time>2018-11-05T14:59:10Z</time>
      </trkpt>
      <trkpt lat="45.82874" lon="4.23248">
        <ele>483.397</ele>
        <time>2018-11-05T14:59:15Z</time>
      </trkpt>
      <trkpt lat="45.82877" lon="4.2325">
        <ele>483.483</ele>
        <time>2018-11-05T14:59:21Z</time>
      </trkpt>
      <trkpt lat="45.8288" lon="4.23252">
        <ele>483.416</ele>
        <time>2018-11-05T14:59:26Z</time>
      </trkpt>
      <trkpt lat="45.82883" lon="4.23255">
        <ele>483.534</ele>
        <time>2018-11-05T14:59:31Z</time>
      </trkpt>
      <trkpt lat="45.82886" lon="4.23257">
        <ele>483.742</ele>
        <time>2018-11-05T14:59:37Z</time>
      </trkpt>
      <trkpt lat="45.82891" lon="4.23264">
        <ele>483.833</ele>
        <time>2018-11-05T14:59:42Z</time>
      </trkpt>
      <trkpt lat="45.82894" lon="4.23269">
        <ele>484.626</ele>
        <time>2018-11-05T14:59:48Z</time>
      </trkpt>
      <trkpt lat="45.82896" lon="4.2327">
        <ele>485.606</ele>
        <time>2018-11-05T14:59:53Z</time>
      </trkpt>
      <trkpt lat="45.82905" lon="4.23271">
        <ele>486.602</ele>
        <time>2018-11-05T14:59:59Z</time>
      </trkpt>
      <trkpt lat="45.8291" lon="4.23277">
        <ele>486.661</ele>
        <time>2018-11-05T15:00:05Z</time>
      </trkpt>
      <trkpt lat="45.82915" lon="4.23279">
        <ele>486.744</ele>
        <time>2018-11-05T15:00:10Z</time>
      </trkpt>
      <trkpt lat="45.8292" lon="4.23284">
        <ele>487.623</ele>
        <time>2018-11-05T15:00:16Z</time>
      </trkpt>
      <trkpt lat="45.82924" lon="4.23285">
        <ele>488.493</ele>
        <time>2018-11-05T15:00:21Z</time>
      </trkpt>
      <trkpt lat="45.82926" lon="4.23287">
        <ele>489.015</ele>
        <time>2018-11-05T15:00:27Z</time>
      </trkpt>
      <trkpt lat="45.8293" lon="4.2329">
        <ele>489.904</ele>
        <time>2018-11-05T15:00:32Z</time>
      </trkpt>
      <trkpt lat="45.82936" lon="4.23294">
        <ele>490.939</ele>
        <time>2018-11-05T15:00:38Z</time>
      </trkpt>
      <trkpt lat="45.82939" lon="4.23297">
        <ele>491.617</ele>
        <time>2018-11-05T15:00:44Z</time>
      </trkpt>
      <trkpt lat="45.82944" lon="4.23298">
        <ele>492.325</ele>
        <time>2018-11-05T15:00:49Z</time>
      </trkpt>
      <trkpt lat="45.82948" lon="4.233">
        <ele>493.601</ele>
        <time>2018-11-05T15:00:55Z</time>
      </trkpt>
      <trkpt lat="45.82956" lon="4.23303">
        <ele>494.648</ele>
        <time>2018-11-05T15:01:00Z</time>
      </trkpt>
      <trkpt lat="45.82964" lon="4.23305">
        <ele>495.561</ele>
        <time>2018-11-05T15:01:06Z</time>
      </trkpt>
      <trkpt lat="45.8297" lon="4.23309">
        <ele>495.737</ele>
        <time>2018-11-05T15:01:12Z</time>
      </trkpt>
      <trkpt lat="45.82979" lon="4.23315">
        <ele>495.804</ele>
        <time>2018-11-05T15:01:18Z</time>
      </trkpt>
      <trkpt lat="45.82985" lon="4.23319">
        <ele>495.923</ele>
        <time>2018-11-05T15:01:24Z</time>
      </trkpt>
      <trkpt lat="45.82988" lon="4.23324">
        <ele>495.861</ele>
        <time>2018-11-05T15:01:30Z</time>
      </trkpt>
      <trkpt lat="45.82993" lon="4.23327">
        <ele>496.509</ele>
        <time>2018-11-05T15:01:36Z</time>
      </trkpt>
      <trkpt lat="45.83" lon="4.2333">
        <ele>497.061</ele>
        <time>2018-11-05T15:01:41Z</time>
      </trkpt>
      <trkpt lat="45.83004" lon="4.23333">
        <ele>497.917</ele>
        <time>2018-11-05T15:01:46Z</time>
      </trkpt>
      <trkpt lat="45.83008" lon="4.23338">
        <ele>499.1</ele>
        <time>2018-11-05T15:01:52Z</time>
      </trkpt>
      <trkpt lat="45.83011" lon="4.23345">
        <ele>500.13</ele>
        <time>2018-11-05T15:01:57Z</time>
      </trkpt>
      <trkpt lat="45.83015" lon="4.23355">
        <ele>501.23</ele>
        <time>2018-11-05T15:02:03Z</time>
      </trkpt>
      <trkpt lat="45.83015" lon="4.23359">
        <ele>502.722</ele>
        <time>2018-11-05T15:02:08Z</time>
      </trkpt>
      <trkpt lat="45.83016" lon="4.23363">
        <ele>504.328</ele>
        <time>2018-11-05T15:02:14Z</time>
      </trkpt>
      <trkpt lat="45.83017" lon="4.23369">
        <ele>505.293</ele>
        <time>2018-11-05T15:02:20Z</time>
      </trkpt>
      <trkpt lat="45.83018" lon="4.23372">
        <ele>506.337</ele>
        <time>2018-11-05T15:02:26Z</time>
      </trkpt>
      <trkpt lat="45.83019" lon="4.23377">
        <ele>507.389</ele>
        <time>2018-11-05T15:02:31Z</time>
      </trkpt>
      <trkpt lat="45.8302" lon="4.23382">
        <ele>508.166</ele>
        <time>2018-11-05T15:02:37Z</time>
      </trkpt>
      <trkpt lat="45.83019" lon="4.23388">
        <ele>508.454</ele>
        <time>2018-11-05T15:02:43Z</time>
      </trkpt>
      <trkpt lat="45.83021" lon="4.2339">
        <ele>508.313</ele>
        <time>2018-11-05T15:02:49Z</time>
      </trkpt>
      <trkpt lat="45.83021" lon="4.23391">
        <ele>508.355</ele>
        <time>2018-11-05T15:02:54Z</time>
      </trkpt>
      <trkpt lat="45.83022" lon="4.23391">
        <ele>508.46</ele>
        <time>2018-11-05T15:02:59Z</time>
      </trkpt>
      <trkpt lat="45.83023" lon="4.23391">
        <ele>508.591</ele>
        <time>2018-11-05T15:03:05Z</time>
      </trkpt>
      <trkpt lat="45.83023" lon="4.23393">
        <ele>508.658</ele>
        <time>2018-11-05T15:03:10Z</time>
      </trkpt>
      <trkpt lat="45.83024" lon="4.23395">
        <ele>509.134</ele>
        <time>2018-11-05T15:03:16Z</time>
      </trkpt>
      <trkpt lat="45.83024" lon="4.23397">
        <ele>509.423</ele>
        <time>2018-11-05T15:03:21Z</time>
      </trkpt>
      <trkpt lat="45.83026" lon="4.23401">
        <ele>509.13</ele>
        <time>2018-11-05T15:03:27Z</time>
      </trkpt>
      <trkpt lat="45.83026" lon="4.23402">
        <ele>508.893</ele>
        <time>2018-11-05T15:03:32Z</time>
      </trkpt>
      <trkpt lat="45.83026" lon="4.23402">
        <ele>508.72</ele>
        <time>2018-11-05T15:03:37Z</time>
      </trkpt>
      <trkpt lat="45.83026" lon="4.23402">
        <ele>508.78</ele>
        <time>2018-11-05T15:03:43Z</time>
      </trkpt>
      <trkpt lat="45.83026" lon="4.23402">
        <ele>508.794</ele>
        <time>2018-11-05T15:03:49Z</time>
      </trkpt>
      <trkpt lat="45.83026" lon="4.23402">
        <ele>508.762</ele>
        <time>2018-11-05T15:03:54Z</time>
      </trkpt>
      <trkpt lat="45.83026" lon="4.23402">
        <ele>508.735</ele>
        <time>2018-11-05T15:04:00Z</time>
      </trkpt>
      <trkpt lat="45.83026" lon="4.23402">
        <ele>508.737</ele>
        <time>2018-11-05T15:04:05Z</time>
      </trkpt>
      <trkpt lat="45.83026" lon="4.23402">
        <ele>508.801</ele>
        <time>2018-11-05T15:04:11Z</time>
      </trkpt>
      <trkpt lat="45.83026" lon="4.23402">
        <ele>508.913</ele>
        <time>2018-11-05T15:04:17Z</time>
      </trkpt>
      <trkpt lat="45.83026" lon="4.23402">
        <ele>509.059</ele>
        <time>2018-11-05T15:04:23Z</time>
      </trkpt>
      <trkpt lat="45.83026" lon="4.23402">
        <ele>509.165</ele>
        <time>2018-11-05T15:04:28Z</time>
      </trkpt>
      <trkpt lat="45.83026" lon="4.23402">
        <ele>509.261</ele>
        <time>2018-11-05T15:04:33Z</time>
      </trkpt>
      <trkpt lat="45.83026" lon="4.23402">
        <ele>509.452</ele>
        <time>2018-11-05T15:04:39Z</time>
      </trkpt>
      <trkpt lat="45.83026" lon="4.23402">
        <ele>509.667</ele>
        <time>2018-11-05T15:04:44Z</time>
      </trkpt>
      <trkpt lat="45.83026" lon="4.23402">
        <ele>509.953</ele>
        <time>2018-11-05T15:04:50Z</time>
      </trkpt>
      <trkpt lat="45.83026" lon="4.23402">
        <ele>510.262</ele>
        <time>2018-11-05T15:04:56Z</time>
      </trkpt>
      <trkpt lat="45.83026" lon="4.23402">
        <ele>510.556</ele>
        <time>2018-11-05T15:05:01Z</time>
      </trkpt>
      <trkpt lat="45.83026" lon="4.23402">
        <ele>510.915</ele>
        <time>2018-11-05T15:05:07Z</time>
      </trkpt>
      <trkpt lat="45.83026" lon="4.23402">
        <ele>511.244</ele>
        <time>2018-11-05T15:05:13Z</time>
      </trkpt>
      <trkpt lat="45.83026" lon="4.23402">
        <ele>511.532</ele>
        <time>2018-11-05T15:05:18Z</time>
      </trkpt>
      <trkpt lat="45.83026" lon="4.23402">
        <ele>511.814</ele>
        <time>2018-11-05T15:05:23Z</time>
      </trkpt>
      <trkpt lat="45.83026" lon="4.23402">
        <ele>512.049</ele>
        <time>2018-11-05T15:05:29Z</time>
      </trkpt>
      <trkpt lat="45.83026" lon="4.23402">
        <ele>512.091</ele>
        <time>2018-11-05T15:05:35Z</time>
      </trkpt>
      <trkpt lat="45.83026" lon="4.23402">
        <ele>512.052</ele>
        <time>2018-11-05T15:05:41Z</time>
      </trkpt>
      <trkpt lat="45.83026" lon="4.23402">
        <ele>511.91</ele>
        <time>2018-11-05T15:05:47Z</time>
      </trkpt>
      <trkpt lat="45.83026" lon="4.23402">
        <ele>511.693</ele>
        <time>2018-11-05T15:05:53Z</time>
      </trkpt>
      <trkpt lat="45.83026" lon="4.23403">
        <ele>511.228</ele>
        <time>2018-11-05T15:05:59Z</time>
      </trkpt>
      <trkpt lat="45.83026" lon="4.23403">
        <ele>511.011</ele>
        <time>2018-11-05T15:06:05Z</time>
      </trkpt>
      <trkpt lat="45.83026" lon="4.23403">
        <ele>510.898</ele>
        <time>2018-11-05T15:06:10Z</time>
      </trkpt>
      <trkpt lat="45.83026" lon="4.23403">
        <ele>510.851</ele>
        <time>2018-11-05T15:06:16Z</time>
      </trkpt>
      <trkpt lat="45.83026" lon="4.23403">
        <ele>510.809</ele>
        <time>2018-11-05T15:06:22Z</time>
      </trkpt>
      <trkpt lat="45.83026" lon="4.23403">
        <ele>510.741</ele>
        <time>2018-11-05T15:06:27Z</time>
      </trkpt>
      <trkpt lat="45.83026" lon="4.23403">
        <ele>510.663</ele>
        <time>2018-11-05T15:06:32Z</time>
      </trkpt>
      <trkpt lat="45.83026" lon="4.23403">
        <ele>510.636</ele>
        <time>2018-11-05T15:06:37Z</time>
      </trkpt>
      <trkpt lat="45.83026" lon="4.23403">
        <ele>510.612</ele>
        <time>2018-11-05T15:06:43Z</time>
      </trkpt>
      <trkpt lat="45.83026" lon="4.23404">
        <ele>509.923</ele>
        <time>2018-11-05T15:06:48Z</time>
      </trkpt>
      <trkpt lat="45.83026" lon="4.23404">
        <ele>509.789</ele>
        <time>2018-11-05T15:06:53Z</time>
      </trkpt>
      <trkpt lat="45.83026" lon="4.23404">
        <ele>509.616</ele>
        <time>2018-11-05T15:06:58Z</time>
      </trkpt>
      <trkpt lat="45.83026" lon="4.23404">
        <ele>509.125</ele>
        <time>2018-11-05T15:07:03Z</time>
      </trkpt>
      <trkpt lat="45.83026" lon="4.23404">
        <ele>508.098</ele>
        <time>2018-11-05T15:07:08Z</time>
      </trkpt>
      <trkpt lat="45.83026" lon="4.23404">
        <ele>508.01</ele>
        <time>2018-11-05T15:07:14Z</time>
      </trkpt>
      <trkpt lat="45.83026" lon="4.23404">
        <ele>507.666</ele>
        <time>2018-11-05T15:07:19Z</time>
      </trkpt>
      <trkpt lat="45.83026" lon="4.23404">
        <ele>507.287</ele>
        <time>2018-11-05T15:07:25Z</time>
      </trkpt>
      <trkpt lat="45.83027" lon="4.23405">
        <ele>506.791</ele>
        <time>2018-11-05T15:07:30Z</time>
      </trkpt>
      <trkpt lat="45.83027" lon="4.23408">
        <ele>506.256</ele>
        <time>2018-11-05T15:07:35Z</time>
      </trkpt>
      <trkpt lat="45.83028" lon="4.23412">
        <ele>505.392</ele>
        <time>2018-11-05T15:07:41Z</time>
      </trkpt>
      <trkpt lat="45.8303" lon="4.23416">
        <ele>505.152</ele>
        <time>2018-11-05T15:07:46Z</time>
      </trkpt>
      <trkpt lat="45.83034" lon="4.23423">
        <ele>504.522</ele>
        <time>2018-11-05T15:07:52Z</time>
      </trkpt>
      <trkpt lat="45.83037" lon="4.23427">
        <ele>504.026</ele>
        <time>2018-11-05T15:07:57Z</time>
      </trkpt>
      <trkpt lat="45.83038" lon="4.23433">
        <ele>504.422</ele>
        <time>2018-11-05T15:08:03Z</time>
      </trkpt>
      <trkpt lat="45.83039" lon="4.23437">
        <ele>504.59</ele>
        <time>2018-11-05T15:08:08Z</time>
      </trkpt>
      <trkpt lat="45.83041" lon="4.23442">
        <ele>504.841</ele>
        <time>2018-11-05T15:08:13Z</time>
      </trkpt>
      <trkpt lat="45.83045" lon="4.23449">
        <ele>505.502</ele>
        <time>2018-11-05T15:08:18Z</time>
      </trkpt>
      <trkpt lat="45.83049" lon="4.23457">
        <ele>505.711</ele>
        <time>2018-11-05T15:08:24Z</time>
      </trkpt>
      <trkpt lat="45.83052" lon="4.23462">
        <ele>505.537</ele>
        <time>2018-11-05T15:08:30Z</time>
      </trkpt>
      <trkpt lat="45.83058" lon="4.23468">
        <ele>505.618</ele>
        <time>2018-11-05T15:08:36Z</time>
      </trkpt>
      <trkpt lat="45.83068" lon="4.23473">
        <ele>505.445</ele>
        <time>2018-11-05T15:08:41Z</time>
      </trkpt>
      <trkpt lat="45.83074" lon="4.23477">
        <ele>504.812</ele>
        <time>2018-11-05T15:08:47Z</time>
      </trkpt>
      <trkpt lat="45.83077" lon="4.23478">
        <ele>503.966</ele>
        <time>2018-11-05T15:08:52Z</time>
      </trkpt>
      <trkpt lat="45.83083" lon="4.2348">
        <ele>502.858</ele>
        <time>2018-11-05T15:08:58Z</time>
      </trkpt>
      <trkpt lat="45.83086" lon="4.23481">
        <ele>501.933</ele>
        <time>2018-11-05T15:09:03Z</time>
      </trkpt>
      <trkpt lat="45.83091" lon="4.23483">
        <ele>501.132</ele>
        <time>2018-11-05T15:09:09Z</time>
      </trkpt>
      <trkpt lat="45.83095" lon="4.23481">
        <ele>500.723</ele>
        <time>2018-11-05T15:09:14Z</time>
      </trkpt>
      <trkpt lat="45.83101" lon="4.23479">
        <ele>499.545</ele>
        <time>2018-11-05T15:09:20Z</time>
      </trkpt>
      <trkpt lat="45.83109" lon="4.2348">
        <ele>498.685</ele>
        <time>2018-11-05T15:09:25Z</time>
      </trkpt>
      <trkpt lat="45.83119" lon="4.23479">
        <ele>497.724</ele>
        <time>2018-11-05T15:09:31Z</time>
      </trkpt>
      <trkpt lat="45.83123" lon="4.23477">
        <ele>496.341</ele>
        <time>2018-11-05T15:09:37Z</time>
      </trkpt>
      <trkpt lat="45.8313" lon="4.23478">
        <ele>494.815</ele>
        <time>2018-11-05T15:09:42Z</time>
      </trkpt>
      <trkpt lat="45.83135" lon="4.23479">
        <ele>494.321</ele>
        <time>2018-11-05T15:09:47Z</time>
      </trkpt>
      <trkpt lat="45.8314" lon="4.23477">
        <ele>493.503</ele>
        <time>2018-11-05T15:09:53Z</time>
      </trkpt>
      <trkpt lat="45.83145" lon="4.23479">
        <ele>492.819</ele>
        <time>2018-11-05T15:09:58Z</time>
      </trkpt>
      <trkpt lat="45.83148" lon="4.2348">
        <ele>492.905</ele>
        <time>2018-11-05T15:10:03Z</time>
      </trkpt>
      <trkpt lat="45.83151" lon="4.23477">
        <ele>493.212</ele>
        <time>2018-11-05T15:10:09Z</time>
      </trkpt>
      <trkpt lat="45.83154" lon="4.2347">
        <ele>493.238</ele>
        <time>2018-11-05T15:10:15Z</time>
      </trkpt>
      <trkpt lat="45.83157" lon="4.23464">
        <ele>493.054</ele>
        <time>2018-11-05T15:10:21Z</time>
      </trkpt>
      <trkpt lat="45.83161" lon="4.23463">
        <ele>492.788</ele>
        <time>2018-11-05T15:10:27Z</time>
      </trkpt>
      <trkpt lat="45.83172" lon="4.23463">
        <ele>493.185</ele>
        <time>2018-11-05T15:10:33Z</time>
      </trkpt>
      <trkpt lat="45.83178" lon="4.23462">
        <ele>493.02</ele>
        <time>2018-11-05T15:10:39Z</time>
      </trkpt>
      <trkpt lat="45.83183" lon="4.23459">
        <ele>493.175</ele>
        <time>2018-11-05T15:10:44Z</time>
      </trkpt>
      <trkpt lat="45.83189" lon="4.23458">
        <ele>493.734</ele>
        <time>2018-11-05T15:10:50Z</time>
      </trkpt>
      <trkpt lat="45.83199" lon="4.23453">
        <ele>494.435</ele>
        <time>2018-11-05T15:10:56Z</time>
      </trkpt>
      <trkpt lat="45.83206" lon="4.23452">
        <ele>494.752</ele>
        <time>2018-11-05T15:11:01Z</time>
      </trkpt>
      <trkpt lat="45.83215" lon="4.23452">
        <ele>494.924</ele>
        <time>2018-11-05T15:11:07Z</time>
      </trkpt>
      <trkpt lat="45.83219" lon="4.23454">
        <ele>495.058</ele>
        <time>2018-11-05T15:11:12Z</time>
      </trkpt>
      <trkpt lat="45.83224" lon="4.23459">
        <ele>495.633</ele>
        <time>2018-11-05T15:11:17Z</time>
      </trkpt>
      <trkpt lat="45.8323" lon="4.23463">
        <ele>496.373</ele>
        <time>2018-11-05T15:11:23Z</time>
      </trkpt>
      <trkpt lat="45.83238" lon="4.23467">
        <ele>497.337</ele>
        <time>2018-11-05T15:11:29Z</time>
      </trkpt>
      <trkpt lat="45.83245" lon="4.23471">
        <ele>498.411</ele>
        <time>2018-11-05T15:11:35Z</time>
      </trkpt>
      <trkpt lat="45.8325" lon="4.23471">
        <ele>499.371</ele>
        <time>2018-11-05T15:11:41Z</time>
      </trkpt>
      <trkpt lat="45.83256" lon="4.23475">
        <ele>499.676</ele>
        <time>2018-11-05T15:11:47Z</time>
      </trkpt>
      <trkpt lat="45.83265" lon="4.2348">
        <ele>500.421</ele>
        <time>2018-11-05T15:11:53Z</time>
      </trkpt>
      <trkpt lat="45.8327" lon="4.23482">
        <ele>501.496</ele>
        <time>2018-11-05T15:11:59Z</time>
      </trkpt>
      <trkpt lat="45.83277" lon="4.23483">
        <ele>502.037</ele>
        <time>2018-11-05T15:12:05Z</time>
      </trkpt>
      <trkpt lat="45.83283" lon="4.23486">
        <ele>503.011</ele>
        <time>2018-11-05T15:12:10Z</time>
      </trkpt>
      <trkpt lat="45.83289" lon="4.23488">
        <ele>504.916</ele>
        <time>2018-11-05T15:12:16Z</time>
      </trkpt>
      <trkpt lat="45.83296" lon="4.23494">
        <ele>506.652</ele>
        <time>2018-11-05T15:12:22Z</time>
      </trkpt>
      <trkpt lat="45.83299" lon="4.23501">
        <ele>507.974</ele>
        <time>2018-11-05T15:12:27Z</time>
      </trkpt>
      <trkpt lat="45.83305" lon="4.23507">
        <ele>509.027</ele>
        <time>2018-11-05T15:12:32Z</time>
      </trkpt>
      <trkpt lat="45.8331" lon="4.23515">
        <ele>510.433</ele>
        <time>2018-11-05T15:12:38Z</time>
      </trkpt>
      <trkpt lat="45.83316" lon="4.23522">
        <ele>511.418</ele>
        <time>2018-11-05T15:12:43Z</time>
      </trkpt>
      <trkpt lat="45.83321" lon="4.23527">
        <ele>512.464</ele>
        <time>2018-11-05T15:12:49Z</time>
      </trkpt>
      <trkpt lat="45.83328" lon="4.23534">
        <ele>513.103</ele>
        <time>2018-11-05T15:12:54Z</time>
      </trkpt>
      <trkpt lat="45.83336" lon="4.23541">
        <ele>514.208</ele>
        <time>2018-11-05T15:13:00Z</time>
      </trkpt>
      <trkpt lat="45.8334" lon="4.23544">
        <ele>515.201</ele>
        <time>2018-11-05T15:13:05Z</time>
      </trkpt>
      <trkpt lat="45.83348" lon="4.23546">
        <ele>516.417</ele>
        <time>2018-11-05T15:13:11Z</time>
      </trkpt>
      <trkpt lat="45.83356" lon="4.23553">
        <ele>517.771</ele>
        <time>2018-11-05T15:13:17Z</time>
      </trkpt>
      <trkpt lat="45.83361" lon="4.23557">
        <ele>518.402</ele>
        <time>2018-11-05T15:13:22Z</time>
      </trkpt>
      <trkpt lat="45.83369" lon="4.23563">
        <ele>518.252</ele>
        <time>2018-11-05T15:13:28Z</time>
      </trkpt>
      <trkpt lat="45.83375" lon="4.23568">
        <ele>517.617</ele>
        <time>2018-11-05T15:13:33Z</time>
      </trkpt>
      <trkpt lat="45.83379" lon="4.23573">
        <ele>517.205</ele>
        <time>2018-11-05T15:13:39Z</time>
      </trkpt>
      <trkpt lat="45.83384" lon="4.2358">
        <ele>517.06</ele>
        <time>2018-11-05T15:13:44Z</time>
      </trkpt>
      <trkpt lat="45.83389" lon="4.23588">
        <ele>517.259</ele>
        <time>2018-11-05T15:13:49Z</time>
      </trkpt>
      <trkpt lat="45.83393" lon="4.23593">
        <ele>517.176</ele>
        <time>2018-11-05T15:13:54Z</time>
      </trkpt>
      <trkpt lat="45.834" lon="4.236">
        <ele>517.255</ele>
        <time>2018-11-05T15:14:00Z</time>
      </trkpt>
      <trkpt lat="45.83408" lon="4.23605">
        <ele>517.018</ele>
        <time>2018-11-05T15:14:06Z</time>
      </trkpt>
      <trkpt lat="45.83415" lon="4.23609">
        <ele>517.169</ele>
        <time>2018-11-05T15:14:12Z</time>
      </trkpt>
      <trkpt lat="45.8342" lon="4.2361">
        <ele>517.669</ele>
        <time>2018-11-05T15:14:17Z</time>
      </trkpt>
      <trkpt lat="45.83425" lon="4.23615">
        <ele>517.635</ele>
        <time>2018-11-05T15:14:23Z</time>
      </trkpt>
      <trkpt lat="45.83433" lon="4.23621">
        <ele>517.456</ele>
        <time>2018-11-05T15:14:29Z</time>
      </trkpt>
      <trkpt lat="45.83438" lon="4.23623">
        <ele>517.945</ele>
        <time>2018-11-05T15:14:34Z</time>
      </trkpt>
      <trkpt lat="45.83444" lon="4.23628">
        <ele>518.622</ele>
        <time>2018-11-05T15:14:40Z</time>
      </trkpt>
      <trkpt lat="45.83451" lon="4.23633">
        <ele>519.758</ele>
        <time>2018-11-05T15:14:46Z</time>
      </trkpt>
      <trkpt lat="45.83457" lon="4.23639">
        <ele>521.523</ele>
        <time>2018-11-05T15:14:52Z</time>
      </trkpt>
      <trkpt lat="45.83463" lon="4.23644">
        <ele>522.478</ele>
        <time>2018-11-05T15:14:57Z</time>
      </trkpt>
      <trkpt lat="45.83469" lon="4.23649">
        <ele>522.942</ele>
        <time>2018-11-05T15:15:02Z</time>
      </trkpt>
      <trkpt lat="45.83476" lon="4.23653">
        <ele>523.535</ele>
        <time>2018-11-05T15:15:07Z</time>
      </trkpt>
      <trkpt lat="45.83484" lon="4.23656">
        <ele>524.019</ele>
        <time>2018-11-05T15:15:13Z</time>
      </trkpt>
      <trkpt lat="45.83491" lon="4.23655">
        <ele>524.289</ele>
        <time>2018-11-05T15:15:19Z</time>
      </trkpt>
      <trkpt lat="45.83497" lon="4.23654">
        <ele>524.142</ele>
        <time>2018-11-05T15:15:24Z</time>
      </trkpt>
      <trkpt lat="45.83506" lon="4.23653">
        <ele>524.008</ele>
        <time>2018-11-05T15:15:29Z</time>
      </trkpt>
      <trkpt lat="45.83512" lon="4.23649">
        <ele>524.026</ele>
        <time>2018-11-05T15:15:34Z</time>
      </trkpt>
      <trkpt lat="45.8352" lon="4.23646">
        <ele>524.325</ele>
        <time>2018-11-05T15:15:39Z</time>
      </trkpt>
      <trkpt lat="45.83526" lon="4.23645">
        <ele>524.775</ele>
        <time>2018-11-05T15:15:44Z</time>
      </trkpt>
      <trkpt lat="45.83534" lon="4.23642">
        <ele>525.825</ele>
        <time>2018-11-05T15:15:50Z</time>
      </trkpt>
      <trkpt lat="45.83543" lon="4.23637">
        <ele>526.448</ele>
        <time>2018-11-05T15:15:56Z</time>
      </trkpt>
      <trkpt lat="45.83548" lon="4.23635">
        <ele>526.9</ele>
        <time>2018-11-05T15:16:01Z</time>
      </trkpt>
      <trkpt lat="45.83554" lon="4.2363">
        <ele>527.304</ele>
        <time>2018-11-05T15:16:07Z</time>
      </trkpt>
      <trkpt lat="45.83563" lon="4.23624">
        <ele>527.543</ele>
        <time>2018-11-05T15:16:13Z</time>
      </trkpt>
      <trkpt lat="45.83569" lon="4.23619">
        <ele>527.866</ele>
        <time>2018-11-05T15:16:18Z</time>
      </trkpt>
      <trkpt lat="45.83577" lon="4.23617">
        <ele>528.382</ele>
        <time>2018-11-05T15:16:23Z</time>
      </trkpt>
      <trkpt lat="45.83581" lon="4.23615">
        <ele>528.466</ele>
        <time>2018-11-05T15:16:29Z</time>
      </trkpt>
      <trkpt lat="45.83586" lon="4.23616">
        <ele>528.587</ele>
        <time>2018-11-05T15:16:34Z</time>
      </trkpt>
      <trkpt lat="45.83593" lon="4.2362">
        <ele>528.662</ele>
        <time>2018-11-05T15:16:39Z</time>
      </trkpt>
      <trkpt lat="45.83599" lon="4.23627">
        <ele>528.923</ele>
        <time>2018-11-05T15:16:45Z</time>
      </trkpt>
      <trkpt lat="45.83603" lon="4.23635">
        <ele>529.438</ele>
        <time>2018-11-05T15:16:50Z</time>
      </trkpt>
      <trkpt lat="45.83603" lon="4.23639">
        <ele>530.257</ele>
        <time>2018-11-05T15:16:56Z</time>
      </trkpt>
      <trkpt lat="45.83602" lon="4.23631">
        <ele>530.61</ele>
        <time>2018-11-05T15:17:02Z</time>
      </trkpt>
      <trkpt lat="45.83601" lon="4.23621">
        <ele>530.695</ele>
        <time>2018-11-05T15:17:07Z</time>
      </trkpt>
      <trkpt lat="45.836" lon="4.23609">
        <ele>530.865</ele>
        <time>2018-11-05T15:17:13Z</time>
      </trkpt>
      <trkpt lat="45.83603" lon="4.23599">
        <ele>530.866</ele>
        <time>2018-11-05T15:17:18Z</time>
      </trkpt>
      <trkpt lat="45.83607" lon="4.23595">
        <ele>531.255</ele>
        <time>2018-11-05T15:17:24Z</time>
      </trkpt>
      <trkpt lat="45.83609" lon="4.236">
        <ele>531.505</ele>
        <time>2018-11-05T15:17:30Z</time>
      </trkpt>
      <trkpt lat="45.8361" lon="4.23603">
        <ele>531.639</ele>
        <time>2018-11-05T15:17:36Z</time>
      </trkpt>
      <trkpt lat="45.83609" lon="4.23604">
        <ele>531.854</ele>
        <time>2018-11-05T15:17:41Z</time>
      </trkpt>
      <trkpt lat="45.83609" lon="4.23602">
        <ele>531.698</ele>
        <time>2018-11-05T15:17:47Z</time>
      </trkpt>
      <trkpt lat="45.8361" lon="4.23603">
        <ele>531.764</ele>
        <time>2018-11-05T15:17:53Z</time>
      </trkpt>
      <trkpt lat="45.83611" lon="4.23603">
        <ele>531.715</ele>
        <time>2018-11-05T15:17:59Z</time>
      </trkpt>
      <trkpt lat="45.83612" lon="4.23601">
        <ele>531.159</ele>
        <time>2018-11-05T15:18:05Z</time>
      </trkpt>
      <trkpt lat="45.83613" lon="4.23603">
        <ele>531.395</ele>
        <time>2018-11-05T15:18:10Z</time>
      </trkpt>
      <trkpt lat="45.83615" lon="4.23603">
        <ele>531.77</ele>
        <time>2018-11-05T15:18:15Z</time>
      </trkpt>
      <trkpt lat="45.83618" lon="4.23602">
        <ele>532.095</ele>
        <time>2018-11-05T15:18:20Z</time>
      </trkpt>
      <trkpt lat="45.83623" lon="4.23605">
        <ele>532.374</ele>
        <time>2018-11-05T15:18:26Z</time>
      </trkpt>
      <trkpt lat="45.83628" lon="4.23609">
        <ele>531.873</ele>
        <time>2018-11-05T15:18:32Z</time>
      </trkpt>
      <trkpt lat="45.8363" lon="4.2361">
        <ele>531.403</ele>
        <time>2018-11-05T15:18:37Z</time>
      </trkpt>
      <trkpt lat="45.83632" lon="4.2361">
        <ele>530.592</ele>
        <time>2018-11-05T15:18:43Z</time>
      </trkpt>
      <trkpt lat="45.83639" lon="4.23613">
        <ele>529.377</ele>
        <time>2018-11-05T15:18:49Z</time>
      </trkpt>
      <trkpt lat="45.83644" lon="4.23616">
        <ele>528.661</ele>
        <time>2018-11-05T15:18:54Z</time>
      </trkpt>
      <trkpt lat="45.83651" lon="4.23617">
        <ele>527.754</ele>
        <time>2018-11-05T15:19:00Z</time>
      </trkpt>
      <trkpt lat="45.83656" lon="4.2361">
        <ele>526.664</ele>
        <time>2018-11-05T15:19:06Z</time>
      </trkpt>
      <trkpt lat="45.8366" lon="4.23603">
        <ele>526.266</ele>
        <time>2018-11-05T15:19:11Z</time>
      </trkpt>
      <trkpt lat="45.83664" lon="4.23595">
        <ele>525.977</ele>
        <time>2018-11-05T15:19:17Z</time>
      </trkpt>
      <trkpt lat="45.83669" lon="4.23587">
        <ele>525.792</ele>
        <time>2018-11-05T15:19:23Z</time>
      </trkpt>
      <trkpt lat="45.83674" lon="4.23582">
        <ele>525.459</ele>
        <time>2018-11-05T15:19:29Z</time>
      </trkpt>
      <trkpt lat="45.83679" lon="4.23579">
        <ele>526.028</ele>
        <time>2018-11-05T15:19:35Z</time>
      </trkpt>
      <trkpt lat="45.8368" lon="4.23575">
        <ele>526.518</ele>
        <time>2018-11-05T15:19:40Z</time>
      </trkpt>
      <trkpt lat="45.83682" lon="4.2357">
        <ele>526.679</ele>
        <time>2018-11-05T15:19:45Z</time>
      </trkpt>
      <trkpt lat="45.83687" lon="4.23562">
        <ele>527.028</ele>
        <time>2018-11-05T15:19:51Z</time>
      </trkpt>
      <trkpt lat="45.83692" lon="4.23556">
        <ele>527.469</ele>
        <time>2018-11-05T15:19:57Z</time>
      </trkpt>
      <trkpt lat="45.83698" lon="4.2355">
        <ele>527.715</ele>
        <time>2018-11-05T15:20:03Z</time>
      </trkpt>
      <trkpt lat="45.83704" lon="4.23543">
        <ele>527.369</ele>
        <time>2018-11-05T15:20:09Z</time>
      </trkpt>
      <trkpt lat="45.8371" lon="4.23535">
        <ele>526.687</ele>
        <time>2018-11-05T15:20:15Z</time>
      </trkpt>
      <trkpt lat="45.83716" lon="4.2353">
        <ele>526.349</ele>
        <time>2018-11-05T15:20:21Z</time>
      </trkpt>
      <trkpt lat="45.83721" lon="4.23526">
        <ele>526.553</ele>
        <time>2018-11-05T15:20:27Z</time>
      </trkpt>
      <trkpt lat="45.83726" lon="4.23522">
        <ele>526.246</ele>
        <time>2018-11-05T15:20:32Z</time>
      </trkpt>
      <trkpt lat="45.83732" lon="4.23514">
        <ele>525.672</ele>
        <time>2018-11-05T15:20:38Z</time>
      </trkpt>
      <trkpt lat="45.83737" lon="4.2351">
        <ele>525.853</ele>
        <time>2018-11-05T15:20:44Z</time>
      </trkpt>
      <trkpt lat="45.83742" lon="4.23506">
        <ele>526.005</ele>
        <time>2018-11-05T15:20:49Z</time>
      </trkpt>
      <trkpt lat="45.83749" lon="4.23501">
        <ele>525.849</ele>
        <time>2018-11-05T15:20:55Z</time>
      </trkpt>
      <trkpt lat="45.83756" lon="4.23494">
        <ele>525.402</ele>
        <time>2018-11-05T15:21:00Z</time>
      </trkpt>
      <trkpt lat="45.83762" lon="4.23486">
        <ele>524.986</ele>
        <time>2018-11-05T15:21:05Z</time>
      </trkpt>
      <trkpt lat="45.83766" lon="4.23477">
        <ele>524.526</ele>
        <time>2018-11-05T15:21:11Z</time>
      </trkpt>
      <trkpt lat="45.8377" lon="4.23469">
        <ele>523.966</ele>
        <time>2018-11-05T15:21:17Z</time>
      </trkpt>
      <trkpt lat="45.83776" lon="4.23459">
        <ele>523.645</ele>
        <time>2018-11-05T15:21:23Z</time>
      </trkpt>
      <trkpt lat="45.83779" lon="4.23451">
        <ele>523.233</ele>
        <time>2018-11-05T15:21:29Z</time>
      </trkpt>
      <trkpt lat="45.83784" lon="4.2344">
        <ele>522.76</ele>
        <time>2018-11-05T15:21:35Z</time>
      </trkpt>
      <trkpt lat="45.83788" lon="4.23432">
        <ele>523.066</ele>
        <time>2018-11-05T15:21:40Z</time>
      </trkpt>
      <trkpt lat="45.83794" lon="4.23421">
        <ele>523.028</ele>
        <time>2018-11-05T15:21:46Z</time>
      </trkpt>
      <trkpt lat="45.83799" lon="4.23413">
        <ele>522.877</ele>
        <time>2018-11-05T15:21:52Z</time>
      </trkpt>
      <trkpt lat="45.83803" lon="4.23407">
        <ele>522.669</ele>
        <time>2018-11-05T15:21:57Z</time>
      </trkpt>
      <trkpt lat="45.83808" lon="4.23395">
        <ele>522.634</ele>
        <time>2018-11-05T15:22:03Z</time>
      </trkpt>
      <trkpt lat="45.83812" lon="4.23386">
        <ele>522.712</ele>
        <time>2018-11-05T15:22:08Z</time>
      </trkpt>
      <trkpt lat="45.83815" lon="4.2338">
        <ele>522.876</ele>
        <time>2018-11-05T15:22:13Z</time>
      </trkpt>
      <trkpt lat="45.83819" lon="4.23377">
        <ele>522.877</ele>
        <time>2018-11-05T15:22:19Z</time>
      </trkpt>
      <trkpt lat="45.83823" lon="4.23373">
        <ele>523.454</ele>
        <time>2018-11-05T15:22:24Z</time>
      </trkpt>
      <trkpt lat="45.83828" lon="4.23362">
        <ele>524.154</ele>
        <time>2018-11-05T15:22:29Z</time>
      </trkpt>
      <trkpt lat="45.83834" lon="4.23354">
        <ele>524.689</ele>
        <time>2018-11-05T15:22:35Z</time>
      </trkpt>
      <trkpt lat="45.83837" lon="4.23346">
        <ele>524.364</ele>
        <time>2018-11-05T15:22:40Z</time>
      </trkpt>
      <trkpt lat="45.83841" lon="4.23339">
        <ele>523.609</ele>
        <time>2018-11-05T15:22:46Z</time>
      </trkpt>
      <trkpt lat="45.83847" lon="4.23328">
        <ele>522.906</ele>
        <time>2018-11-05T15:22:52Z</time>
      </trkpt>
      <trkpt lat="45.83849" lon="4.23318">
        <ele>522.007</ele>
        <time>2018-11-05T15:22:58Z</time>
      </trkpt>
      <trkpt lat="45.83851" lon="4.23309">
        <ele>521.207</ele>
        <time>2018-11-05T15:23:03Z</time>
      </trkpt>
      <trkpt lat="45.83856" lon="4.23296">
        <ele>520.501</ele>
        <time>2018-11-05T15:23:09Z</time>
      </trkpt>
      <trkpt lat="45.83858" lon="4.23287">
        <ele>520.86</ele>
        <time>2018-11-05T15:23:15Z</time>
      </trkpt>
      <trkpt lat="45.83859" lon="4.23279">
        <ele>520.623</ele>
        <time>2018-11-05T15:23:20Z</time>
      </trkpt>
      <trkpt lat="45.83864" lon="4.23282">
        <ele>519.696</ele>
        <time>2018-11-05T15:23:26Z</time>
      </trkpt>
      <trkpt lat="45.83866" lon="4.23291">
        <ele>519.621</ele>
        <time>2018-11-05T15:23:32Z</time>
      </trkpt>
      <trkpt lat="45.83868" lon="4.23298">
        <ele>519.978</ele>
        <time>2018-11-05T15:23:38Z</time>
      </trkpt>
      <trkpt lat="45.83869" lon="4.23309">
        <ele>520.401</ele>
        <time>2018-11-05T15:23:44Z</time>
      </trkpt>
      <trkpt lat="45.83872" lon="4.23319">
        <ele>520.762</ele>
        <time>2018-11-05T15:23:50Z</time>
      </trkpt>
      <trkpt lat="45.83875" lon="4.2333">
        <ele>520.738</ele>
        <time>2018-11-05T15:23:56Z</time>
      </trkpt>
      <trkpt lat="45.83873" lon="4.23339">
        <ele>520.395</ele>
        <time>2018-11-05T15:24:02Z</time>
      </trkpt>
      <trkpt lat="45.83871" lon="4.23348">
        <ele>520.239</ele>
        <time>2018-11-05T15:24:07Z</time>
      </trkpt>
      <trkpt lat="45.8387" lon="4.23353">
        <ele>520.056</ele>
        <time>2018-11-05T15:24:12Z</time>
      </trkpt>
      <trkpt lat="45.83868" lon="4.23361">
        <ele>520.233</ele>
        <time>2018-11-05T15:24:18Z</time>
      </trkpt>
      <trkpt lat="45.83867" lon="4.23367">
        <ele>520.755</ele>
        <time>2018-11-05T15:24:23Z</time>
      </trkpt>
      <trkpt lat="45.83864" lon="4.23378">
        <ele>521.6</ele>
        <time>2018-11-05T15:24:29Z</time>
      </trkpt>
      <trkpt lat="45.83861" lon="4.23384">
        <ele>521.964</ele>
        <time>2018-11-05T15:24:34Z</time>
      </trkpt>
      <trkpt lat="45.83855" lon="4.23393">
        <ele>522.277</ele>
        <time>2018-11-05T15:24:40Z</time>
      </trkpt>
      <trkpt lat="45.83852" lon="4.23395">
        <ele>521.863</ele>
        <time>2018-11-05T15:24:46Z</time>
      </trkpt>
      <trkpt lat="45.83846" lon="4.23404">
        <ele>521.323</ele>
        <time>2018-11-05T15:24:51Z</time>
      </trkpt>
      <trkpt lat="45.83843" lon="4.23408">
        <ele>520.991</ele>
        <time>2018-11-05T15:24:56Z</time>
      </trkpt>
      <trkpt lat="45.83841" lon="4.2341">
        <ele>520.901</ele>
        <time>2018-11-05T15:25:01Z</time>
      </trkpt>
      <trkpt lat="45.83834" lon="4.23418">
        <ele>520.908</ele>
        <time>2018-11-05T15:25:07Z</time>
      </trkpt>
      <trkpt lat="45.83831" lon="4.23423">
        <ele>520.664</ele>
        <time>2018-11-05T15:25:12Z</time>
      </trkpt>
      <trkpt lat="45.83829" lon="4.23434">
        <ele>520.401</ele>
        <time>2018-11-05T15:25:17Z</time>
      </trkpt>
      <trkpt lat="45.83828" lon="4.23447">
        <ele>519.642</ele>
        <time>2018-11-05T15:25:23Z</time>
      </trkpt>
      <trkpt lat="45.83824" lon="4.23454">
        <ele>518.411</ele>
        <time>2018-11-05T15:25:28Z</time>
      </trkpt>
      <trkpt lat="45.83821" lon="4.23462">
        <ele>517.324</ele>
        <time>2018-11-05T15:25:33Z</time>
      </trkpt>
      <trkpt lat="45.8382" lon="4.23475">
        <ele>516.546</ele>
        <time>2018-11-05T15:25:38Z</time>
      </trkpt>
      <trkpt lat="45.8382" lon="4.2348">
        <ele>515.316</ele>
        <time>2018-11-05T15:25:44Z</time>
      </trkpt>
      <trkpt lat="45.83817" lon="4.23488">
        <ele>514.57</ele>
        <time>2018-11-05T15:25:49Z</time>
      </trkpt>
      <trkpt lat="45.83816" lon="4.23499">
        <ele>513.268</ele>
        <time>2018-11-05T15:25:55Z</time>
      </trkpt>
      <trkpt lat="45.83816" lon="4.23506">
        <ele>512.65</ele>
        <time>2018-11-05T15:26:00Z</time>
      </trkpt>
      <trkpt lat="45.83815" lon="4.23513">
        <ele>512.396</ele>
        <time>2018-11-05T15:26:06Z</time>
      </trkpt>
      <trkpt lat="45.83812" lon="4.23524">
        <ele>512.762</ele>
        <time>2018-11-05T15:26:12Z</time>
      </trkpt>
      <trkpt lat="45.8381" lon="4.23534">
        <ele>512.627</ele>
        <time>2018-11-05T15:26:17Z</time>
      </trkpt>
      <trkpt lat="45.83808" lon="4.23544">
        <ele>512.385</ele>
        <time>2018-11-05T15:26:23Z</time>
      </trkpt>
      <trkpt lat="45.83807" lon="4.23553">
        <ele>511.945</ele>
        <time>2018-11-05T15:26:28Z</time>
      </trkpt>
      <trkpt lat="45.83807" lon="4.23562">
        <ele>511.718</ele>
        <time>2018-11-05T15:26:33Z</time>
      </trkpt>
      <trkpt lat="45.83804" lon="4.23572">
        <ele>511.385</ele>
        <time>2018-11-05T15:26:39Z</time>
      </trkpt>
      <trkpt lat="45.838" lon="4.23585">
        <ele>511.125</ele>
        <time>2018-11-05T15:26:45Z</time>
      </trkpt>
      <trkpt lat="45.83801" lon="4.23596">
        <ele>510.662</ele>
        <time>2018-11-05T15:26:50Z</time>
      </trkpt>
      <trkpt lat="45.83804" lon="4.23603">
        <ele>510.212</ele>
        <time>2018-11-05T15:26:56Z</time>
      </trkpt>
      <trkpt lat="45.83805" lon="4.23605">
        <ele>509.753</ele>
        <time>2018-11-05T15:27:01Z</time>
      </trkpt>
      <trkpt lat="45.83808" lon="4.23608">
        <ele>509.279</ele>
        <time>2018-11-05T15:27:06Z</time>
      </trkpt>
      <trkpt lat="45.83811" lon="4.2361">
        <ele>509.213</ele>
        <time>2018-11-05T15:27:12Z</time>
      </trkpt>
      <trkpt lat="45.83813" lon="4.23612">
        <ele>509.066</ele>
        <time>2018-11-05T15:27:17Z</time>
      </trkpt>
      <trkpt lat="45.83819" lon="4.23611">
        <ele>508.704</ele>
        <time>2018-11-05T15:27:22Z</time>
      </trkpt>
      <trkpt lat="45.83826" lon="4.23609">
        <ele>508.439</ele>
        <time>2018-11-05T15:27:28Z</time>
      </trkpt>
      <trkpt lat="45.8383" lon="4.23618">
        <ele>508.422</ele>
        <time>2018-11-05T15:27:33Z</time>
      </trkpt>
      <trkpt lat="45.83831" lon="4.23626">
        <ele>508.813</ele>
        <time>2018-11-05T15:27:38Z</time>
      </trkpt>
      <trkpt lat="45.83833" lon="4.23628">
        <ele>509.358</ele>
        <time>2018-11-05T15:27:44Z</time>
      </trkpt>
      <trkpt lat="45.83836" lon="4.23628">
        <ele>509.525</ele>
        <time>2018-11-05T15:27:50Z</time>
      </trkpt>
      <trkpt lat="45.83839" lon="4.23634">
        <ele>509.813</ele>
        <time>2018-11-05T15:27:56Z</time>
      </trkpt>
      <trkpt lat="45.83845" lon="4.23635">
        <ele>510.551</ele>
        <time>2018-11-05T15:28:02Z</time>
      </trkpt>
      <trkpt lat="45.83847" lon="4.23635">
        <ele>511.9</ele>
        <time>2018-11-05T15:28:08Z</time>
      </trkpt>
      <trkpt lat="45.8385" lon="4.23638">
        <ele>513.8</ele>
        <time>2018-11-05T15:28:14Z</time>
      </trkpt>
      <trkpt lat="45.83852" lon="4.23642">
        <ele>515.357</ele>
        <time>2018-11-05T15:28:20Z</time>
      </trkpt>
      <trkpt lat="45.83854" lon="4.23648">
        <ele>516.188</ele>
        <time>2018-11-05T15:28:25Z</time>
      </trkpt>
      <trkpt lat="45.83855" lon="4.23653">
        <ele>516.498</ele>
        <time>2018-11-05T15:28:30Z</time>
      </trkpt>
      <trkpt lat="45.83856" lon="4.23659">
        <ele>516.366</ele>
        <time>2018-11-05T15:28:36Z</time>
      </trkpt>
      <trkpt lat="45.83859" lon="4.2366">
        <ele>516.587</ele>
        <time>2018-11-05T15:28:41Z</time>
      </trkpt>
      <trkpt lat="45.83859" lon="4.23662">
        <ele>516.867</ele>
        <time>2018-11-05T15:28:47Z</time>
      </trkpt>
      <trkpt lat="45.83857" lon="4.23664">
        <ele>517.037</ele>
        <time>2018-11-05T15:28:53Z</time>
      </trkpt>
      <trkpt lat="45.83856" lon="4.23663">
        <ele>517.292</ele>
        <time>2018-11-05T15:28:58Z</time>
      </trkpt>
      <trkpt lat="45.83855" lon="4.23663">
        <ele>517.542</ele>
        <time>2018-11-05T15:29:04Z</time>
      </trkpt>
      <trkpt lat="45.83855" lon="4.23658">
        <ele>517.735</ele>
        <time>2018-11-05T15:29:09Z</time>
      </trkpt>
      <trkpt lat="45.83854" lon="4.23658">
        <ele>517.726</ele>
        <time>2018-11-05T15:29:16Z</time>
      </trkpt>
      <trkpt lat="45.83856" lon="4.23662">
        <ele>517.761</ele>
        <time>2018-11-05T15:29:21Z</time>
      </trkpt>
      <trkpt lat="45.83856" lon="4.23657">
        <ele>517.528</ele>
        <time>2018-11-05T15:29:27Z</time>
      </trkpt>
      <trkpt lat="45.83855" lon="4.23657">
        <ele>517.625</ele>
        <time>2018-11-05T15:29:33Z</time>
      </trkpt>
      <trkpt lat="45.83855" lon="4.23665">
        <ele>517.849</ele>
        <time>2018-11-05T15:29:39Z</time>
      </trkpt>
      <trkpt lat="45.83854" lon="4.23664">
        <ele>518.045</ele>
        <time>2018-11-05T15:29:45Z</time>
      </trkpt>
      <trkpt lat="45.83853" lon="4.2367">
        <ele>518.499</ele>
        <time>2018-11-05T15:29:50Z</time>
      </trkpt>
      <trkpt lat="45.83852" lon="4.23677">
        <ele>519.731</ele>
        <time>2018-11-05T15:29:56Z</time>
      </trkpt>
      <trkpt lat="45.83852" lon="4.23681">
        <ele>521.062</ele>
        <time>2018-11-05T15:30:01Z</time>
      </trkpt>
      <trkpt lat="45.83853" lon="4.23681">
        <ele>522.127</ele>
        <time>2018-11-05T15:30:07Z</time>
      </trkpt>
      <trkpt lat="45.83853" lon="4.23682">
        <ele>522.39</ele>
        <time>2018-11-05T15:30:12Z</time>
      </trkpt>
      <trkpt lat="45.83853" lon="4.23683">
        <ele>522.408</ele>
        <time>2018-11-05T15:30:18Z</time>
      </trkpt>
      <trkpt lat="45.83854" lon="4.23684">
        <ele>522.08</ele>
        <time>2018-11-05T15:30:23Z</time>
      </trkpt>
      <trkpt lat="45.83855" lon="4.23685">
        <ele>521.92</ele>
        <time>2018-11-05T15:30:28Z</time>
      </trkpt>
      <trkpt lat="45.83855" lon="4.23685">
        <ele>521.68</ele>
        <time>2018-11-05T15:30:34Z</time>
      </trkpt>
      <trkpt lat="45.83854" lon="4.23685">
        <ele>521.509</ele>
        <time>2018-11-05T15:30:39Z</time>
      </trkpt>
      <trkpt lat="45.83853" lon="4.23686">
        <ele>521.48</ele>
        <time>2018-11-05T15:30:45Z</time>
      </trkpt>
      <trkpt lat="45.8385" lon="4.23689">
        <ele>521.526</ele>
        <time>2018-11-05T15:30:51Z</time>
      </trkpt>
      <trkpt lat="45.8385" lon="4.23688">
        <ele>521.454</ele>
        <time>2018-11-05T15:30:57Z</time>
      </trkpt>
      <trkpt lat="45.8385" lon="4.23688">
        <ele>521.506</ele>
        <time>2018-11-05T15:31:03Z</time>
      </trkpt>
      <trkpt lat="45.83849" lon="4.23689">
        <ele>521.775</ele>
        <time>2018-11-05T15:31:09Z</time>
      </trkpt>
      <trkpt lat="45.83848" lon="4.23692">
        <ele>522.446</ele>
        <time>2018-11-05T15:31:15Z</time>
      </trkpt>
      <trkpt lat="45.83844" lon="4.237">
        <ele>523.468</ele>
        <time>2018-11-05T15:31:21Z</time>
      </trkpt>
      <trkpt lat="45.83842" lon="4.23706">
        <ele>524.328</ele>
        <time>2018-11-05T15:31:26Z</time>
      </trkpt>
      <trkpt lat="45.8384" lon="4.23716">
        <ele>525.166</ele>
        <time>2018-11-05T15:31:32Z</time>
      </trkpt>
      <trkpt lat="45.83838" lon="4.2372">
        <ele>525.984</ele>
        <time>2018-11-05T15:31:37Z</time>
      </trkpt>
      <trkpt lat="45.83839" lon="4.23718">
        <ele>526.451</ele>
        <time>2018-11-05T15:31:42Z</time>
      </trkpt>
      <trkpt lat="45.83839" lon="4.23717">
        <ele>526.639</ele>
        <time>2018-11-05T15:31:47Z</time>
      </trkpt>
      <trkpt lat="45.83841" lon="4.23719">
        <ele>527.119</ele>
        <time>2018-11-05T15:31:53Z</time>
      </trkpt>
      <trkpt lat="45.83843" lon="4.23719">
        <ele>527.66</ele>
        <time>2018-11-05T15:31:59Z</time>
      </trkpt>
      <trkpt lat="45.83842" lon="4.23719">
        <ele>527.931</ele>
        <time>2018-11-05T15:32:04Z</time>
      </trkpt>
      <trkpt lat="45.8384" lon="4.23719">
        <ele>527.687</ele>
        <time>2018-11-05T15:32:11Z</time>
      </trkpt>
      <trkpt lat="45.83839" lon="4.2372">
        <ele>527.724</ele>
        <time>2018-11-05T15:32:16Z</time>
      </trkpt>
      <trkpt lat="45.8384" lon="4.23716">
        <ele>527.797</ele>
        <time>2018-11-05T15:32:22Z</time>
      </trkpt>
      <trkpt lat="45.8384" lon="4.23714">
        <ele>527.872</ele>
        <time>2018-11-05T15:32:27Z</time>
      </trkpt>
      <trkpt lat="45.83841" lon="4.23716">
        <ele>527.977</ele>
        <time>2018-11-05T15:32:33Z</time>
      </trkpt>
      <trkpt lat="45.83842" lon="4.23718">
        <ele>528.092</ele>
        <time>2018-11-05T15:32:39Z</time>
      </trkpt>
      <trkpt lat="45.83842" lon="4.23718">
        <ele>528.194</ele>
        <time>2018-11-05T15:32:44Z</time>
      </trkpt>
      <trkpt lat="45.83843" lon="4.23718">
        <ele>528.318</ele>
        <time>2018-11-05T15:32:50Z</time>
      </trkpt>
      <trkpt lat="45.83842" lon="4.23718">
        <ele>528.42</ele>
        <time>2018-11-05T15:32:56Z</time>
      </trkpt>
      <trkpt lat="45.83841" lon="4.23717">
        <ele>528.474</ele>
        <time>2018-11-05T15:33:01Z</time>
      </trkpt>
      <trkpt lat="45.8384" lon="4.23718">
        <ele>528.528</ele>
        <time>2018-11-05T15:33:06Z</time>
      </trkpt>
      <trkpt lat="45.83838" lon="4.2372">
        <ele>528.513</ele>
        <time>2018-11-05T15:33:12Z</time>
      </trkpt>
      <trkpt lat="45.83836" lon="4.23719">
        <ele>528.435</ele>
        <time>2018-11-05T15:33:18Z</time>
      </trkpt>
      <trkpt lat="45.83836" lon="4.23719">
        <ele>528.326</ele>
        <time>2018-11-05T15:33:24Z</time>
      </trkpt>
      <trkpt lat="45.83836" lon="4.23719">
        <ele>528.269</ele>
        <time>2018-11-05T15:33:31Z</time>
      </trkpt>
      <trkpt lat="45.83836" lon="4.23719">
        <ele>528.247</ele>
        <time>2018-11-05T15:33:36Z</time>
      </trkpt>
      <trkpt lat="45.83836" lon="4.23719">
        <ele>528.27</ele>
        <time>2018-11-05T15:33:41Z</time>
      </trkpt>
      <trkpt lat="45.83836" lon="4.2372">
        <ele>528.445</ele>
        <time>2018-11-05T15:33:47Z</time>
      </trkpt>
      <trkpt lat="45.83836" lon="4.2372">
        <ele>528.54</ele>
        <time>2018-11-05T15:33:52Z</time>
      </trkpt>
      <trkpt lat="45.83836" lon="4.2372">
        <ele>528.769</ele>
        <time>2018-11-05T15:33:58Z</time>
      </trkpt>
      <trkpt lat="45.83836" lon="4.2372">
        <ele>529.137</ele>
        <time>2018-11-05T15:34:03Z</time>
      </trkpt>
      <trkpt lat="45.83836" lon="4.2372">
        <ele>529.572</ele>
        <time>2018-11-05T15:34:08Z</time>
      </trkpt>
      <trkpt lat="45.83837" lon="4.23719">
        <ele>530.114</ele>
        <time>2018-11-05T15:34:14Z</time>
      </trkpt>
      <trkpt lat="45.83842" lon="4.23715">
        <ele>530.58</ele>
        <time>2018-11-05T15:34:22Z</time>
      </trkpt>
      <trkpt lat="45.83842" lon="4.23715">
        <ele>530.488</ele>
        <time>2018-11-05T15:34:28Z</time>
      </trkpt>
      <trkpt lat="45.83842" lon="4.23715">
        <ele>530.32</ele>
        <time>2018-11-05T15:34:33Z</time>
      </trkpt>
      <trkpt lat="45.83841" lon="4.23714">
        <ele>530.048</ele>
        <time>2018-11-05T15:34:39Z</time>
      </trkpt>
    </trkseg>
  </trk>
</gpx>